[[{"header":{"parameterUnit":"m.s-1","parameterCategory":1,"la1":30.6,"la2":29.2853,"lo1":-89.7004,"lo2":-87.6739,"dy":0.0162,"dx":0.0183,"nx":112,"ny":82,"refTime":"2024-06-11T18:00:00:Z","depth":0,"parameterNumber":2,"parameterNumberName":"U-component_of_WINDS"},"data":[0.0,0.0,0.0,0.0,0.0,0.0,0.0,0.0,0.0,0.0,0.0,0.0,0.0,0.0,0.0,0.0,0.0,0.0,0.0,0.0,0.0,0.0,0.0,0.0,0.0,0.0,0.0,0.0,0.0,0.0,0.0,0.0,0.0,0.0,0.0,0.0,0.0,0.0,0.0,0.0,0.0,0.0,0.0,0.0,0.0,0.0,0.0,0.0,0.0,0.0,0.0,0.0,0.0,0.0,0.0,0.0,0.0,0.0,0.0,0.0,0.0,0.0,0.0,0.0,0.0,0.0,0.0,0.0,0.0,0.0,0.0,0.0,0.0,0.0,0.0,0.0,0.0,0.0,0.0,0.0,0.0,0.0,0.0,0.0,0.0,0.0,0.0,0.0,0.0,0.0,-2.5176,-2.7187,-2.8769,-2.9492,-2.9062,-2.8516,-2.7148,-2.4668,0.0,0.0,0.0,0.0,0.0,0.0,0.0,0.0,0.0,0.0,0.0,0.0,0.0,0.0,0.0,0.0,0.0,0.0,0.0,0.0,0.0,0.0,0.0,0.0,0.0,0.0,0.0,0.0,0.0,0.0,0.0,0.0,0.0,0.0,0.0,0.0,0.0,0.0,0.0,0.0,0.0,0.0,0.0,0.0,0.0,0.0,0.0,0.0,0.0,0.0,0.0,0.0,0.0,0.0,0.0,0.0,0.0,0.0,0.0,0.0,0.0,0.0,0.0,0.0,0.0,0.0,0.0,0.0,0.0,0.0,0.0,0.0,0.0,0.0,0.0,0.0,0.0,0.0,0.0,0.0,0.0,0.0,0.0,0.0,0.0,0.0,0.0,0.0,0.0,0.0,0.0,0.0,0.0,0.0,0.0,0.0,0.0,0.0,0.0,0.0,0.0,0.0,0.0,0.0,-2.5644,-2.8848,-2.9726,-2.9922,-2.9512,-2.8472,-2.7004,-2.5078,0.0,0.0,0.0,0.0,0.0,0.0,0.0,0.0,0.0,0.0,0.0,0.0,0.0,0.0,0.0,0.0,0.0,0.0,0.0,0.0,0.0,0.0,0.0,0.0,0.0,0.0,0.0,0.0,0.0,0.0,0.0,0.0,0.0,0.0,0.0,0.0,0.0,0.0,0.0,0.0,0.0,0.0,0.0,0.0,0.0,0.0,0.0,0.0,0.0,0.0,0.0,0.0,0.0,0.0,0.0,0.0,0.0,0.0,0.0,0.0,0.0,0.0,0.0,0.0,0.0,0.0,0.0,0.0,0.0,0.0,0.0,0.0,0.0,0.0,0.0,0.0,0.0,0.0,0.0,0.0,0.0,0.0,0.0,0.0,0.0,0.0,0.0,0.0,0.0,0.0,0.0,0.0,0.0,0.0,0.0,0.0,0.0,0.0,0.0,0.0,0.0,0.0,0.0,-2.5664,-2.7129,-2.9648,-3.0312,-3.0293,-2.9685,-2.8613,-2.707,-2.4844,-2.3926,0.0,0.0,0.0,0.0,0.0,0.0,0.0,0.0,0.0,0.0,0.0,0.0,0.0,0.0,0.0,0.0,0.0,0.0,0.0,0.0,0.0,0.0,0.0,0.0,0.0,0.0,0.0,0.0,0.0,0.0,0.0,0.0,0.0,0.0,0.0,0.0,0.0,0.0,0.0,0.0,0.0,0.0,0.0,0.0,0.0,0.0,0.0,0.0,0.0,0.0,0.0,0.0,0.0,0.0,0.0,0.0,0.0,0.0,0.0,0.0,0.0,0.0,0.0,0.0,0.0,0.0,0.0,0.0,0.0,0.0,0.0,0.0,0.0,0.0,0.0,0.0,0.0,0.0,0.0,0.0,0.0,0.0,0.0,0.0,0.0,0.0,0.0,0.0,0.0,0.0,0.0,0.0,0.0,0.0,0.0,0.0,0.0,0.0,0.0,0.0,0.0,0.0,-2.75,-2.8574,-3.0176,-3.0684,-3.0527,-2.9648,-2.8594,-2.6973,-2.457,-2.3437,0.0,0.0,0.0,0.0,0.0,0.0,0.0,0.0,0.0,0.0,0.0,0.0,0.0,0.0,0.0,0.0,0.0,0.0,0.0,0.0,0.0,0.0,0.0,0.0,0.0,0.0,0.0,0.0,0.0,0.0,0.0,0.0,0.0,0.0,0.0,0.0,0.0,0.0,0.0,0.0,0.0,0.0,0.0,0.0,0.0,0.0,0.0,0.0,0.0,0.0,0.0,0.0,0.0,0.0,0.0,0.0,0.0,0.0,0.0,0.0,0.0,0.0,0.0,0.0,0.0,0.0,0.0,0.0,0.0,0.0,0.0,0.0,0.0,0.0,0.0,0.0,0.0,0.0,0.0,0.0,0.0,0.0,0.0,0.0,0.0,0.0,0.0,0.0,0.0,0.0,0.0,0.0,0.0,0.0,0.0,0.0,0.0,0.0,0.0,0.0,0.0,0.0,-2.7832,-2.9355,-3.0703,-3.0879,-3.0527,-2.9648,-2.8047,-2.6328,-2.4531,-2.2871,0.0,0.0,0.0,0.0,0.0,0.0,0.0,0.0,0.0,0.0,0.0,0.0,0.0,0.0,0.0,0.0,0.0,0.0,0.0,0.0,0.0,0.0,0.0,0.0,0.0,0.0,0.0,0.0,0.0,0.0,0.0,0.0,0.0,0.0,0.0,0.0,0.0,0.0,0.0,0.0,0.0,0.0,0.0,0.0,0.0,0.0,0.0,0.0,0.0,0.0,0.0,0.0,0.0,0.0,0.0,0.0,0.0,0.0,0.0,0.0,0.0,0.0,0.0,0.0,0.0,0.0,0.0,0.0,0.0,0.0,0.0,0.0,0.0,0.0,0.0,0.0,0.0,0.0,0.0,0.0,0.0,0.0,0.0,0.0,0.0,0.0,0.0,0.0,0.0,0.0,0.0,0.0,0.0,0.0,0.0,0.0,0.0,0.0,0.0,0.0,0.0,0.0,-2.7812,-2.9141,-3.0723,-3.0898,-3.0527,-2.9648,-2.8496,-2.6836,-2.4551,0.0,0.0,0.0,0.0,0.0,0.0,0.0,0.0,0.0,0.0,0.0,0.0,0.0,0.0,0.0,0.0,0.0,0.0,0.0,0.0,0.0,0.0,0.0,0.0,0.0,0.0,0.0,0.0,0.0,0.0,0.0,0.0,0.0,0.0,0.0,0.0,0.0,0.0,0.0,0.0,0.0,0.0,0.0,0.0,0.0,0.0,0.0,0.0,0.0,0.0,0.0,0.0,0.0,0.0,0.0,0.0,0.0,0.0,0.0,0.0,0.0,0.0,0.0,0.0,0.0,0.0,0.0,0.0,0.0,0.0,0.0,0.0,0.0,0.0,0.0,0.0,0.0,0.0,0.0,0.0,0.0,0.0,0.0,0.0,0.0,0.0,0.0,0.0,0.0,0.0,0.0,0.0,0.0,0.0,0.0,0.0,0.0,0.0,0.0,0.0,0.0,0.0,-2.6719,-2.8008,-2.9258,-3.0742,-3.0898,-3.0527,-2.9648,-2.8535,-2.6894,-2.457,0.0,0.0,0.0,0.0,0.0,0.0,0.0,0.0,0.0,0.0,0.0,0.0,0.0,0.0,0.0,0.0,0.0,0.0,0.0,0.0,0.0,0.0,0.0,0.0,0.0,0.0,0.0,0.0,0.0,0.0,0.0,0.0,0.0,0.0,0.0,0.0,0.0,0.0,0.0,0.0,0.0,0.0,0.0,0.0,0.0,0.0,0.0,0.0,0.0,0.0,0.0,0.0,0.0,0.0,0.0,0.0,0.0,0.0,0.0,0.0,0.0,0.0,0.0,0.0,0.0,0.0,0.0,0.0,0.0,0.0,0.0,0.0,0.0,0.0,0.0,0.0,0.0,0.0,0.0,0.0,0.0,0.0,0.0,0.0,0.0,0.0,0.0,0.0,0.0,0.0,0.0,0.0,0.0,0.0,0.0,0.0,0.0,0.0,0.0,0.0,0.0,0.0,-2.6797,-2.8516,-2.9922,-3.0801,-3.0898,-3.0527,-2.9648,-2.8008,-2.6289,0.0,0.0,0.0,0.0,0.0,0.0,0.0,0.0,0.0,0.0,0.0,0.0,0.0,0.0,0.0,0.0,0.0,0.0,0.0,0.0,0.0,0.0,0.0,0.0,0.0,0.0,0.0,0.0,0.0,0.0,0.0,0.0,0.0,0.0,0.0,0.0,0.0,0.0,0.0,0.0,0.0,0.0,0.0,0.0,0.0,0.0,0.0,0.0,0.0,0.0,0.0,0.0,0.0,0.0,0.0,0.0,0.0,0.0,0.0,0.0,0.0,0.0,0.0,0.0,0.0,0.0,0.0,0.0,0.0,0.0,0.0,0.0,0.0,0.0,0.0,0.0,0.0,0.0,0.0,0.0,0.0,0.0,0.0,0.0,0.0,0.0,0.0,0.0,0.0,0.0,0.0,0.0,0.0,0.0,0.0,0.0,0.0,0.0,0.0,0.0,0.0,0.0,0.0,-2.6836,-2.9062,-3.0605,-3.0859,-3.1152,-3.0859,-2.9668,-2.8555,-2.6914,-2.457,0.0,0.0,0.0,0.0,0.0,0.0,0.0,0.0,0.0,0.0,0.0,0.0,0.0,0.0,0.0,0.0,0.0,0.0,0.0,0.0,0.0,0.0,0.0,0.0,0.0,0.0,0.0,0.0,0.0,0.0,0.0,0.0,0.0,0.0,0.0,0.0,0.0,0.0,0.0,0.0,0.0,0.0,0.0,0.0,0.0,0.0,0.0,0.0,0.0,0.0,0.0,0.0,0.0,0.0,0.0,0.0,0.0,0.0,0.0,0.0,0.0,0.0,0.0,0.0,0.0,0.0,0.0,0.0,0.0,0.0,0.0,0.0,0.0,0.0,0.0,0.0,0.0,0.0,0.0,0.0,0.0,0.0,0.0,0.0,0.0,0.0,0.0,0.0,0.0,0.0,0.0,0.0,0.0,0.0,0.0,0.0,0.0,0.0,0.0,0.0,0.0,0.0,-2.709,-2.9394,-3.1016,-3.1367,-3.1465,-3.1133,-3.0176,-2.9141,-2.7519,-2.505,0.0,0.0,0.0,0.0,0.0,0.0,0.0,0.0,0.0,0.0,0.0,0.0,0.0,0.0,0.0,0.0,0.0,0.0,0.0,0.0,0.0,0.0,0.0,0.0,0.0,0.0,0.0,0.0,0.0,0.0,0.0,0.0,0.0,0.0,0.0,0.0,0.0,0.0,0.0,0.0,0.0,0.0,0.0,0.0,0.0,0.0,0.0,0.0,0.0,0.0,0.0,0.0,0.0,0.0,0.0,0.0,0.0,0.0,0.0,0.0,0.0,0.0,0.0,0.0,0.0,0.0,0.0,0.0,0.0,0.0,0.0,0.0,0.0,0.0,0.0,0.0,0.0,0.0,0.0,0.0,0.0,0.0,0.0,0.0,0.0,0.0,0.0,0.0,0.0,0.0,0.0,0.0,0.0,0.0,0.0,0.0,0.0,0.0,0.0,0.0,0.0,0.0,-2.7552,-2.9648,-3.1309,-3.215,-3.1855,-3.1426,-3.0937,-2.9746,-2.8105,-2.5888,0.0,0.0,0.0,0.0,0.0,0.0,0.0,0.0,0.0,0.0,0.0,0.0,0.0,0.0,0.0,0.0,0.0,0.0,0.0,0.0,0.0,0.0,0.0,0.0,0.0,0.0,0.0,0.0,0.0,0.0,0.0,0.0,0.0,0.0,0.0,0.0,0.0,0.0,0.0,0.0,0.0,0.0,0.0,0.0,0.0,0.0,0.0,0.0,0.0,0.0,0.0,0.0,0.0,0.0,0.0,0.0,0.0,0.0,0.0,0.0,-2.6432,-2.5315,0.0,0.0,0.0,0.0,0.0,0.0,0.0,0.0,0.0,0.0,0.0,0.0,0.0,0.0,0.0,0.0,0.0,0.0,0.0,0.0,0.0,0.0,0.0,0.0,0.0,0.0,0.0,0.0,0.0,0.0,0.0,0.0,0.0,0.0,0.0,0.0,0.0,0.0,0.0,0.0,-2.7988,-3.0351,-3.1973,-3.2148,-3.2383,-3.207,-3.0976,-3.0293,-2.8867,-2.6406,-2.4922,0.0,0.0,0.0,0.0,0.0,0.0,0.0,0.0,0.0,0.0,0.0,0.0,0.0,0.0,0.0,0.0,0.0,0.0,0.0,0.0,0.0,0.0,0.0,0.0,0.0,0.0,0.0,0.0,0.0,0.0,0.0,0.0,0.0,0.0,0.0,0.0,0.0,0.0,0.0,0.0,0.0,0.0,0.0,0.0,0.0,0.0,0.0,0.0,0.0,0.0,0.0,0.0,0.0,0.0,0.0,0.0,0.0,0.0,0.0,-2.9301,-2.8093,0.0,0.0,0.0,0.0,0.0,0.0,0.0,0.0,0.0,0.0,0.0,0.0,0.0,0.0,0.0,0.0,0.0,0.0,0.0,0.0,0.0,0.0,0.0,0.0,0.0,0.0,0.0,0.0,0.0,0.0,0.0,0.0,0.0,0.0,0.0,0.0,0.0,0.0,0.0,0.0,-2.8632,-3.0915,-3.2488,-3.2734,-3.2793,-3.2441,-3.1582,-3.0898,-2.9609,-2.7441,-2.5879,0.0,0.0,0.0,0.0,0.0,0.0,0.0,0.0,0.0,0.0,0.0,0.0,0.0,0.0,0.0,0.0,0.0,0.0,0.0,0.0,0.0,0.0,0.0,0.0,0.0,0.0,0.0,0.0,0.0,0.0,0.0,0.0,0.0,0.0,0.0,0.0,0.0,0.0,0.0,0.0,0.0,0.0,0.0,0.0,0.0,0.0,0.0,0.0,0.0,0.0,0.0,0.0,0.0,-3.3112,-3.2958,-3.3989,-3.3402,-3.3513,-3.4134,-3.2644,-3.1422,-3.0408,-2.9271,0.0,0.0,0.0,0.0,0.0,0.0,0.0,0.0,0.0,0.0,0.0,0.0,0.0,0.0,0.0,0.0,0.0,0.0,0.0,0.0,0.0,0.0,-2.9447,-3.0025,-3.0559,-3.014,-2.7224,0.0,0.0,0.0,0.0,0.0,0.0,0.0,0.0,0.0,0.0,0.0,-2.9382,-3.1385,-3.2927,-3.334,-3.3105,-3.2734,-3.2305,-3.1562,-3.041,-2.873,-2.7168,-2.5703,0.0,0.0,0.0,0.0,0.0,0.0,0.0,0.0,0.0,0.0,0.0,0.0,0.0,0.0,0.0,0.0,0.0,0.0,0.0,0.0,0.0,0.0,0.0,0.0,0.0,0.0,0.0,0.0,0.0,0.0,0.0,0.0,-3.2867,-3.3495,0.0,0.0,0.0,0.0,0.0,0.0,0.0,0.0,0.0,0.0,0.0,0.0,0.0,-3.7766,-3.8427,-3.9038,-3.9826,-4.0769,-3.9568,-3.9126,-3.9236,-3.7949,-3.7446,-3.7529,-3.7301,0.0,-3.2235,-3.1381,0.0,0.0,0.0,0.0,0.0,0.0,0.0,0.0,0.0,0.0,0.0,0.0,0.0,0.0,0.0,0.0,0.0,0.0,0.0,0.0,0.0,0.0,-3.2709,-3.3337,-3.286,-3.2142,-3.1799,-2.988,-2.7925,-2.6964,-2.6189,-2.5467,0.0,0.0,0.0,0.0,0.0,0.0,-3.0313,-3.2078,-3.3263,-3.3379,-3.3379,-3.3164,-3.2754,-3.2285,-3.1406,-3.0039,-2.9043,-2.793,-2.6641,-2.498,0.0,0.0,0.0,0.0,0.0,0.0,0.0,0.0,0.0,0.0,0.0,0.0,0.0,0.0,0.0,0.0,0.0,0.0,0.0,0.0,0.0,0.0,0.0,0.0,0.0,0.0,0.0,0.0,0.0,-3.2993,-3.4198,-3.4751,-3.4876,-3.4595,0.0,0.0,0.0,0.0,0.0,0.0,0.0,0.0,0.0,-4.1527,-4.2344,-4.3193,-4.4036,-4.3771,-4.4003,-4.4539,-4.3447,-4.2548,-4.1876,-4.1287,-4.0362,-3.933,-3.933,-3.8129,-3.5955,-3.4072,-3.2623,-3.1485,0.0,0.0,0.0,0.0,-2.9921,-3.016,-3.1381,-3.1511,-3.1196,-3.1421,0.0,0.0,0.0,0.0,0.0,0.0,0.0,-3.0459,-3.1943,-3.2847,-3.359,-3.4591,-3.4491,-3.4124,-3.4219,-3.307,-3.1579,-2.9937,-2.9281,-2.8562,-2.7222,-2.6927,0.0,0.0,0.0,-3.0683,-3.1422,-3.2893,-3.3878,-3.3945,-3.3985,-3.3743,-3.3142,-3.2708,-3.1958,-3.0644,-2.9766,-2.8926,-2.8125,-2.666,-2.5421,0.0,0.0,0.0,0.0,0.0,0.0,0.0,0.0,0.0,0.0,0.0,0.0,0.0,0.0,0.0,0.0,0.0,0.0,0.0,0.0,0.0,0.0,0.0,0.0,0.0,0.0,0.0,0.0,-3.4776,-3.583,-3.6486,-3.696,-3.6684,0.0,0.0,0.0,0.0,0.0,0.0,-4.2133,-4.2986,-4.4317,-4.625,-4.6853,-4.7606,-4.8535,-4.7794,-4.7588,-4.7848,-4.657,-4.5504,-4.4703,-4.3937,-4.271,-4.1284,-4.088,-4.022,-3.9185,-3.666,-3.5024,-3.3969,-3.2851,-3.2271,-3.2126,-3.2561,-3.2695,-3.2752,-3.4227,-3.4391,-3.4024,-3.4309,-3.3407,-3.2076,-3.1554,0.0,0.0,0.0,0.0,-3.1861,-3.3599,-3.4176,-3.4548,-3.5687,-3.5852,-3.5749,-3.5625,-3.5335,-3.4507,-3.2514,-3.1878,-3.1257,-2.9746,-2.9394,0.0,-2.895,-3.0636,-3.2055,-3.2513,-3.3677,-3.4431,-3.4383,-3.4423,-3.4178,-3.361,-3.3011,-3.2315,-3.1427,-3.0448,-2.9707,-2.9258,-2.8223,-2.7207,-2.625,0.0,0.0,0.0,0.0,0.0,0.0,0.0,0.0,0.0,0.0,0.0,0.0,0.0,0.0,0.0,0.0,0.0,0.0,0.0,0.0,0.0,0.0,0.0,0.0,0.0,0.0,0.0,0.0,0.0,-3.9346,-3.9521,0.0,0.0,0.0,0.0,-4.176,-4.2886,-4.4493,-4.6617,-4.6792,-4.7405,-4.856,-4.9138,-4.9715,-5.0293,-5.0779,-5.1055,-5.108,-4.9621,-4.8848,-4.8735,-4.5833,-4.4479,-4.4314,-4.2857,-4.1628,-4.0634,-3.8771,-3.7198,-3.5914,-3.5418,-3.4693,-3.4049,-3.4505,-3.4879,-3.5273,-3.579,-3.5976,-3.6017,-3.6451,-3.5438,-3.3886,-3.3389,-3.2623,0.0,0.0,-3.3555,-3.4776,-3.5728,-3.6308,-3.6763,-3.726,-3.7053,-3.6618,-3.6183,-3.6059,-3.5625,-3.4217,-3.3244,-3.2442,-3.1905,0.0,-3.1306,-3.1719,-3.2644,-3.3334,-3.3512,-3.4309,-3.4777,-3.4423,-3.4423,-3.434,-3.432,-3.3313,-3.2693,-3.2593,-3.1466,-3.0605,-3.0156,-2.9687,-2.8848,-2.7598,-2.6309,0.0,0.0,0.0,0.0,0.0,0.0,0.0,0.0,0.0,0.0,0.0,0.0,0.0,0.0,0.0,0.0,0.0,0.0,0.0,0.0,0.0,0.0,0.0,0.0,0.0,0.0,0.0,0.0,-4.1207,-4.1907,0.0,-4.2057,-4.2886,-4.3815,-4.4769,-4.6502,-4.8033,-4.9188,-5.0268,-5.1197,-5.1925,-5.2503,-5.2879,-5.308,-5.3281,-5.3381,-5.3381,-5.2869,-5.2073,-5.1032,-4.8918,-4.7112,-4.5508,-4.3847,-4.2621,-4.171,-4.1069,-3.964,-3.7794,-3.7629,-3.726,-3.6701,-3.6577,-3.6804,-3.7177,-3.7053,-3.7011,-3.697,-3.6846,-3.6556,-3.6183,-3.5728,-3.5355,-3.5148,-3.5314,-3.5707,-3.6142,-3.6473,-3.668,-3.6846,-3.7011,-3.6929,-3.6763,-3.6597,-3.6556,-3.6328,-3.5542,-3.4652,-3.3886,-3.343,-3.3203,-3.2954,-3.254,-3.3492,-3.432,-3.4366,-3.4861,-3.517,-3.5046,-3.5046,-3.4984,-3.4735,-3.3699,-3.2835,-3.2296,-3.1113,-3.0254,-2.9805,-2.9375,-2.8809,-2.8086,-2.707,-2.5703,0.0,0.0,0.0,0.0,0.0,0.0,0.0,0.0,0.0,0.0,0.0,0.0,0.0,0.0,0.0,0.0,0.0,0.0,0.0,0.0,0.0,0.0,0.0,0.0,0.0,-4.035,-4.1957,-4.2886,-4.4292,-4.5121,-4.4945,-4.61,-4.7179,-4.7933,-4.969,-5.0946,-5.1498,-5.2779,-5.3632,-5.3984,-5.4361,-5.4561,-5.4561,-5.4561,-5.4561,-5.4561,-5.4561,-5.4039,-5.2985,-5.1334,-4.9707,-4.8033,-4.5664,-4.4292,-4.3574,-4.3002,-4.1648,-3.9972,-3.9661,-3.9268,-3.8812,-3.8357,-3.8378,-3.8605,-3.8295,-3.8088,-3.7881,-3.7425,-3.7363,-3.7405,-3.6949,-3.6804,-3.6804,-3.6804,-3.6908,-3.7032,-3.7032,-3.7156,-3.726,-3.726,-3.726,-3.7218,-3.7074,-3.7032,-3.6908,-3.6432,-3.5728,-3.5066,-3.461,-3.4527,-3.432,-3.372,-3.4403,-3.4983,-3.4983,-3.5252,-3.5418,-3.5418,-3.5418,-3.5294,-3.5108,-3.3841,-3.2893,-3.2455,-3.0991,-3.0035,-2.9785,-2.9219,-2.8711,-2.8301,-2.7305,-2.6309,-2.5293,0.0,0.0,0.0,0.0,0.0,0.0,0.0,0.0,0.0,0.0,0.0,0.0,0.0,0.0,0.0,0.0,0.0,0.0,0.0,0.0,0.0,0.0,0.0,-4.1275,-4.2836,-4.4091,-4.4719,-4.6677,-4.7807,-4.738,-4.8786,-5.0193,-5.1297,-5.2377,-5.3231,-5.3733,-5.431,-5.4612,-5.4612,-5.4612,-5.4612,-5.4612,-5.4612,-5.4612,-5.4612,-5.4612,-5.4612,-5.4612,-5.2937,-5.226,-5.2066,-4.8456,-4.6589,-4.598,-4.4374,-4.3193,-4.2302,-4.1296,-4.0675,-4.022,-3.9744,-3.9488,-3.9468,-3.9468,-3.9179,-3.8724,-3.8357,-3.7902,-3.7446,-3.6991,-3.6846,-3.6846,-3.6846,-3.7177,-3.7508,-3.7508,-3.7839,-3.8191,-3.8191,-3.8191,-3.8067,-3.7612,-3.7508,-3.7384,-3.6908,-3.6453,-3.5997,-3.5521,-3.5438,-3.5438,-3.5418,-3.5418,0.0,-3.5418,-3.5418,-3.5418,-3.5418,-3.5418,-3.5418,-3.5418,-3.3877,-3.2987,-3.3175,-3.1217,-3.0046,-3.0213,-2.9375,-2.875,-2.8359,-2.709,-2.6641,-2.7051,0.0,0.0,0.0,0.0,0.0,0.0,0.0,0.0,0.0,0.0,0.0,0.0,0.0,0.0,0.0,0.0,0.0,0.0,0.0,0.0,0.0,-4.163,-4.2936,-4.3112,-4.4217,-4.5974,-4.851,-4.9364,-5.0293,-5.1749,-5.2302,-5.2879,-5.3607,-5.431,-5.4787,-5.4913,-5.5465,-5.5767,-5.5767,-5.5767,-5.5767,-5.5767,-5.5767,-5.5767,-5.5767,-5.5767,-5.5767,-5.5669,-5.4058,-5.3101,-5.274,-5.0567,-4.8619,-4.6942,-4.6236,-4.507,-4.3656,-4.2725,-4.1897,-4.1151,-4.0675,-4.0096,-3.9468,-3.9468,-3.9385,-3.9199,-3.8745,-3.8585,-3.8398,-3.7943,-3.7819,-3.7819,-3.7819,-3.7902,-3.8005,-3.8005,-3.8088,-3.8191,-3.8191,-3.8191,-3.815,-3.8026,-3.8005,-3.786,-3.7384,-3.7198,-3.6867,-3.6059,-3.5914,-3.5811,-3.548,-3.5418,-3.5418,-3.5418,-3.5418,-3.5418,-3.5418,-3.5418,-3.5418,-3.5418,-3.4164,-3.3187,-3.2598,-3.116,-3.0242,-3.0083,-2.981,-2.9715,-2.9668,-2.8418,-2.7832,0.0,0.0,0.0,0.0,0.0,0.0,0.0,0.0,0.0,0.0,0.0,0.0,0.0,0.0,0.0,0.0,0.0,0.0,0.0,0.0,0.0,0.0,-4.3966,-4.5598,-4.6778,-4.7506,-4.846,-4.9891,-5.1096,-5.2302,-5.3582,-5.3909,-5.431,-5.4863,-5.5415,-5.5641,-5.539,-5.5917,-5.6219,-5.6219,-5.6219,-5.6219,-5.6219,-5.6219,-5.6219,-5.6219,-5.6219,-5.6219,-5.6146,-5.5214,-5.4647,-5.4279,-5.2458,-5.0978,-4.9677,-4.7822,-4.6398,-4.5172,0.0,0.0,0.0,0.0,-4.0841,-4.0365,-4.0158,-3.9992,-3.9785,-3.9447,-3.922,-3.9013,-3.8833,-3.875,-3.875,-3.875,-3.875,-3.875,-3.875,-3.875,-3.8709,-3.8502,-3.846,-3.8419,-3.8233,-3.8191,-3.8109,-3.7839,-3.7777,0.0,-3.6825,-3.6535,-3.6246,-3.5769,-3.5707,-3.5645,-3.5438,-3.5418,-3.5418,-3.5418,-3.5418,-3.5418,-3.5418,-3.4408,0.0,0.0,0.0,-3.0918,-3.0091,-2.9905,0.0,0.0,0.0,0.0,0.0,-2.9414,0.0,0.0,-2.8574,-2.8691,0.0,0.0,0.0,0.0,0.0,0.0,0.0,0.0,0.0,0.0,0.0,0.0,0.0,0.0,0.0,0.0,-4.5999,-4.836,-5.0845,-5.1448,-5.1297,-5.0368,-5.2302,-5.3783,-5.3959,-5.4461,-5.4963,-5.544,-5.5942,-5.5993,-5.5516,-5.5942,0.0,0.0,0.0,-5.6219,-5.6219,-5.6219,-5.6219,-5.6219,-5.6219,-5.6219,-5.6219,-5.6219,-5.6219,-5.6095,-5.4255,-5.3348,-5.2856,-4.9246,-4.729,-4.6268,-4.3865,-4.2911,-4.2807,-4.1959,-4.1679,-4.1503,-4.1089,0.0,0.0,-4.0241,-3.9951,-3.953,-3.9488,-3.9468,-3.9468,-3.9468,-3.9468,-3.9468,-3.9468,-3.9468,-3.9344,-3.8889,-3.8786,-3.8662,-3.8274,-3.8191,-3.8191,-3.8191,-3.8191,-3.8046,-3.7653,-3.7177,-3.6722,-3.6266,-3.6183,-3.6018,-3.5562,-3.55,-3.548,-3.5438,-3.5418,0.0,-3.5418,-3.4631,-3.424,-3.4288,-3.3064,-3.1815,-3.0558,-3.0128,-3.0174,-3.0546,-3.0449,-3.0996,-3.2229,-3.2229,-3.2187,-3.2187,-2.9824,-2.9609,0.0,0.0,0.0,0.0,0.0,0.0,0.0,0.0,0.0,0.0,0.0,0.0,0.0,0.0,0.0,-4.5522,-4.8058,-4.9967,-5.0519,-5.2503,-5.4009,-5.4235,-5.3934,-5.4235,-5.5591,-5.5817,-5.5942,-5.6043,-5.6143,-5.6168,-5.6068,-5.6143,-5.6219,-5.6219,-5.6219,-5.6219,-5.6219,-5.6219,-5.6219,-5.6219,-5.6219,0.0,-5.6219,-5.6219,-5.6219,-5.6219,-5.5801,-5.482,-5.3384,-5.0961,-4.7903,-4.4656,-4.3435,-4.2911,-4.2849,-4.2331,-4.197,-4.1545,-4.1462,-4.1131,-4.0696,-4.0344,-4.0158,-3.9964,-3.9571,-3.9468,0.0,-3.9468,-3.9468,-3.9468,-3.9468,-3.9468,-3.9344,-3.8889,-3.8786,-3.8662,-3.8274,-3.8191,-3.8191,-3.8191,-3.8191,-3.815,-3.8067,-3.7674,-3.7198,-3.6742,-3.666,-3.6494,-3.6039,-3.5976,-3.5832,-3.5459,-3.5418,-3.5418,-3.5418,-3.4941,-3.4507,-3.4157,-3.3413,-3.2952,-3.2888,-3.2455,-3.2329,-3.2711,-3.2134,-3.1914,-3.2229,-3.2229,-3.2344,-3.2656,-3.1816,-3.1953,0.0,0.0,0.0,0.0,0.0,0.0,0.0,0.0,0.0,0.0,0.0,-4.158,-4.2409,0.0,-4.6024,-4.7682,-4.959,-5.1122,-5.195,-5.3256,-5.4135,-5.416,-5.4135,-5.4561,-5.5691,-5.5792,-5.5917,-5.6194,-5.6219,-5.6219,-5.6219,-5.6219,-5.6219,-5.6219,-5.6219,-5.6219,-5.6219,-5.6219,-5.6219,-5.6219,-5.6219,-5.6219,-5.6219,-5.6219,-5.6219,-5.6219,-5.6219,-5.5754,-5.4745,-5.2342,-4.9697,-4.6942,-4.5959,-4.4646,-4.3221,-4.2745,-4.2435,-4.2207,-4.2,-4.1607,-4.1193,-4.0965,-4.0737,-4.051,-4.0282,-4.0199,-4.0199,-4.0199,-4.0199,-4.0199,-4.0199,-4.0199,-4.0096,-3.962,-3.9537,-3.9344,-3.8957,-3.8688,-3.8523,-3.8523,-3.8336,-3.8191,-3.8191,-3.7984,-3.7674,-3.7218,-3.7156,-3.697,-3.6515,-3.6266,-3.6018,-3.579,-3.5562,-3.5418,-3.5418,-3.5211,-3.4983,-3.4755,-3.4248,-3.3984,-3.3942,-3.3352,-3.3102,-3.3287,-3.2782,-3.2578,-3.2793,-3.2793,-3.3008,-3.3437,-3.3223,-3.334,0.0,0.0,0.0,0.0,0.0,0.0,0.0,-3.9854,-4.0993,-4.1408,-4.271,-4.4091,-4.507,-4.6552,-4.8083,-4.9515,-5.0795,-5.2026,-5.3231,-5.3557,-5.3557,-5.313,-5.413,-5.501,-5.5491,-5.5613,-5.5814,-5.6168,-5.6219,-5.6219,-5.6219,-5.6219,-5.6219,-5.6219,-5.6219,-5.6219,-5.6219,-5.6219,-5.6219,-5.6219,-5.6219,-5.6219,-5.6219,-5.6219,-5.6219,-5.6219,-5.6219,-5.6047,-5.5508,-5.3303,-5.1255,-4.9374,-4.8373,-4.6217,-4.3698,-4.3523,-4.3219,-4.287,-4.2518,-4.2021,-4.1565,-4.1565,-4.1255,-4.0882,-4.0882,-4.0882,-4.0882,-4.0882,-4.0882,-4.0882,-4.0882,-4.0882,-4.0758,-4.0303,-4.0199,-4.0096,-3.9571,-3.9179,-3.8889,-3.8807,-3.8564,-3.8295,-3.8191,-3.8191,-3.8067,-3.7674,-3.7632,-3.7467,-3.6991,-3.6618,-3.6349,-3.6266,-3.5832,-3.5521,-3.5438,-3.5418,-3.5418,-3.5418,-3.5108,-3.4758,-3.4534,-3.3777,-3.3468,-3.353,-3.3096,-3.3125,-3.3555,-3.3555,-3.3769,-3.4199,-3.4277,-3.4336,-3.8255,-3.8694,-3.9677,-4.1191,-4.1659,-4.2242,0.0,-4.4741,-4.4934,-4.4926,-4.5849,-4.6853,-4.7431,-4.851,-4.954,-5.0218,-5.1674,-5.2628,-5.2327,-5.3105,-5.3683,-5.3632,-5.4966,-5.5947,-5.6068,-5.641,-5.6507,-5.6194,-5.6219,-5.6219,-5.6219,-5.6219,-5.6219,-5.6219,-5.6219,-5.6219,-5.6219,-5.6219,-5.6219,-5.6219,-5.6219,-5.6219,-5.6219,-5.6219,-5.6219,-5.6219,-5.6219,-5.5361,-5.3927,-5.3273,-5.1123,-4.8212,-4.7342,-4.5857,-4.4307,-4.5224,-4.4422,-4.2911,-4.287,-4.229,-4.1565,-4.1565,-4.1255,-4.0882,-4.0882,-4.0882,-4.0882,-4.0882,-4.0882,-4.0882,-4.0882,-4.0882,-4.0758,-4.0303,-4.0199,-4.0096,-3.9571,-3.9426,-3.9261,-3.8869,-3.8745,-3.8647,-3.8253,-3.8191,-3.8171,-3.8109,-3.8109,-3.7943,-3.7467,-3.7363,-3.7177,-3.6763,-3.6308,-3.5873,-3.5459,-3.5418,-3.5418,-3.5418,-3.5108,-3.5025,-3.5294,-3.4342,-3.3968,-3.428,-3.3654,-3.3574,-3.4004,-3.4004,-3.4219,-3.4629,-3.5059,-3.5234,-4.201,-4.22,-4.2583,-4.4054,-4.5101,-4.5836,-4.5965,-4.7407,-4.8281,-4.6746,-4.8146,-4.9501,-4.8964,-5.0067,-5.1122,-5.1373,-5.2251,-5.3103,-5.3705,-5.4592,-5.5219,-5.5245,-5.715,-5.7752,-5.5883,-5.6381,-5.6656,-5.6219,-5.6219,-5.6219,-5.6219,-5.6219,-5.6219,-5.6219,-5.6219,-5.6219,-5.6219,-5.6219,-5.6219,-5.6219,-5.6219,-5.6219,-5.6219,-5.6219,-5.6219,-5.6219,-5.6219,-5.5827,-5.509,-5.4621,-5.3644,-5.2268,-5.1604,-5.0156,-4.8139,-4.5535,-4.4,-4.3325,-4.3325,-4.289,-4.2352,-4.2352,-4.2042,-4.1628,-4.1358,-4.1462,-4.1628,-4.1358,-4.1462,-4.1669,-4.1669,-4.1669,-4.17,-4.1441,-4.14,-4.1276,-4.082,-4.051,-4.0179,-3.9744,-3.9364,-3.9034,-3.8647,-3.8564,-3.8729,-3.9297,-3.8702,-3.8109,-3.7922,-3.7653,-3.7322,-3.6846,-3.6618,-3.6432,-3.6246,-3.6225,-3.6225,-3.6225,-3.6098,-3.6098,-3.6225,-3.5654,-3.5335,-3.5527,-3.4823,-3.4581,-3.4778,-3.4564,-3.4668,-3.5117,-3.5547,-3.5898,-4.4356,-4.492,-4.5506,-4.6801,-4.8476,-4.9444,-4.84,-5.0254,-5.1417,-4.866,-5.0182,-5.1747,-5.078,-5.1918,-5.3156,-5.3644,-5.4097,-5.4759,-5.5696,-5.6478,-5.6798,-5.6532,-5.8467,-5.8973,-5.6711,-5.6952,-5.6959,-5.6267,-5.6219,-5.6219,-5.6219,-5.6219,-5.6219,-5.6219,-5.6219,-5.6219,-5.6219,-5.6219,-5.6219,-5.6219,-5.6219,-5.6219,-5.6219,-5.6219,-5.6219,-5.6219,-5.6219,-5.6219,-5.6168,-5.5792,-5.5374,-5.4863,-5.439,-5.296,-5.0689,-4.6651,-4.4739,-4.4256,-4.4256,-4.3661,-4.2911,-4.2911,-4.2621,-4.226,-4.1928,-4.2073,-4.226,-4.1928,-4.2073,-4.2322,-4.2322,-4.2239,-4.2136,-4.2136,-4.2053,-4.1793,-4.1441,-4.111,-4.0737,-4.0323,-4.0229,-4.0177,-3.9715,-3.9631,-3.9778,-4.0345,-3.9269,-3.8449,-3.8702,-3.8145,-3.7508,-3.7032,-3.6991,-3.6949,-3.6825,-3.6804,-3.6804,-3.6804,-3.6804,-3.6804,-3.6804,-3.6483,-3.6289,-3.6289,-3.5706,-3.5505,-3.5605,-3.5212,-3.5309,-3.5897,-3.6123,-3.6484,-4.4327,-4.5837,-4.7996,-4.9301,-5.1454,-5.3164,-5.2653,-5.3922,-5.437,-5.1223,-5.2082,-5.3347,-5.3238,-5.4303,-5.5808,-5.7515,-5.8113,-5.8243,-5.7944,-5.8232,-5.8079,-5.7055,-5.8163,-5.8998,-5.9183,-5.8765,-5.7817,-5.6314,-5.6219,-5.6219,-5.6219,-5.6219,-5.6219,-5.6219,-5.6219,-5.6219,-5.6219,-5.6219,-5.6219,-5.6219,-5.6219,-5.6219,-5.6219,-5.6219,-5.6219,-5.6219,-5.6219,-5.6219,-5.6219,-5.6194,-5.5263,-5.3729,-5.3297,-5.2092,-5.0526,-4.9365,-4.7647,-4.5841,-4.5841,-4.4518,-4.2911,-4.2911,-4.2621,-4.2322,-4.2322,-4.2322,-4.2322,-4.2322,-4.2322,-4.2322,-4.2322,-4.1917,-4.1586,-4.1586,-4.1255,-4.0924,-4.0903,-4.0882,-4.0737,-4.0323,-4.1364,-4.2133,-4.1699,-4.1634,-4.1459,-4.1045,-3.9735,-3.9118,-3.9997,-3.8991,-3.7984,-3.7529,-3.7467,-3.7301,-3.6846,-3.6804,-3.6804,-3.6804,-3.6804,-3.6804,-3.6804,-3.6483,-3.6289,-3.6289,-3.5966,-3.5972,-3.6395,-3.6064,-3.6321,-3.7124,-3.6848,-3.709,-4.6156,-4.7753,-4.9553,-5.1701,-5.3849,-5.5377,-5.5194,-5.6249,-5.6501,-5.3721,-5.3981,-5.4511,-5.4046,-5.4602,-5.551,-5.6577,-5.752,-5.829,-5.8701,-5.9949,-6.0406,-5.9205,-6.0991,-6.1484,-5.9514,-5.9698,-5.9833,-5.9504,-5.9236,-5.8701,-5.7733,-5.856,-5.8388,-5.682,-5.7291,-5.7542,-5.7323,-5.6947,-5.6947,-5.7323,-5.6947,-5.657,-5.6219,-5.6219,-5.6219,-5.6219,-5.6219,-5.6219,-5.6219,-5.6219,-5.5901,-5.5336,-5.5237,-5.4573,-5.3741,-5.3375,-5.1705,-4.9209,-4.6766,-4.4806,-4.3387,-4.3387,-4.3284,-4.3097,-4.2787,-4.2911,-4.3097,-4.2787,-4.2911,-4.3077,-4.2787,-4.258,-4.2393,-4.2104,-4.1897,-4.171,-4.14,-4.1338,-4.1193,-4.0737,-4.1059,-4.1592,-4.2065,-4.2204,-4.2367,-4.2856,-4.0339,-3.8558,-3.8835,-3.8503,-3.8129,-3.7964,-3.7943,-3.7881,-3.7736,-3.7715,-3.7715,-3.7715,-3.7715,-3.7715,-3.7715,-3.7649,-3.7583,-3.7583,-3.7187,-3.7049,-3.7191,-3.6889,-3.6915,-3.7233,-3.7387,-3.7656,-4.7956,-4.9727,-5.1614,-5.3965,-5.5997,-5.7425,-5.745,-5.8059,-5.7916,-5.5285,-5.5066,-5.5165,-5.4488,-5.4828,-5.571,-5.7299,-5.8669,-5.9808,-6.0579,-6.1977,-6.255,-6.1646,-6.2941,-6.3267,-6.1656,-6.2075,-6.1921,-6.0822,-6.0689,-6.0208,-5.9236,-6.0327,-6.0275,-5.8704,-5.9455,-5.9744,-5.9584,-5.9123,-5.8826,-5.8442,-5.7293,-5.6545,-5.6219,-5.6219,-5.6219,-5.6219,-5.6219,-5.6219,-5.6219,-5.6219,-5.6219,-5.6219,-5.6219,-5.5993,-5.5666,-5.5465,-5.3955,-5.1609,-4.8818,-4.6736,-4.5213,-4.4633,-4.4407,-4.4268,-4.3393,-4.3366,-4.3553,-4.3263,-4.3387,-4.3566,-4.3688,-4.3584,-4.3478,-4.3593,-4.3429,-4.3214,-4.2984,-4.2493,-4.2216,-4.237,-4.2046,-4.2031,-4.3211,-4.3284,-4.3197,-4.3353,-4.1551,-3.9967,-3.9287,-3.8608,-3.8191,-3.8191,-3.8191,-3.8191,-3.8191,-3.8191,-3.8191,-3.8191,-3.8191,-3.8191,-3.8191,-3.8191,-3.8191,-3.8191,-3.7971,-3.7898,-3.7995,-3.7758,-3.7717,-3.7898,-3.8031,-3.8151,-4.964,-5.1701,-5.411,-5.6026,-5.7942,-5.9335,-5.9306,-5.9277,-5.8494,-5.593,-5.5336,-5.5146,-5.4516,-5.4991,-5.6461,-5.9539,-6.1322,-6.2587,-6.3461,-6.4213,-6.4514,-6.4183,-6.3921,-6.4219,-6.5378,-6.5496,-6.4076,-6.0607,-6.0674,-6.0825,-6.0688,-6.1369,-6.1738,-6.1557,-6.2268,-6.2594,-6.2579,-6.2508,-6.1505,-5.945,-5.7346,-5.6317,-5.6219,-5.6219,-5.6219,-5.6219,-5.6219,-5.6219,-5.6219,-5.6219,-5.6219,-5.6219,-5.6219,-5.6219,-5.6143,-5.5616,-5.4497,-5.3057,-5.1947,-5.0197,-4.8068,-4.6433,-4.5915,-4.5639,-4.405,-4.3615,-4.3615,-4.3615,-4.3615,-4.3794,-4.4759,-4.4721,-4.4673,-4.5571,-4.5508,-4.521,-4.5187,-4.4183,-4.3562,-4.4914,-4.4092,-4.3631,-4.4983,-4.4864,-4.4141,-4.274,-4.3241,-4.3142,-4.1287,-3.9484,-3.832,-3.8253,-3.8233,-3.8212,-3.8212,-3.8191,-3.8191,-3.8191,-3.8191,-3.8191,-3.8191,-3.8191,-3.8191,-3.8212,-3.8212,-3.844,-3.8827,-3.8487,-3.8592,-3.9141,-3.8755,-3.8544,-5.1482,-5.3862,-5.6271,-5.7505,-5.89,-5.9858,-5.9393,-5.89,-5.7944,-5.5841,-5.4649,-5.3946,-5.3769,-5.5054,-5.6633,-5.8138,-6.0909,-6.2957,-6.3174,-6.4654,-6.5338,-6.4543,-6.5023,-6.5323,-6.5173,-6.535,-6.5005,-6.3859,-6.4086,-6.3655,-6.2309,-6.3433,-6.329,-6.153,-6.2756,-6.3349,-6.3035,-6.3062,-6.1979,-5.9954,-5.89,-5.764,-5.6219,-5.6219,-5.6219,-5.6219,-5.6219,-5.6219,-5.6219,-5.6219,-5.6219,-5.6219,-5.6219,-5.6219,-5.6194,-5.6068,-5.5499,-5.4737,-5.4464,-5.1946,-4.8548,-4.6544,-4.5915,-4.5639,-4.405,-4.3615,-4.3615,-4.3615,-4.3615,-4.3587,-4.3464,-4.427,-4.4968,-4.4467,-4.5159,-4.5714,-4.5324,-4.4914,-4.4778,-4.5096,-4.4914,-4.4778,-4.5119,-4.514,-4.4913,-4.4505,-4.3488,-4.2479,-4.1659,-4.1082,-4.0366,-3.9253,-3.8895,-3.8688,-3.8688,-3.8378,-3.8191,-3.8191,-3.8191,-3.8191,-3.8191,-3.8191,-3.8336,-3.8667,-3.8688,-3.8895,-3.9302,-3.9265,-3.9342,-3.9495,-3.9146,-3.9004,-5.335,-5.538,-5.7268,-5.8464,-5.9074,-5.9277,-5.8929,-5.7913,-5.649,-5.4575,-5.3384,-5.2514,-5.1933,-5.3413,-5.5151,-5.6508,-5.983,-6.2522,-6.3443,-6.4955,-6.5912,-6.5709,-6.5831,-6.5981,-6.5892,-6.6039,-6.5941,-6.5509,-6.5459,-6.5002,-6.3814,-6.5102,-6.5208,-6.3863,-6.5227,-6.585,-6.567,-6.4443,-6.3301,-6.2172,-6.0562,-5.8874,-5.7184,-5.7184,-5.6823,-5.6219,-5.6219,-5.6219,-5.6219,-5.6219,-5.6219,-5.6219,-5.6219,-5.6219,-5.6219,-5.6219,-5.6018,-5.5666,-5.5189,-5.3638,-5.1486,-4.9106,-4.8292,-4.7953,-4.6225,-4.5639,-4.5639,-4.5639,-4.5639,-4.5679,-4.5859,-4.6595,-4.7037,-4.6238,-4.6681,-4.7232,-4.6859,-4.6148,-4.5439,-4.521,-4.5706,-4.5999,-4.53,-4.5164,-4.5164,-4.5164,-4.4324,-4.3327,-4.2447,-4.1374,-4.0661,-4.0456,-3.9631,-3.9075,-3.9075,-3.8916,-3.8771,-3.8771,-3.8771,-3.8688,-3.8481,-3.8667,-3.8792,-3.8786,-3.8972,-3.9323,-3.9847,-3.9815,-3.988,-3.9871,-3.9542,-3.9321,-5.5155,-5.652,-5.7795,-5.8987,-5.8726,-5.8145,-5.8058,-5.649,-5.4487,-5.2572,-5.1672,-5.0888,-4.9756,-5.1149,-5.3146,-5.5151,-5.8596,-6.1733,-6.3888,-6.517,-6.619,-6.6909,-6.649,-6.637,-6.6939,-6.6999,-6.6753,-6.6132,-6.5966,-6.5651,-6.506,-6.6164,-6.689,-6.6999,-6.8102,-6.8741,-6.8828,-6.6258,-6.486,-6.4656,-6.2082,-6.0139,-5.8701,-5.8489,-5.7733,-5.6485,-5.6267,-5.6219,-5.6219,-5.6219,-5.6219,-5.6219,-5.6219,-5.6219,-5.6219,-5.6219,-5.6219,-5.6068,-5.5114,-5.5089,-5.5049,-5.2233,-5.1369,-5.1034,-4.8931,-4.8335,-4.8335,-4.8335,-4.8335,-4.8532,-4.9391,-4.9835,-4.9878,-4.928,-4.9136,-4.9205,-4.927,-4.7925,-4.654,-4.6075,-4.6883,-4.7218,-4.5915,-4.537,-4.5097,-4.5097,-4.4914,-4.4319,-4.3324,-4.1337,-4.0372,-4.1513,-4.0378,-3.955,-3.9571,-3.9509,-3.9468,-3.9468,-3.9468,-3.9282,-3.8889,-3.9261,-3.9323,-3.8972,-3.9364,-3.9847,-4.0323,-4.0323,-4.0297,-4.0382,-3.993,-3.961,-5.6662,-5.7705,-5.8576,-5.9161,-5.8377,-5.7332,-5.6839,-5.4836,-5.2514,-5.0618,-4.9669,-4.9175,-4.8943,-5.0481,-5.2623,-5.5362,-5.8158,-6.1028,-6.4069,-6.511,-6.5947,-6.6909,-6.6879,-6.6879,-6.6969,-6.6999,-6.6814,-6.6444,-6.736,-6.7128,-6.5118,-6.595,-6.6854,-6.7667,-6.7928,-6.8305,-6.8828,-6.7256,-6.5898,-6.4724,-6.3191,-6.1639,-6.0208,-5.8982,-5.8276,-5.7947,-5.6776,-5.6219,-5.6219,-5.6219,-5.6219,-5.6219,-5.6219,-5.6219,-5.6219,-5.6219,-5.6219,-5.6194,-5.5993,-5.5993,-5.5499,-5.1917,-5.108,-5.1034,-4.8931,-4.8335,-4.8335,-4.8335,-4.8335,-4.8312,-4.8532,-4.9818,-5.096,-5.0431,-5.0287,-5.054,-5.1346,-5.0893,-5.0337,-5.0238,-4.945,-4.8748,-4.8475,-4.6355,-4.4661,-4.4661,-4.3286,-4.2571,-4.3567,-4.2996,-4.2091,-4.1129,-4.0443,-4.0075,-4.0116,-3.9695,-3.9468,-3.9468,-3.9468,-3.9426,-3.9344,-3.9426,-3.9612,-3.9992,-4.0075,-4.0323,-4.0758,-4.0758,-4.08,-4.0811,-4.0382,-4.0225,-5.7854,-5.8172,-5.82,-5.9103,-5.7565,-5.5678,-5.5039,-5.292,-5.0511,-4.8595,-4.8217,-4.8043,-4.7375,-4.9378,-5.1744,-5.3545,-5.6187,-5.923,-6.3031,-6.3951,-6.4934,-6.6789,-6.6999,-6.6999,-6.6999,-6.7298,-6.7384,-6.7073,-6.7902,-6.7787,-6.6335,-6.7174,-6.7858,-6.8334,-6.8363,-6.8363,-6.8334,-6.7376,-6.6351,-6.5345,-6.4402,-6.3197,-6.1706,-6.1002,-5.9835,-5.8347,-5.7661,-5.6895,-5.6219,-5.6219,-5.6219,-5.6219,-5.6219,-5.6219,-5.6219,-5.6219,-5.6219,-5.6168,-5.5892,-5.5792,-5.5396,-5.3381,-5.2826,-5.2782,-5.1509,-5.0934,-5.067,-5.067,-5.067,-5.0718,-5.1054,-5.1623,-5.1975,-5.1198,-5.0768,-5.0642,-5.0852,-5.1333,-5.1624,-5.1348,-5.0712,-5.0216,-5.0216,-4.8394,-4.67,-4.5853,-4.4249,-4.3314,-4.3769,-4.2913,-4.2273,-4.2089,-4.1171,-4.0551,-4.0572,-4.0365,-4.0241,-4.0241,-4.0241,-4.0137,-3.984,-4.0116,-4.0241,-4.022,-4.0448,-4.0675,-4.0882,-4.0882,-4.1007,-4.1234,-4.0874,-4.0829,-5.8232,-5.8116,-5.7565,-5.861,-5.6578,-5.411,-5.3471,-5.1207,-4.8798,-4.7126,-4.7114,-4.7114,-4.6243,-4.8159,-5.0319,-5.1712,-5.4126,-5.7331,-6.1519,-6.2758,-6.4156,-6.649,-6.6909,-6.7059,-6.7178,-6.7657,-6.7954,-6.782,-6.8343,-6.8342,-6.764,-6.8273,-6.8683,-6.8828,-6.8828,-6.8596,-6.8102,-6.7289,-6.6622,-6.6128,-6.5344,-6.4361,-6.3263,-6.2906,-6.1544,-5.9306,-5.8701,-5.7733,-5.6631,-5.6365,-5.6219,-5.6219,-5.6219,-5.6219,-5.6219,-5.6219,-5.6219,-5.6143,-5.5717,-5.5566,-5.5491,-5.5064,-5.4762,-5.4486,-5.4034,-5.3507,-5.308,-5.308,-5.3005,-5.303,-5.3432,-5.3306,-5.2765,-5.1701,-5.1317,-5.1022,-5.0164,-5.1201,-5.2151,-5.1724,-5.1624,-5.1624,-5.1624,-5.0128,-4.8518,-4.7327,-4.5434,-4.4228,-4.4146,-4.2661,-4.2069,-4.3154,-4.1827,-4.0882,-4.0882,-4.0882,-4.0882,-4.0882,-4.0882,-4.0717,-4.0386,-4.0696,-4.0717,-4.0365,-4.0696,-4.0924,-4.1027,-4.1027,-4.1255,-4.171,-4.1439,-4.1465,-5.71,-5.739,-5.7332,-5.7448,-5.5533,-5.3442,-5.2804,-5.022,-4.7724,-4.6923,-4.6417,-4.6214,-4.665,-4.6923,-4.8159,-5.112,-5.3261,-5.5972,-5.9871,-6.2433,-6.4455,-6.5922,-6.664,-6.7238,-6.7837,-6.7926,-6.8226,-6.8791,-6.9376,-6.9295,-6.8342,-6.8099,-6.8218,-6.8799,-6.8828,-6.8799,-6.8741,-6.7492,-6.6854,-6.6767,-6.5577,-6.4932,-6.4775,-6.3394,-6.2641,-6.2242,-5.9584,-5.8347,-5.8063,-5.675,-5.6219,-5.6219,-5.6219,-5.6219,-5.6219,-5.6219,-5.6219,-5.6194,-5.6143,-5.6143,-5.6118,-5.6068,-5.539,-5.4561,-5.4511,-5.4084,-5.3632,-5.3632,-5.3281,-5.2929,-5.298,-5.3306,-5.3283,-5.1774,-5.2413,-5.2899,-5.0976,-5.1743,-5.2829,-5.2779,-5.2779,-5.2779,-5.2779,-5.029,-4.8341,-4.8197,-4.5214,-4.3573,-4.4961,-4.3064,-4.2174,-4.3638,-4.2089,-4.0882,-4.0882,-4.0882,-4.0882,-4.0882,-4.0882,-4.0862,-4.082,-4.0862,-4.0862,-4.082,-4.0862,-4.1089,-4.1503,-4.1503,-4.1825,-4.226,-4.2186,-4.2212,-5.7245,-5.7913,-5.7913,-5.7913,-5.5997,-5.3646,-5.1846,-4.9524,-4.7491,-4.6475,-4.6069,-4.5953,-4.6214,-4.6592,-4.7538,-4.9795,-5.072,-5.2738,-5.7222,-5.8876,-6.088,-6.4189,-6.5622,-6.6819,-6.7867,-6.8704,-6.9325,-6.953,-7.009,-6.9927,-6.8681,-6.8866,-6.8973,-6.8828,-6.8828,-6.845,-6.7667,-6.7144,-6.6506,-6.5722,-6.5228,-6.4996,-6.4996,-6.4361,-6.3684,-6.2707,-6.1544,-6.0043,-5.8347,-5.7804,-5.6968,-5.6219,-5.6219,-5.6219,-5.6219,-5.6219,-5.6219,-5.6219,-5.6219,-5.5993,-5.5767,-5.6118,-5.5691,-5.4988,-5.4662,-5.416,-5.3632,-5.3331,-5.308,-5.3005,-5.3306,-5.3557,-5.3468,-5.2515,-5.2789,-5.2948,-5.2169,-5.2491,-5.2929,-5.2929,-5.2929,-5.2929,-5.2929,-5.1093,-4.9343,-4.8407,-4.6279,-4.5175,-4.6379,-4.4961,-4.4272,-4.5534,-4.2778,-4.0882,-4.0882,-4.0882,-4.0882,-4.0882,-4.0882,-4.0882,-4.0882,-4.0882,-4.1007,-4.1276,-4.1296,-4.1524,-4.2053,-4.2053,-4.2207,-4.2663,-4.2663,-4.2815,-5.6055,-5.7042,-5.7187,-5.7187,-5.5533,-5.3326,-5.0917,-4.903,-4.7433,-4.6156,-4.5895,-4.5895,-4.5895,-4.6388,-4.7248,-4.8559,-4.9472,-5.1405,-5.5453,-5.6876,-5.8931,-6.273,-6.4427,-6.5951,-6.7537,-6.9243,-7.0181,-7.0038,-7.0378,-7.0103,-6.8992,-6.9128,-6.9002,-6.8567,-6.8363,-6.7812,-6.6883,-6.668,-6.6157,-6.5257,-6.5083,-6.4996,-6.4996,-6.4996,-6.4425,-6.3394,-6.2972,-6.1341,-5.9052,-5.856,-5.7518,-5.6219,-5.6219,-5.6219,-5.6219,-5.6219,-5.6219,-5.6219,-5.6219,-5.5968,-5.5691,-5.6093,-5.5942,-5.5491,-5.4787,-5.4285,-5.3858,-5.3306,-5.3055,-5.3005,-5.3381,-5.3457,-5.3381,-5.3005,-5.2929,-5.2929,-5.2929,-5.2929,-5.2929,-5.2929,-5.2929,-5.2929,-5.2929,-5.1233,-4.9557,-4.848,-4.6507,-4.5806,-4.747,-4.6301,-4.5884,-4.7539,-4.4277,-4.183,-4.1348,-4.1758,-4.183,-4.1348,-4.1276,-4.1276,-4.1276,-4.1276,-4.1441,-4.1772,-4.1772,-4.2,-4.2456,-4.2456,-4.2683,-4.3118,-4.3118,-4.3304,-5.2862,-5.4052,-5.4546,-5.4546,-5.3559,-5.2129,-5.0182,-4.8682,-4.7433,-4.6156,-4.5895,-4.5895,-4.5895,-4.6388,-4.7027,-4.7695,-5.0174,-5.2842,-5.5122,-5.7571,-5.9921,-6.1885,-6.3026,-6.4517,-6.6819,-6.9363,-7.0759,-7.0397,-7.0068,-6.9737,-6.9337,-6.8419,-6.7899,-6.7899,-6.726,-6.6883,-6.6883,-6.6244,-6.5925,-6.5896,-6.5286,-6.4996,-6.4996,-6.4996,-6.4996,-6.4903,-6.3394,-6.1975,-6.0483,-5.8982,-5.7518,-5.6219,-5.6219,-5.6219,-5.6219,-5.6219,-5.6219,-5.6219,-5.6219,-5.6219,-5.6194,-5.6219,-5.6219,-5.5993,-5.4888,-5.4561,-5.4436,-5.3858,-5.3331,-5.2929,-5.2929,-5.2929,-5.2929,-5.2929,-5.2929,-5.2929,-5.2929,-5.2929,-5.2929,-5.2929,-5.2929,-5.2929,-5.2929,-5.0387,-4.8335,-4.8335,-4.5639,-4.4784,-4.79,-4.6525,-4.6451,-4.9527,-4.6692,-4.3918,-4.2375,-4.3722,-4.3918,-4.2396,-4.2322,-4.2322,-4.2322,-4.2322,-4.2322,-4.2322,-4.2322,-4.2476,-4.2911,-4.2911,-4.3159,-4.3594,-4.3594,-4.3615,-5.112,-5.2688,-5.3617,-5.2746,-5.2223,-5.1294,-4.8914,-4.8072,-4.7433,-4.6156,-4.5895,-4.5895,-4.5895,-4.604,-4.6824,-4.8798,-4.9882,-5.1466,-5.4375,-5.6975,-5.931,-6.1225,-6.4934,-6.7954,-6.9512,-7.0634,-7.0902,-7.0097,-7.0149,-6.9805,-6.8963,-6.8285,-6.787,-6.787,-6.7667,-6.7144,-6.6244,-6.6476,-6.6157,-6.5286,-6.5083,-6.4996,-6.4996,-6.4996,-6.4996,-6.4967,-6.449,-6.3488,-6.2042,-6.1611,-5.9904,-5.7733,-5.7733,-5.7112,-5.6219,-5.6219,-5.6219,-5.6219,-5.6219,-5.6219,-5.6219,-5.6219,-5.6219,-5.6068,-5.534,-5.4863,-5.4361,-5.3432,-5.3055,-5.2929,-5.2929,-5.2929,-5.2929,-5.2929,-5.3206,-5.3457,-5.3457,-5.3758,-5.4059,-5.4059,-5.3733,-5.3457,-5.3457,-5.0603,-4.8624,-4.97,-4.6285,-4.4708,-4.79,-4.7763,-4.7744,-4.868,-4.8731,-4.7434,-4.4127,-4.338,-4.2816,-4.2322,-4.2322,-4.2322,-4.2322,-4.2322,-4.2393,-4.2704,-4.2704,-4.2932,-4.3387,-4.3387,-4.347,-4.3615,-4.3615,-4.3615,-4.9088,-5.0627,-5.1585,-5.1033,-5.0714,-5.0046,-4.8188,-4.7579,-4.7114,-4.6098,-4.5895,-4.5895,-4.5895,-4.6272,-4.7114,-4.874,-4.9785,-5.1403,-5.4269,-5.6636,-5.9144,-6.1939,-6.5826,-6.8701,-6.9858,-7.0617,-7.0776,-7.0163,-6.9986,-6.9641,-6.903,-6.8285,-6.787,-6.787,-6.7638,-6.6999,-6.5954,-6.6331,-6.6012,-6.4996,-6.4996,-6.4996,-6.4996,-6.4996,-6.4996,-6.4996,-6.4996,-6.4167,0.0,-6.2773,-6.107,-5.8418,-5.8418,-5.7518,-5.6219,-5.6219,-5.6219,-5.6219,-5.6219,-5.6219,-5.6219,-5.6219,-5.6068,-5.5842,-5.5491,-5.4863,-5.4059,-5.3181,-5.2929,-5.2929,-5.2929,-5.308,-5.3231,-5.3231,-5.3632,-5.4034,-5.4034,-5.431,-5.4561,-5.4561,-5.4285,-5.3959,-5.3733,-5.0866,-4.8832,-4.9581,-4.6728,-4.5437,-4.7972,-4.884,-4.9415,-4.9938,-4.9866,-4.8728,-4.6244,-4.4552,-4.3415,-4.2841,-4.2766,-4.2766,-4.2766,-4.2766,-4.2911,-4.318,-4.318,-4.3325,-4.3615,-4.3615,-4.3615,-4.3615,-4.3615,-4.3615,0.0,-4.7927,-4.8595,-4.9175,-4.8914,-4.8362,-4.7782,-4.723,0.0,-4.6011,-4.5895,-4.5924,-4.6011,-4.694,-4.7782,-4.8014,-5.0075,-5.2384,-5.4597,-5.6782,-5.9649,-6.3826,-6.6004,-6.7441,-6.8441,-6.9589,-7.0331,-7.0397,-6.967,-6.927,-6.9211,-6.8448,-6.7928,-6.787,-6.7289,-6.6622,-6.5954,-6.5983,-6.5664,-6.4996,-6.4996,-6.4996,-6.4996,-6.4996,-6.4996,-6.4996,-6.4996,-6.4232,-6.2972,-6.2972,-6.1273,-5.8701,-5.863,-5.7661,-5.634,-5.6219,-5.6219,-5.6219,-5.6219,-5.6219,-5.6219,-5.6219,-5.5867,-5.544,-5.539,-5.4637,-5.3658,-5.3181,-5.3055,-5.3055,-5.3055,-5.3406,-5.3758,-5.3758,-5.421,-5.4637,-5.4637,-5.4662,-5.4687,-5.4687,-5.4637,-5.4461,-5.3909,-5.1226,-4.9052,-4.8809,-4.7163,-4.6551,-4.8308,-4.9724,-5.1163,-5.256,-5.0151,-4.8407,-4.8335,-4.6728,-4.5138,-4.3691,-4.3615,-4.3615,-4.3615,-4.3615,-4.3615,-4.3615,-4.3615,-4.3615,-4.3615,-4.3615,-4.3635,-4.3656,-4.3656,-4.3656,-4.395,0.0,-4.5808,-4.5982,-4.6272,-4.6505,0.0,-4.6592,-4.665,-4.6011,-4.5895,-4.6185,-4.7143,-4.7172,-4.7869,-5.0307,-5.1236,-5.2455,-5.4943,-5.8683,-6.2529,-6.6263,-6.7486,-6.8508,-6.9534,-6.9595,-6.967,-7.0002,-6.9337,-6.8759,-6.8265,-6.8489,-6.8392,-6.7899,-6.7725,-6.7086,-6.5954,-6.6418,-6.6099,-6.4996,-6.4996,-6.4996,-6.4996,-6.4996,-6.4996,-6.4996,-6.4996,-6.4775,-6.449,-6.449,-6.3394,-6.1611,-6.0551,-5.9166,-5.7733,-5.6631,-5.6219,-5.6219,-5.6219,-5.6219,-5.6219,-5.6219,-5.6118,-5.5942,-5.5516,-5.4913,-5.4336,-5.421,-5.4185,-5.4185,-5.4185,-5.426,-5.4361,-5.4361,-5.4787,-5.5189,-5.5189,-5.5516,-5.5817,-5.5817,-5.5491,-5.5139,-5.5013,-5.2016,-5.046,-5.2786,-4.931,-4.7433,-5.0291,-5.0603,-5.0717,-5.1093,-5.0505,-4.9557,-4.8407,-4.5714,-4.3974,-4.3615,-4.3615,-4.3615,-4.3615,-4.3615,-4.3615,-4.3615,-4.3615,-4.3615,-4.3615,-4.3615,-4.3801,-4.4132,-4.4132,-4.4132,-4.2586,-4.3921,-4.5343,-4.5343,-4.5837,-4.633,-4.633,-4.6359,-4.6301,-4.5953,-4.5895,-4.6185,-4.7172,-4.755,-4.8362,-5.0394,-5.173,-5.3727,-5.7353,-6.094,-6.4205,-6.6686,-6.7466,-6.8185,-6.9422,-6.9089,-6.9031,-6.9427,-6.8794,-6.8102,-6.7463,-6.8044,-6.8247,-6.7899,-6.787,-6.7405,-6.6389,-6.6418,-6.5954,-6.4996,-6.4996,-6.4996,-6.4996,-6.4996,-6.4996,-6.4996,-6.4996,-6.4996,-6.4996,-6.4996,-6.4167,-6.2707,-6.1908,-6.0249,-5.8276,-5.7518,-5.6776,-5.6219,-5.6219,-5.6219,-5.6219,-5.6219,-5.6219,-5.6168,-5.5867,-5.5566,-5.5214,-5.4712,-5.4561,-5.4561,-5.4561,-5.4762,-5.4938,-5.4938,-5.5365,-5.5767,-5.5767,-5.5993,-5.6219,-5.6219,-5.5968,-5.5691,-5.544,-5.2495,-5.0653,-5.2211,-4.992,-4.8695,-5.047,-5.1487,-5.2021,-5.2021,-5.1144,-4.9985,-4.8407,-4.6085,-4.4331,-4.3615,-4.3615,-4.3615,-4.3615,-4.3615,-4.3615,-4.3615,-4.3615,-4.3615,-4.3615,-4.3615,-4.3842,-4.4298,-4.4298,-4.4422,-4.2295,-4.4095,-4.5837,-4.5634,-4.6156,-4.6633,-4.6633,-4.6272,-4.5895,-4.5895,-4.5953,-4.6243,-4.6923,-4.8159,-4.9291,-5.0133,-5.2514,-5.5816,-6.0297,-6.293,-6.4861,-6.6119,-6.6638,-6.7329,-6.8513,-6.8364,-6.8291,-6.8619,-6.8122,-6.7492,-6.6912,-6.7405,-6.7725,-6.7725,-6.7638,-6.7318,-6.6738,-6.6186,-6.5606,-6.4996,-6.4996,-6.4996,-6.4996,-6.4996,-6.4996,-6.4996,-6.4996,-6.4996,-6.4996,-6.4996,-6.4296,-6.3131,-6.2906,-6.1138,-5.8701,-5.8489,-5.7446,-5.6219,-5.6219,-5.6219,-5.6219,-5.6219,-5.6219,-5.6219,-5.6219,-5.6219,-5.6018,-5.5089,-5.4813,-5.4813,-5.4813,-5.5164,-5.5516,-5.5516,-5.5867,-5.6219,-5.6219,-5.6219,-5.6219,-5.6219,-5.6219,-5.6068,-5.5591,-5.2854,-5.074,-5.0751,-5.0089,-4.9818,-5.0565,-5.2259,-5.3528,-5.3833,-5.2165,-5.0317,-4.8595,-4.7141,-4.549,-4.3691,-4.3615,-4.3615,-4.3615,-4.3615,-4.3615,-4.3615,-4.3615,-4.3656,-4.3718,-4.3718,-4.3987,-4.4505,-4.4505,-4.4733,-4.3253,-4.4763,-4.5634,-4.456,-4.5169,-4.604,-4.604,-4.5953,-4.5895,-4.5895,-4.633,-4.7027,-4.817,-4.9494,-5.0946,-5.2659,-5.5533,-5.8552,-6.1457,-6.2983,-6.4188,-6.5475,-6.6153,-6.672,-6.7246,-6.7165,-6.7291,-6.7617,-6.7291,-6.6999,-6.6883,-6.697,-6.7028,-6.7028,-6.6506,-6.6186,-6.607,-6.5983,-6.5606,-6.4996,-6.4996,-6.4996,-6.4996,-6.4996,-6.4996,-6.4996,-6.4996,-6.4996,-6.4996,-6.4996,-6.4839,-6.4583,-6.3263,-6.1773,-6.0139,-5.8841,-5.7446,-5.6219,-5.6219,-5.6219,-5.6219,-5.6219,-5.6219,-5.6219,-5.6219,-5.6219,-5.6168,-5.6018,-5.5968,-5.5968,-5.5968,-5.6018,-5.6093,-5.6093,-5.6143,-5.6219,-5.6219,-5.6219,-5.6219,-5.6219,-5.6219,-5.6194,-5.6093,-5.333,-5.2149,-5.482,-5.1228,-4.9813,-5.3985,-5.3277,-5.2862,-5.4294,-5.3698,-5.2032,-4.9199,-4.8369,-4.6655,-4.3746,-4.3615,-4.3615,-4.3615,-4.3615,-4.3615,-4.3615,-4.3615,-4.3801,-4.4194,-4.4194,-4.4629,-4.5478,-4.5478,-4.5498,-4.2179,-4.3631,-4.4792,-4.4531,-4.5953,-4.7404,-4.7404,-4.7143,-4.6911,-4.6911,-4.7143,-4.7724,-4.903,-5.0307,-5.2252,-5.5562,-5.8493,-6.0874,-6.2412,-6.3611,-6.458,-6.5163,-6.5484,-6.5932,-6.6632,-6.6539,-6.6491,-6.6909,-6.6556,-6.6215,-6.5867,-6.6186,-6.636,-6.636,-6.607,-6.5925,-6.5925,-6.5606,-6.5257,-6.4996,-6.4996,-6.4996,-6.4996,-6.4996,-6.4996,-6.4996,-6.4996,-6.4996,-6.4996,-6.4996,-6.4996,-6.4903,-6.4232,-6.3066,-6.1504,-5.9236,-5.7446,-5.6219,-5.6219,-5.6219,-5.6219,-5.6219,-5.6219,-5.6219,-5.6219,-5.6219,-5.6219,-5.6219,-5.6219,-5.6219,-5.6219,-5.6219,-5.6219,-5.6219,-5.6219,-5.6219,-5.6219,-5.6219,-5.6219,-5.6219,-5.6219,-5.6219,-5.6219,-5.4199,-5.3124,-5.4596,-5.2684,-5.1915,-5.423,-5.4131,-5.4173,-5.4942,-5.4511,-5.2904,-4.973,-4.9204,-4.753,-4.3864,-4.3615,-4.3615,-4.3615,-4.3615,-4.3739,-4.3987,-4.3987,-4.4215,-4.467,-4.467,-4.5022,-4.5685,-4.5685,-4.5809,-4.157,-4.2731,-4.3979,-4.4908,-4.6592,-4.8217,-4.8827,-4.8449,-4.813,-4.8595,-4.8682,-4.8972,-4.9988,-5.1585,-5.4052,-5.8087,-6.0758,-6.2616,-6.3428,-6.4357,-6.4996,-6.4996,-6.4996,-6.5298,-6.6078,-6.5851,-6.5851,-6.6137,-6.5851,-6.5577,-6.5228,-6.5519,-6.578,-6.5925,-6.578,-6.5722,-6.5722,-6.5228,-6.4996,-6.4996,-6.4996,-6.4996,-6.4996,-6.4996,-6.4996,-6.4996,-6.4996,-6.4996,-6.4996,-6.4996,-6.4996,-6.4996,-6.4996,-6.3879,-6.1975,-5.9375,-5.7446,-5.6219,-5.6219,-5.6219,-5.6219,-5.6219,-5.6219,-5.6219,-5.6219,-5.6219,-5.6219,-5.6219,-5.6219,-5.6219,-5.6219,-5.6219,-5.6219,-5.6219,-5.6219,-5.6219,-5.6219,-5.6219,-5.6219,-5.6219,-5.6219,-5.6219,-5.6219,-5.4819,-5.3801,-5.4199,-5.3651,-5.3425,-5.4199,-5.4696,-5.5131,-5.5591,-5.5089,-5.3589,-5.0596,-4.9703,-4.7884,-4.471,-4.4155,-4.3946,-4.3946,-4.3946,-4.4112,-4.4463,-4.4463,-4.4691,-4.5147,-4.5147,-4.5395,-4.585,-4.585,-4.6016,-4.2963,-4.3427,-4.3515,-4.5343,-4.5953,-4.6708,-4.9059,-4.9117,-4.9175,-5.0975,-5.1352,-5.1381,-5.1468,-5.3994,-5.6926,-5.9626,-6.1716,-6.3457,-6.4677,-6.4938,-6.4996,-6.4996,-6.4996,-6.4996,-6.5118,-6.5054,-6.5054,-6.5118,-6.5054,-6.5286,-6.5838,-6.5344,-6.5315,-6.5896,-6.5373,-6.5054,-6.5054,-6.4996,-6.4996,-6.4996,-6.4996,-6.4996,-6.4996,-6.4996,-6.4996,-6.4996,-6.4996,-6.4996,-6.4996,-6.4996,-6.4996,-6.4996,-6.4996,-6.3291,-6.0551,-5.8956,-5.7446,-5.6219,-5.6219,-5.6219,-5.6219,-5.6219,-5.6219,-5.6219,-5.6219,-5.6219,-5.6219,-5.6219,-5.6219,-5.6219,-5.6219,-5.6219,-5.6219,-5.6219,-5.6219,-5.6219,-5.6219,-5.6219,-5.6219,-5.6219,-5.6219,-5.6219,-5.6219,-5.4819,-5.4199,-5.5827,-5.3449,-5.2594,-5.5607,-5.4696,-5.4448,-5.5997,-5.5666,-5.4442,-5.2187,-4.9306,-4.7411,-4.7116,-4.5715,-4.4898,-4.4898,-4.4898,-4.4919,-4.494,-4.494,-4.5167,-4.5643,-4.5643,-4.5871,-4.6306,-4.6306,-4.6225,-4.1134,-4.2266,-4.3456,-4.5401,-4.6185,-4.7027,-4.9175,-5.0423,-5.1556,-5.3094,-5.3413,-5.3413,-5.3413,-5.6026,-5.8639,-5.9974,-6.2151,-6.398,-6.4851,-6.4996,-6.4996,-6.4996,-6.4996,-6.4996,-6.4996,-6.4996,-6.4996,-6.4996,-6.4996,-6.5083,-6.5344,-6.5112,-6.5083,-6.5344,-6.5112,-6.4996,-6.4996,-6.4996,-6.4996,-6.4996,-6.4996,-6.4996,-6.4996,-6.4996,-6.4996,-6.4996,-6.4996,-6.4996,-6.4996,-6.4996,-6.4996,-6.4996,-6.4996,-6.3749,-6.1773,-6.0345,-5.8841,-5.7446,-5.6485,-5.6219,-5.6219,-5.6219,-5.6219,-5.6219,-5.6219,-5.6219,-5.6219,-5.6219,-5.6219,-5.6219,-5.6219,-5.6219,-5.6219,-5.6219,-5.6219,-5.6219,-5.6219,-5.6219,-5.6219,-5.6219,-5.6219,-5.6219,-5.6219,-5.5681,-5.5435,-5.612,-5.514,-5.4819,-5.6047,-5.5681,-5.5509,-5.6146,-5.509,-5.4033,-5.3223,-5.1099,-4.9801,-4.9801,-4.6819,-4.5002,-4.5002,-4.5002,-4.5126,-4.5416,-4.5416,-4.5643,-4.6099,-4.6099,-4.6182,-4.6266,-4.6266,-4.6266,-4.0575,-4.1727,-4.3209,-4.5332,-4.6395,-4.7573,-4.9999,-5.1816,-5.3571,-5.5329,-5.5387,-5.5184,-5.5358,-5.7361,-5.9335,-6.0351,-6.2499,-6.427,-6.4909,-6.4996,-6.4996,-6.4996,-6.4996,-6.4996,-6.4996,-6.4996,-6.4996,-6.4996,-6.4996,-6.4996,-6.4996,-6.4996,-6.4996,-6.4996,-6.4996,-6.4996,-6.4996,-6.4996,-6.4996,-6.4996,-6.4996,-6.4996,-6.4996,-6.4996,-6.4996,-6.4996,-6.4996,-6.4996,-6.4996,-6.4996,-6.4996,-6.4996,-6.4996,-6.4102,-6.2707,-6.1706,-6.007,-5.8276,-5.7256,-5.6558,-5.6219,-5.6219,-5.6219,-5.6219,-5.6219,-5.6219,-5.6219,-5.6219,-5.6219,-5.6219,-5.6219,-5.6219,-5.6219,-5.6219,-5.6219,-5.6219,-5.6219,-5.6219,-5.6219,-5.6219,-5.6219,-5.6219,-5.6219,-5.6219,-5.6219,-5.6219,-5.6219,-5.6219,-5.6219,-5.6219,-5.6219,-5.6219,-5.5214,-5.4497,-5.4497,-5.2973,-5.206,-5.206,-4.8886,-4.6791,-4.6263,-4.6185,-4.6095,-4.5892,-4.5892,-4.6037,-4.6266,-4.6266,-4.6266,-4.6266,-4.6266,-4.6266,-4.1971,-4.2228,-4.2682,-4.5122,-4.6476,-4.8131,-5.1601,-5.3245,-5.4861,-5.7708,-5.7332,-5.6636,-5.7216,-5.7855,-5.8958,-6.0874,-6.279,-6.4241,-6.488,-6.4996,-6.4996,-6.4996,-6.4996,-6.4996,-6.4996,-6.4996,-6.4996,-6.4996,-6.4996,-6.4996,-6.4996,-6.4996,-6.4996,-6.4996,-6.4996,-6.4996,-6.4996,-6.4996,-6.4996,-6.4996,-6.4996,-6.4996,-6.4996,-6.4996,-6.4996,-6.4996,-6.4996,-6.4996,-6.4996,-6.4996,-6.4996,-6.4996,-6.4996,-6.4102,-6.284,-6.2773,-6.0934,-5.8418,-5.8418,-5.7446,-5.6219,-5.6219,-5.6219,-5.6219,-5.6219,-5.6219,-5.6219,-5.6219,-5.6219,-5.6219,-5.6219,-5.6219,-5.6219,-5.6219,-5.6219,-5.6219,-5.6219,-5.6219,-5.6219,-5.6219,-5.6219,-5.6219,-5.6219,-5.6219,-5.6219,-5.6219,-5.6219,-5.6219,-5.6219,-5.6219,-5.6219,-5.6219,-5.6219,-5.6219,-5.6219,-5.467,-5.3726,-5.3726,-5.2213,-5.0598,-4.8899,-4.882,-4.8049,-4.6347,-4.6347,-4.6347,-4.6266,-4.6266,-4.6266,-4.6266,-4.6266,-4.6266,-4.089,-4.2,-4.365,-4.6359,-4.8673,-5.0983,-5.3802,-5.5242,-5.6647,-5.9132,-5.9335,-5.8842,-5.8145,-5.89,-5.9974,-6.1019,-6.2412,-6.3748,-6.4822,-6.4996,-6.4996,-6.4996,-6.4996,-6.4996,-6.4996,-6.4996,-6.4996,-6.4996,-6.4996,-6.4996,-6.4996,-6.4996,-6.4996,-6.4996,-6.4996,-6.4996,-6.4996,-6.4996,-6.4996,-6.4996,-6.4996,-6.4996,-6.4996,-6.4996,-6.4996,-6.4996,-6.4996,-6.4996,-6.4996,-6.4996,-6.4996,-6.4996,-6.4996,-6.4711,-6.4232,-6.3197,-6.1571,-5.9793,-5.8771,-5.7446,-5.6219,-5.6219,-5.6219,-5.6219,-5.6219,-5.6219,-5.6219,-5.6219,-5.6219,-5.6219,-5.6219,-5.6219,-5.6219,-5.6219,-5.6219,-5.6219,-5.6219,-5.6219,-5.6219,-5.6219,-5.6219,-5.6219,-5.6219,-5.6219,-5.6219,-5.6219,-5.6219,-5.6219,-5.6219,-5.6219,-5.5754,-5.4596,-5.5509,-5.5754,-5.4497,-5.5041,-5.5435,-5.5435,-5.4992,-5.3525,-5.0675,-5.052,-4.9741,-4.8129,-4.8049,-4.7512,-4.6266,-4.6266,-4.6266,-4.6266,-4.6266,-4.6266,-4.2117,-4.3634,-4.5625,-4.8558,-5.0567,-5.2653,-5.5619,-5.7159,-5.8426,-6.018,-6.0179,-5.9771,-5.951,-5.9858,-6.0584,-6.1745,-6.279,-6.3835,-6.4851,-6.4996,-6.4996,-6.4996,-6.4996,-6.4996,-6.4996,-6.4996,-6.4996,-6.4996,-6.4996,-6.4996,-6.4996,-6.4996,-6.4996,-6.4996,-6.4996,-6.4996,-6.4996,-6.4996,-6.4996,-6.4996,-6.4996,-6.4996,-6.4996,-6.4996,-6.4996,-6.4996,-6.4996,-6.4996,-6.4996,-6.4996,-6.4996,-6.4996,-6.4996,-6.4996,-6.4903,-6.4009,-6.2707,-6.1301,-5.9793,-5.8276,-5.6968,-5.6412,-5.6219,-5.6219,-5.6219,-5.6219,-5.6219,-5.6219,-5.6219,-5.6219,-5.6219,-5.6219,-5.6219,-5.6219,-5.6219,-5.6219,-5.6219,-5.6219,-5.6219,-5.6219,-5.6219,-5.6219,-5.6219,-5.6219,-5.6219,-5.6219,-5.6219,-5.6219,-5.6219,-5.6219,-5.5582,-5.3876,-5.5214,-5.5509,-5.3801,-5.5214,-5.6219,-5.6219,-5.6219,-5.5287,-5.3299,-5.2594,-5.1524,-4.9819,-4.9819,-4.9293,-4.8288,-4.7592,-4.7272,-4.7272,-4.6569,-4.6266,-4.4528,-4.6108,-4.79,-5.1006,-5.2319,-5.3722,-5.7101,-5.8803,-5.9915,-6.0822,-6.0151,-5.9829,-6.099,-6.07,-6.0903,-6.279,-6.3574,-6.4183,-6.488,-6.4996,-6.4996,-6.4996,-6.4996,-6.4996,-6.4996,-6.4996,-6.4996,-6.4996,-6.4996,-6.4996,-6.4996,-6.4996,-6.4996,-6.4996,-6.4996,-6.4996,-6.4996,-6.4996,-6.4996,-6.4996,-6.4996,-6.4996,-6.4996,-6.4996,-6.4996,-6.4996,-6.4996,-6.4996,-6.4996,-6.4996,-6.4996,-6.4996,-6.4996,-6.4996,-6.4996,-6.4996,-6.4074,-6.2575,-6.1097,-5.9654,-5.8134,-5.6703,-5.6219,-5.6219,-5.6219,-5.6219,-5.6219,-5.6219,-5.6219,-5.6219,-5.6219,-5.6219,-5.6219,-5.6219,-5.6219,-5.6219,-5.6219,-5.6219,-5.6219,-5.6219,-5.6219,-5.6219,-5.6219,-5.6219,-5.6219,-5.6219,-5.6219,-5.6219,-5.6219,-5.6219,-5.5582,-5.3876,-5.5214,-5.5509,-5.3801,-5.5214,-5.6219,-5.6219,-5.6219,-5.6219,-5.6219,-5.4745,-5.3199,-5.1524,-5.1524,-5.1447,-5.1293,-4.9741,-4.9057,-4.8978,-4.7272,-4.6509,-4.3125,-4.4974,-4.7568,-5.0935,-5.3985,-5.6598,-5.8149,-5.8899,-5.9501,-6.0268,-6.0644,-6.0874,-6.1135,-6.1077,-6.1454,-6.2848,-6.3196,-6.369,-6.4822,-6.4996,-6.4996,-6.4996,-6.4996,-6.4996,-6.4996,-6.4996,-6.4996,-6.4996,-6.4996,-6.4996,-6.4996,-6.4996,-6.4996,-6.4996,-6.4996,-6.4996,-6.4996,-6.4996,-6.4996,-6.4996,-6.4996,-6.4996,-6.4996,-6.4996,-6.4996,-6.4996,-6.4996,-6.4996,-6.4996,-6.4996,-6.4996,-6.4996,-6.4996,-6.4996,-6.4996,-6.4996,-6.4074,-6.2575,-6.1097,-5.9654,-5.8134,-5.6703,-5.6219,-5.6219,-5.6219,-5.6219,-5.6219,-5.6219,-5.6219,-5.6219,-5.6219,-5.6219,-5.6219,-5.6219,-5.6219,-5.6219,-5.6219,-5.6219,-5.6219,-5.6219,-5.6219,-5.6219,-5.6219,-5.6219,-5.6219,-5.6219,-5.6219,-5.6219,-5.6219,-5.6219,-5.5582,-5.3876,-5.5214,-5.5509,-5.3801,-5.5214,-5.6219,-5.6219,-5.6219,-5.6219,-5.6219,-5.5827,-5.4893,-5.3199,-5.3199,-5.2594,-5.1293,-5.0908,-5.0753,-5.0753,-4.9057,-4.8288,-4.3826,-4.6094,-4.8925,-5.2771,-5.5854,-5.7976,-5.8221,-5.9103,-5.9903,-5.9947,-6.05,-6.0995,-6.1135,-6.1193,-6.16,-6.2877,-6.308,-6.3545,-6.4822,-6.4996,-6.4996,-6.4996,-6.4996,-6.4996,-6.4996,-6.4996,-6.4996,-6.4996,-6.4996,-6.4996,-6.4996,-6.4996,-6.4996,-6.4996,-6.4996,-6.4996,-6.4996,-6.4996,-6.4996,-6.4996,-6.4996,-6.4996,-6.4996,-6.4996,-6.4996,-6.4996,-6.4996,-6.4996,-6.4996,-6.4996,-6.4996,-6.4996,-6.4996,-6.4996,-6.4996,-6.4996,-6.449,-6.3684,-6.2175,-6.0688,-5.9166,-5.7733,-5.6776,-5.6219,-5.6219,-5.6219,-5.6219,-5.6219,-5.6219,-5.6219,-5.6219,-5.6219,-5.6219,-5.6219,-5.6219,-5.6219,-5.6219,-5.6219,-5.6219,-5.6219,-5.6219,-5.6219,-5.6219,-5.6219,-5.6219,-5.6219,-5.6219,-5.6219,-5.6219,-5.6219,-5.5582,-5.3876,-5.5214,-5.5509,-5.3801,-5.5214,-5.6219,-5.6219,-5.6219,-5.6219,-5.6219,-5.6219,-5.5827,-5.4893,-5.4893,-5.4522,-5.3675,-5.2821,-5.2442,-5.2442,-5.0753,-4.9975,-4.4472,-4.7353,-5.0611,-5.4644,-5.7021,-5.8272,-5.7918,-5.905,-6.0132,-5.9825,-6.0355,-6.091,-6.1166,-6.1193,-6.16,-6.2877,-6.308,-6.3545,-6.4822,-6.4996,-6.4996,-6.4996,-6.4996,-6.4996,-6.4996,-6.4996,-6.4996,-6.4996,-6.4996,-6.4996,-6.4996,-6.4996,-6.4996,-6.4996,-6.4996,-6.4996,-6.4996,-6.4996,-6.4996,-6.4996,-6.4996,-6.4996,-6.4996,-6.4996,-6.4996,-6.4996,-6.4996,-6.4996,-6.4996,-6.4996,-6.4996,-6.4996,-6.4996,-6.4996,-6.4996,-6.4996,-6.4996,-6.4775,-6.3328,-6.184,-6.0345,-5.8912,-5.7374,-5.6219,-5.6219,-5.6219,-5.6219,-5.6219,-5.6219,-5.6219,-5.6219,-5.6219,-5.6219,-5.6219,-5.6219,-5.6219,-5.6219,-5.6219,-5.6219,-5.6219,-5.6219,-5.6219,-5.6219,-5.6219,-5.6219,-5.6219,-5.6219,-5.6219,-5.6219,-5.6219,-5.5681,-5.4274,-5.5361,-5.5656,-5.4274,-5.5435,-5.6219,-5.6219,-5.6219,-5.6219,-5.6219,-5.6219,-5.6219,-5.6219,-5.6219,-5.6219,-5.6219,-5.4819,-5.4124,-5.4124,-5.2442,-5.1678,-4.1979,-4.6109,-5.0808,-5.4182,-5.605,-5.7273,-5.7967,-5.8342,-5.8785,-5.9848,-6.0823,-6.1407,-6.1224,-6.1193,-6.16,-6.2877,-6.308,-6.3545,-6.4822,-6.4996,-6.4996,-6.4996,-6.4996,-6.4996,-6.4996,-6.4996,-6.4996,-6.4996,-6.4996,-6.4996,-6.4996,-6.4996,-6.4996,-6.4996,-6.4996,-6.4996,-6.4996,-6.4996,-6.4996,-6.4996,-6.4996,-6.4996,-6.4996,-6.4996,-6.4996,-6.4996,-6.4996,-6.4996,-6.4996,-6.4996,-6.4996,-6.4996,-6.4996,-6.4996,-6.4996,-6.4996,-6.4996,-6.4775,-6.3328,-6.184,-6.0345,-5.8912,-5.7374,-5.6219,-5.6219,-5.6219,-5.6219,-5.6219,-5.6219,-5.6219,-5.6219,-5.6219,-5.6219,-5.6219,-5.6219,-5.6219,-5.6219,-5.6219,-5.6219,-5.6219,-5.6219,-5.6219,-5.6219,-5.6219,-5.6219,-5.6219,-5.6219,-5.6219,-5.6219,-5.6219,-5.612,-5.5901,-5.6072,-5.6146,-5.5901,-5.6047,-5.6219,-5.6219,-5.6219,-5.6219,-5.6219,-5.6219,-5.6219,-5.6219,-5.6219,-5.6219,-5.6219,-5.5974,-5.5901,-5.5827,-5.4124,-5.335,-4.3453,-4.7014,-5.0563,-5.3396,-5.5216,-5.6519,-5.7243,-5.8114,-5.8847,-5.9266,-6.0238,-6.1085,-6.1195,-6.1193,-6.1483,-6.2383,-6.2529,-6.2993,-6.427,-6.4444,-6.459,-6.4938,-6.4996,-6.4996,-6.4996,-6.4996,-6.4996,-6.4996,-6.4996,-6.4996,-6.4996,-6.4996,-6.4996,-6.4996,-6.4996,-6.4996,-6.4996,-6.4996,-6.4996,-6.4996,-6.4996,-6.4996,-6.4996,-6.4996,-6.4996,-6.4996,-6.4996,-6.4996,-6.4996,-6.4996,-6.4996,-6.4996,-6.4996,-6.4996,-6.4996,-6.4996,-6.4996,-6.4932,-6.4232,-6.2536,-6.0483,-5.9862,-5.8089,-5.6219,-5.6219,-5.6219,-5.6219,-5.6219,-5.6219,-5.6219,-5.6219,-5.6219,-5.6219,-5.6219,-5.6219,-5.6219,-5.6219,-5.6219,-5.6219,-5.6219,-5.6219,-5.6219,-5.6219,-5.6219,-5.6219,-5.6219,-5.6219,-5.6219,-5.6219,-5.6219,-5.6219,-5.6219,-5.6219,-5.6219,-5.6219,-5.6219,-5.6219,-5.6219,-5.6219,-5.6219,-5.6219,-5.6219,-5.6219,-5.6219,-5.6219,-5.6072,-5.5852,-5.6072,-5.6072,-5.5852,-5.5361,-5.5115,-4.4147,-4.667,-4.8914,-5.1817,-5.3827,-5.5382,-5.6376,-5.7596,-5.8617,-5.8658,-5.9449,-6.0297,-6.0846,-6.1077,-6.1396,-6.2006,-6.2093,-6.2499,-6.3632,-6.3806,-6.398,-6.4444,-6.4502,-6.4561,-6.4735,-6.4764,-6.4822,-6.4967,-6.4996,-6.4996,-6.4996,-6.4996,-6.4996,-6.4996,-6.4996,-6.4996,-6.4996,-6.4996,-6.4996,-6.4996,-6.4996,-6.4996,-6.4996,-6.4996,-6.4996,-6.4996,-6.4996,-6.4996,-6.4996,-6.4996,-6.4996,-6.4996,-6.4996,-6.4996,-6.4996,-6.4996,-6.4996,-6.4996,-6.4996,-6.3328,-6.1097,-6.0688,-5.8841,-5.6703,-5.6267,-5.6219,-5.6219,-5.6219,-5.6219,-5.6219,-5.6219,-5.6219,-5.6219,-5.6219,-5.6219,-5.6219,-5.6219,-5.6219,-5.6219,-5.6219,-5.6219,-5.6219,-5.6219,-5.6219,-5.6219,-5.6219,-5.6219,-5.6219,-5.6219,-5.6219,-5.6219,-5.6219,-5.6219,-5.6146,-5.6072,-5.6072,-5.6072,-5.6072,-5.6072,-5.6072,-5.6219,-5.6219,-5.6219,-5.6219,-5.6219,-5.5999,-5.5632,-5.5779,-5.5779,-5.5485,-5.5852,-5.6072,-4.1663,-4.3253,-4.5198,-4.8943,-5.1545,-5.3649,-5.5552,-5.6435,-5.7254,-5.8426,-5.8577,-5.8784,-6.0032,-6.0758,-6.1396,-6.2006,-6.2093,-6.2325,-6.3051,-6.3138,-6.3167,-6.3196,-6.3196,-6.3428,-6.3975,-6.4033,-6.4328,-6.4938,-6.4996,-6.4996,-6.4996,-6.4996,-6.4996,-6.4996,-6.4996,-6.4996,-6.4996,-6.4996,-6.4996,-6.4996,-6.4996,-6.4996,-6.4996,-6.4996,-6.4996,-6.4996,-6.4996,-6.4996,-6.4996,-6.4996,-6.4996,-6.4996,-6.4996,-6.4996,-6.4996,-6.4996,-6.4996,-6.4996,-6.4996,-6.3944,-6.2442,-6.1029,-5.9515,-5.7992,-5.6631,-5.6219,-5.6219,-5.6219,-5.6219,-5.6219,-5.6219,-5.6219,-5.6219,-5.6219,-5.6219,-5.6219,-5.6219,-5.6219,-5.6219,-5.6219,-5.6219,-5.6219,-5.6219,-5.6219,-5.6219,-5.6219,-5.6219,-5.6219,-5.6219,-5.6219,-5.6219,-5.6219,-5.6219,-5.6072,-5.5632,-5.5632,-5.5632,-5.5632,-5.5632,-5.5779,-5.6219,-5.6219,-5.6219,-5.6219,-5.6219,-5.5999,-5.5632,-5.5263,-5.5041,-5.5041,-5.5411,-5.5632,-4.1029,-4.2382,-4.4066,-4.7085,-4.934,-5.127,-5.2784,-5.459,-5.6045,-5.6511,-5.7476,-5.8435,-5.89,-5.9829,-6.0758,-6.1425,-6.1513,-6.1745,-6.2354,-6.2441,-6.2616,-6.3051,-6.308,-6.3167,-6.3399,-6.3806,-6.4062,-6.4357,-6.4764,-6.4996,-6.4996,-6.4996,-6.4996,-6.4996,-6.4996,-6.4996,-6.4996,-6.4996,-6.4996,-6.4996,-6.4996,-6.4996,-6.4996,-6.4996,-6.4996,-6.4996,-6.4996,-6.4996,-6.4996,-6.4996,-6.4996,-6.4996,-6.4996,-6.4996,-6.4996,-6.4996,-6.4996,-6.4996,-6.4996,-6.4009,-6.2575,-6.1097,-5.9584,-5.8134,-5.6631,-5.6219,-5.6219,-5.6219,-5.6219,-5.6219,-5.6219,-5.6219,-5.6219,-5.6219,-5.6219,-5.6219,-5.6219,-5.6219,-5.6219,-5.6219,-5.6219,-5.6219,-5.6219,-5.6219,-5.6219,-5.6219,-5.6219,-5.6219,-5.6219,-5.6219,-5.6219,-5.6219,-5.6219,-5.6072,-5.5632,-5.5632,-5.5485,-5.5263,-5.5485,-5.5632,-5.5779,-5.6072,-5.6219,-5.6219,-5.5705,-5.5337,-5.5189,-5.5337,-5.509,-5.4645,-5.5041,-5.5337,-4.0216,-4.1395,-4.2963,-4.5547,-4.7462,-4.9214,-5.1178,-5.3094,-5.4575,-5.501,-5.649,-5.771,-5.7942,-5.8842,-5.9858,-6.0729,-6.0874,-6.1077,-6.1716,-6.1803,-6.1948,-6.2412,-6.2441,-6.2529,-6.2732,-6.3138,-6.3486,-6.369,-6.4299,-6.4677,-6.4677,-6.488,-6.4996,-6.4996,-6.4996,-6.4996,-6.4996,-6.4996,-6.4996,-6.4996,-6.4996,-6.4996,-6.4996,-6.4996,-6.4996,-6.4996,-6.4996,-6.4996,-6.4996,-6.4996,-6.4996,-6.4996,-6.4996,-6.4996,-6.4996,-6.4996,-6.4996,-6.4996,-6.4996,-6.4361,-6.3197,-6.1233,-5.9931,-5.8771,-5.6848,-5.6219,-5.6219,-5.6219,-5.6219,-5.6219,-5.6219,-5.6219,-5.6219,-5.6219,-5.6219,-5.6219,-5.6219,-5.6219,-5.6219,-5.6219,-5.6219,-5.6219,-5.6219,-5.6219,-5.6219,-5.6219,-5.6219,-5.6219,-5.6219,-5.6072,-5.5999,-5.5999,-5.5852,-5.5607,-5.5238,-5.5164,-5.509,-5.4794,-5.5016,-5.5238,-5.5411,-5.5632,-5.5779,-5.5779,-5.5263,-5.4967,-5.4794,-5.4942,-5.4719,-5.4197,-5.4645,-5.5041,0.0,0.0,0.0,-4.4153,-4.575,-4.7579,-5.0743,-5.1962,-5.2833,-5.4139,-5.5416,-5.652,-5.71,-5.7768,-5.8668,-5.9916,-6.0148,-6.0438,-6.1077,-6.1193,-6.1193,-6.1193,-6.1193,-6.1425,-6.2006,-6.2093,-6.2354,-6.3022,-6.3661,-6.3946,-6.3975,-6.4648,-6.4996,-6.4996,-6.4996,-6.4996,-6.4996,-6.4996,-6.4996,-6.4996,-6.4996,-6.4996,-6.4996,-6.4996,-6.4996,-6.4996,-6.4996,-6.4996,-6.4996,-6.4996,-6.4996,-6.4996,-6.4996,-6.4996,-6.4996,-6.4996,-6.4996,-6.4996,-6.4996,-6.4996,-6.4518,-6.1571,-6.062,-6.007,-5.7112,-5.6219,-5.6219,-5.6219,-5.6219,-5.6219,-5.6219,-5.6219,-5.6219,-5.6219,-5.6219,-5.6219,-5.6219,-5.6219,-5.6219,-5.6219,-5.6219,-5.6219,-5.6219,-5.6219,-5.6219,-5.6219,-5.6219,-5.6219,-5.6219,-5.5852,-5.5632,-5.5632,-5.5263,-5.4818,-5.4397,-5.4397,-5.4397,-5.4397,-5.4397,-5.457,-5.4967,-5.4967,-5.4967,-5.4967,-5.4967,-5.4794,-5.4397,-5.4047,-5.3822,-5.3822,-5.4197,-5.4645,-3.9039,0.0,0.0,0.0,0.0,0.0,-4.7056,-4.8682,-5.0162,-5.1468,-5.3123,-5.4517,-5.5155,-5.62,-5.7187,-5.7971,-5.9277,-6.0264,-6.0438,-6.0874,-6.1193,-6.1193,-6.1193,-6.128,-6.1425,-6.1832,-6.218,-6.2354,-6.2993,-6.3545,-6.3946,-6.4648,-6.4996,-6.4996,-6.4996,-6.4996,-6.4996,-6.4996,-6.4996,-6.4996,-6.4996,-6.4996,-6.4996,-6.4996,-6.4996,-6.4996,-6.4996,-6.4996,-6.4996,-6.4996,-6.4996,-6.4996,-6.4996,-6.4996,-6.4996,-6.4996,-6.4996,-6.4996,-6.4996,-6.4996,-6.4518,-6.1571,-6.062,-6.007,-5.7112,-5.6219,-5.6219,-5.6219,-5.6219,-5.6219,-5.6219,-5.6219,-5.6219,-5.6219,-5.6219,-5.6219,-5.6219,-5.6219,-5.6219,-5.6219,-5.6219,-5.6219,-5.6219,-5.6219,-5.6219,-5.6219,-5.6219,-5.6219,-5.6219,-5.5852,-5.5632,-5.5632,-5.5263,-5.4818,-5.4397,-5.4397,-5.4248,-5.3972,-5.4248,-5.4496,-5.457,-5.4892,-5.4967,-5.4967,-5.4719,-5.4496,-5.4397,-5.4248,-5.4098,-5.3822,-5.4197,-5.4472,-3.937,-4.0354,-4.1773,-4.1995,0.0,0.0,-4.6272,-4.755,-4.8769,-5.0336,-5.1991,-5.3239,-5.3617,-5.4749,-5.5823,-5.6403,-5.7913,-5.919,-5.9742,-6.0148,-6.0496,-6.0758,-6.0787,-6.0874,-6.1164,-6.1513,-6.1716,-6.1716,-6.2325,-6.308,-6.3917,-6.4648,-6.4996,-6.4996,-6.4996,-6.4996,-6.4996,-6.4996,-6.4996,-6.4996,-6.4996,-6.4996,-6.4996,-6.4996,-6.4996,-6.4996,-6.4996,-6.4996,-6.4996,-6.4996,-6.4996,-6.4996,-6.4996,-6.4996,-6.4996,-6.4996,-6.4996,-6.4996,-6.4996,-6.4996,-6.4518,-6.1571,-6.062,-6.007,-5.7112,-5.6219,-5.6219,-5.6219,-5.6219,-5.6219,-5.6219,-5.6219,-5.6219,-5.6219,-5.6219,-5.6219,-5.6219,-5.6219,-5.6219,-5.6219,-5.6219,-5.6219,-5.6219,-5.6219,-5.6219,-5.6219,-5.6219,-5.6219,-5.6219,-5.5705,-5.5337,-5.5337,-5.4818,-5.4421,-5.4197,-5.4197,-5.4047,-5.3822,-5.4047,-5.4197,-5.4197,-5.4347,-5.452,-5.452,-5.4272,-5.4197,-5.4197,-5.4197,-5.4047,-5.3822,-5.4047,-5.4197,-4.0411,-4.1299,-4.2698,-4.3076,-4.3761,0.0,-4.6882,-4.7521,-4.813,-4.9814,-5.1199,-5.2129,-5.2223,-5.3326,-5.44,-5.4981,-5.62,-5.7594,-5.8987,-5.9248,-5.951,-6.0032,-6.0148,-6.0438,-6.1019,-6.1164,-6.1193,-6.1193,-6.1745,-6.2645,-6.3864,-6.4532,-6.4909,-6.4996,-6.4996,-6.4996,-6.4996,-6.4996,-6.4996,-6.4996,-6.4996,-6.4996,-6.4996,-6.4996,-6.4996,-6.4996,-6.4996,-6.4996,-6.4996,-6.4996,-6.4996,-6.4996,-6.4996,-6.4996,-6.4996,-6.4996,-6.4996,-6.4996,-6.4996,-6.4996,-6.4518,-6.1571,-6.062,-6.007,-5.7112,-5.6219,-5.6219,-5.6219,-5.6219,-5.6219,-5.6219,-5.6219,-5.6219,-5.6219,-5.6219,-5.6219,-5.6219,-5.6219,-5.6219,-5.6219,-5.6219,-5.6219,-5.6219,-5.6219,-5.6219,-5.6219,-5.6219,-5.6219,-5.6219,-5.5485,-5.4967,-5.4967,-5.4272,-5.3822,-5.3822,-5.3822,-5.3822,-5.3822,-5.3822,-5.3822,-5.3822,-5.3822,-5.3822,-5.3822,-5.3822,-5.3822,-5.3822,-5.3822,-5.3822,-5.3822,-5.3822,-5.3822,-4.3737,-4.4507,-4.5477,-4.4536,-4.5288,0.0,-4.4966,-4.5924,-4.6969,-4.6853,-4.784,-4.903,-5.0075,-5.1323,-5.2397,-5.3007,-5.4604,-5.6403,-5.8232,-5.8958,-5.9335,-5.9451,-5.9916,-6.0264,-6.038,-6.0874,-6.1193,-6.1193,-6.1745,-6.2441,-6.3225,-6.3893,-6.4444,-6.4967,-6.4996,-6.4996,-6.4996,-6.4996,-6.4996,-6.4996,-6.4996,-6.4996,-6.4996,-6.4996,-6.4996,-6.4996,-6.4996,-6.4996,-6.4996,-6.4996,-6.4996,-6.4996,-6.4996,-6.4996,-6.4996,-6.4996,-6.4996,-6.4996,-6.4996,-6.4996,-6.4518,-6.1571,-6.062,-6.007,-5.7112,-5.6219,-5.6219,-5.6219,-5.6219,-5.6219,-5.6219,-5.6219,-5.6219,-5.6219,-5.6219,-5.6219,-5.6219,-5.6219,-5.6219,-5.6219,-5.6219,-5.6219,-5.6219,-5.6219,-5.6219,-5.6219,-5.6219,-5.6219,-5.6219,-5.5485,-5.4967,-5.4967,-5.4272,-5.3822,-5.3822,-5.3822,-5.3822,-5.3822,-5.3822,-5.3822,-5.3822,-5.3822,-5.3822,-5.3822,-5.3822,-5.3822,-5.3822,-5.3822,-5.3822,-5.3822,-5.3822,-5.3822,-4.5108,-4.5513,-4.6256,-4.561,-4.5902,0.0,0.0,-4.5895,-4.6534,-4.7172,-4.755,-4.8072,-4.9059,-5.0017,-5.0859,-5.1527,-5.321,-5.4807,-5.5765,-5.7303,-5.8435,-5.8755,-5.9074,-5.9393,-5.9713,-6.0322,-6.0845,-6.1164,-6.1745,-6.2238,-6.2558,-6.3516,-6.4183,-6.4502,-6.4822,-6.4996,-6.4996,-6.4996,-6.4996,-6.4996,-6.4996,-6.4996,-6.4996,-6.4996,-6.4996,-6.4996,-6.4996,-6.4996,-6.4996,-6.4996,-6.4996,-6.4996,-6.4996,-6.4996,-6.4996,-6.4996,-6.4996,-6.4996,-6.4996,-6.4996,-6.4647,-6.2442,-6.1233,-6.0208,-5.7947,-5.675,-5.6219,-5.6219,-5.6219,-5.6219,-5.6219,-5.6219,-5.6219,-5.6219,-5.6219,-5.6219,-5.6219,-5.6219,-5.6219,-5.6219,-5.6219,-5.6219,-5.6219,-5.6219,-5.6219,-5.6219,-5.6219,-5.6219,-5.6219,-5.5705,-5.5263,-5.5041,-5.4421,-5.4047,-5.3822,-5.3822,-5.3822,-5.3822,-5.3822,-5.3822,-5.3822,-5.3822,-5.3822,-5.3822,-5.3822,-5.3822,-5.3822,-5.3822,-5.3822,-5.3822,-5.3822,-5.3822,-4.6513,-4.6697,-4.7356,-4.6886,-4.6894,-4.7003,0.0,0.0,0.0,-4.7753,-4.7666,-4.7637,-4.8391,-4.8856,-4.9436,-5.0336,-5.1875,-5.3007,-5.3123,-5.5126,-5.6839,-5.7507,-5.7797,-5.8203,-5.8842,-5.9364,-6.0032,-6.0932,-6.1222,-6.1571,-6.2064,-6.308,-6.3777,-6.3975,-6.4532,-6.4851,-6.4996,-6.4996,-6.4996,-6.4996,-6.4996,-6.4996,-6.4996,-6.4996,-6.4996,-6.4996,-6.4996,-6.4996,-6.4996,-6.4996,-6.4996,-6.4996,-6.4996,-6.4996,-6.4996,-6.4996,-6.4996,-6.4996,-6.4996,-6.4775,-6.4361,-6.2868,-6.1165,-5.9515,-5.8347,-5.7112,-5.6219,-5.6219,-5.6219,-5.6219,-5.6219,-5.6219,-5.6219,-5.6219,-5.6219,-5.6219,-5.6219,-5.6219,-5.6219,-5.6219,-5.6219,-5.6219,-5.6219,-5.6219,-5.6219,-5.6219,-5.6219,-5.6219,-5.6219,-5.5779,-5.5337,-5.5041,-5.457,-5.4197,-5.3822,-5.3822,-5.3822,-5.3822,-5.3822,-5.3822,-5.3822,-5.3822,-5.3822,-5.3822,-5.3822,-5.3822,-5.3822,-5.3822,-5.3822,-5.3822,-5.3822,-5.3822,-5.0016,-5.0798,-5.1421,-4.8972,-4.9868,-5.0301,-4.6101,0.0,-4.7143,-4.5634,0.0,-4.6475,-4.7666,0.0,0.0,-4.9494,-5.0481,-5.1178,-5.1759,-5.3065,-5.4197,-5.4865,-5.5939,-5.6868,-5.7477,-5.7594,-5.8377,-6.0177,-5.9335,-5.9713,-6.1977,-6.2238,-6.2848,-6.3946,-6.4033,-6.4415,-6.4967,-6.4996,-6.4996,-6.4996,-6.4996,-6.4996,-6.4996,-6.4996,-6.4996,-6.4996,-6.4996,-6.4996,-6.4996,-6.4996,-6.4996,-6.4996,-6.4996,-6.4996,-6.4996,-6.4996,-6.4996,-6.4996,-6.4996,-6.4167,-6.2773,-6.1369,-5.8956,-5.6703,-5.6485,-5.634,-5.6219,-5.6219,-5.6219,-5.6219,-5.6219,-5.6219,-5.6219,-5.6219,-5.6219,-5.6219,-5.6219,-5.6219,-5.6219,-5.6219,-5.6219,-5.6219,-5.6219,-5.6219,-5.6219,-5.6219,-5.6219,-5.6219,-5.6219,-5.5558,-5.5041,-5.4967,-5.4347,-5.3822,-5.3822,-5.3822,-5.3822,-5.3822,-5.3822,-5.3822,-5.3822,-5.3822,-5.3822,-5.3822,-5.3822,-5.3822,-5.3822,-5.3822,-5.3822,-5.3822,-5.3822,-5.3822,-5.0435,-5.1173,-5.1754,-4.9838,-5.0253,-5.0309,-4.6982,-4.6586,-4.6716,-4.6098,0.0,0.0,0.0,0.0,0.0,0.0,-4.9988,-5.0511,-5.0017,-5.1381,-5.2804,-5.382,-5.44,-5.5126,-5.6113,-5.62,-5.7013,-5.8958,-5.861,-5.9103,-6.0903,-6.1687,-6.2354,-6.2877,-6.3632,-6.4183,-6.4444,-6.4793,-6.4996,-6.4996,-6.4996,-6.4996,-6.4996,-6.4996,-6.4996,-6.4996,-6.4996,-6.4996,-6.4996,-6.4996,-6.4996,-6.4996,-6.4996,-6.4996,-6.4996,-6.4996,-6.4996,-6.4996,-6.4996,-6.4583,-6.3684,-6.1369,-5.9166,-5.7328,-5.6485,-5.6219,-5.6219,-5.6219,-5.6219,-5.6219,-5.6219,-5.6219,-5.6219,-5.6219,-5.6219,-5.6219,-5.6219,-5.6219,-5.6219,-5.6219,-5.6219,-5.6219,-5.6219,-5.6219,-5.6219,-5.6219,-5.6219,-5.6219,-5.6219,-5.5926,-5.5558,-5.5041,-5.4744,-5.4272,-5.3822,-5.3822,-5.3822,-5.3822,-5.3822,-5.3822,-5.3822,-5.3822,-5.3822,-5.3822,-5.3822,-5.3822,-5.3822,-5.3822,-5.3822,-5.3822,-5.3822,-5.3822,-5.1063,-5.1745,-5.2256,-5.0156,-5.0135,-5.0005,-4.7561,-4.7076,-4.7089,-4.6962,-4.6974,0.0,0.0,0.0,-4.8043,-4.8856,0.0,-4.9872,-4.9088,-5.0046,-5.1236,-5.2339,-5.292,-5.3617,-5.4546,-5.4458,-5.5329,-5.7623,-5.7448,-5.8116,-6.009,-6.1077,-6.1745,-6.2093,-6.3196,-6.3864,-6.3975,-6.4677,-6.4996,-6.4996,-6.4996,-6.4996,-6.4996,-6.4996,-6.4996,-6.4996,-6.4996,-6.4996,-6.4996,-6.4996,-6.4996,-6.4996,-6.4996,-6.4996,-6.4996,-6.4996,-6.4996,-6.4996,-6.4996,-6.4454,-6.3357,-6.0825,-5.8982,-5.759,-5.6558,-5.6219,-5.6219,-5.6219,-5.6219,-5.6219,-5.6219,-5.6219,-5.6219,-5.6219,-5.6219,-5.6219,-5.6219,-5.6219,-5.6219,-5.6219,-5.6219,-5.6219,-5.6219,-5.6219,-5.6219,-5.6219,-5.6219,-5.6219,-5.6219,-5.5999,-5.5632,-5.5041,-5.4818,-5.4421,-5.3822,-5.3822,-5.3822,-5.3822,-5.3822,-5.3822,-5.3822,-5.3822,-5.3822,-5.3822,-5.3822,-5.3822,-5.3822,-5.3822,-5.3822,-5.3822,-5.3822,-5.3822,-5.2845,-5.3593,-5.4112,-4.9965,-4.9948,-5.0122,-4.7273,-4.8054,-4.8963,-4.7453,-4.8653,-4.9687,-4.8846,-4.8188,-4.8188,-4.9436,-4.9175,0.0,0.0,-4.9175,-4.9059,-4.9727,-5.149,-5.2652,-5.271,-5.2107,-5.3065,-5.6229,-5.5329,-5.6258,-6.0003,-6.0235,-6.0816,-6.2064,-6.2761,-6.3428,-6.3975,-6.4677,-6.4996,-6.4996,-6.4996,-6.4996,-6.4996,-6.4996,-6.4996,-6.4996,-6.4996,-6.4996,-6.4996,-6.4996,-6.4996,-6.4996,-6.4996,-6.4996,-6.4996,-6.4996,-6.4996,-6.4996,-6.4996,-6.3131,-6.0483,-5.8982,-5.7446,-5.6292,-5.6219,-5.6219,-5.6219,-5.6219,-5.6219,-5.6219,-5.6219,-5.6219,-5.6219,-5.6219,-5.6219,-5.6219,-5.6219,-5.6219,-5.6219,-5.6219,-5.6219,-5.6219,-5.6219,-5.6219,-5.6219,-5.6219,-5.6219,-5.6219,-5.6219,-5.5558,-5.5041,-5.4967,-5.4272,-5.3822,-5.3822,-5.3822,-5.3822,-5.3822,-5.3822,-5.3822,-5.3822,-5.3822,-5.3822,-5.3822,-5.3822,-5.3822,-5.3822,-5.3822,-5.3822,-5.3822,-5.3822,-5.3822,-5.4431,-5.5299,-5.5718,-5.2509,-5.2091,-5.1685,-4.8787,-4.8978,-4.9284,-4.7574,-4.8758,-4.9804,-4.8875,-4.8537,-4.8682,-4.9524,-4.9494,-4.9146,0.0,-4.7869,-4.7869,-4.8914,-4.9316,-5.0046,-5.1215,-4.9761,-5.0569,-5.4815,-5.4041,-5.4963,-5.8726,-5.9742,-6.0409,-6.0816,-6.1861,-6.2732,-6.3399,-6.4038,-6.4561,-6.4996,-6.4996,-6.4996,-6.4996,-6.4996,-6.4996,-6.4996,-6.4996,-6.4996,-6.4996,-6.4996,-6.4996,-6.4996,-6.4996,-6.4996,-6.4996,-6.4996,-6.4996,-6.4996,-6.4996,-6.3066,-6.0483,-6.0,-5.8205,-5.6219,-5.6219,-5.6219,-5.6219,-5.6219,-5.6219,-5.6219,-5.6219,-5.6219,-5.6219,-5.6219,-5.6219,-5.6219,-5.6219,-5.6219,-5.6219,-5.6219,-5.6219,-5.6219,-5.6219,-5.6219,-5.6219,-5.6219,-5.6219,-5.6219,-5.6219,-5.5999,-5.5705,-5.5411,-5.4892,-5.4496,-5.4173,-5.3972,-5.3822,-5.3822,-5.3822,-5.3822,-5.3822,-5.3822,-5.3822,-5.3822,-5.3822,-5.3822,-5.3822,-5.3822,-5.3822,-5.3822,-5.3822,-5.3822,-5.6047,-5.6825,-5.7244,-5.485,-5.4072,-5.3264,-5.0653,-5.0756,-5.0959,-4.9186,-5.0022,-5.0955,-5.0621,-4.9844,-4.9446,-5.022,-4.9988,-4.9282,0.0,-4.7608,-4.7583,-4.775,-4.7716,-4.8302,-4.9889,-4.7961,-4.8399,-5.2535,-5.1818,-5.2771,-5.6446,-5.8083,-5.9094,-5.9494,-6.1184,-6.2412,-6.308,-6.3719,-6.4357,-6.4996,-6.4996,-6.4996,-6.4996,-6.4996,-6.4996,-6.4996,-6.4996,-6.4996,-6.4996,-6.4996,-6.4996,-6.4996,-6.4996,-6.4996,-6.4996,-6.4996,-6.4996,-6.4996,-6.4996,-6.3066,-6.062,-6.062,-5.863,-5.6219,-5.6219,-5.6219,-5.6219,-5.6219,-5.6219,-5.6219,-5.6219,-5.6219,-5.6219,-5.6219,-5.6219,-5.6219,-5.6219,-5.6219,-5.6219,-5.6219,-5.6219,-5.6219,-5.6219,-5.6219,-5.6219,-5.6219,-5.6219,-5.6219,-5.6219,-5.6072,-5.5852,-5.5411,-5.5041,-5.4645,-5.4173,-5.3972,-5.3822,-5.3822,-5.3822,-5.3822,-5.3822,-5.3822,-5.3822,-5.3822,-5.3822,-5.3822,-5.3822,-5.3822,-5.3822,-5.3822,-5.3822,-5.3822]},{"header":{"parameterUnit":"m.s-1","parameterCategory":1,"la1":30.6,"la2":29.2853,"lo1":-89.7004,"lo2":-87.6739,"dy":0.0162,"dx":0.0183,"nx":112,"ny":82,"refTime":"2024-06-11T18:00:00:Z","depth":0,"parameterNumber":3,"parameterNumberName":"V-component_of_WINDS"},"data":[0.0,0.0,0.0,0.0,0.0,0.0,0.0,0.0,0.0,0.0,0.0,0.0,0.0,0.0,0.0,0.0,0.0,0.0,0.0,0.0,0.0,0.0,0.0,0.0,0.0,0.0,0.0,0.0,0.0,0.0,0.0,0.0,0.0,0.0,0.0,0.0,0.0,0.0,0.0,0.0,0.0,0.0,0.0,0.0,0.0,0.0,0.0,0.0,0.0,0.0,0.0,0.0,0.0,0.0,0.0,0.0,0.0,0.0,0.0,0.0,0.0,0.0,0.0,0.0,0.0,0.0,0.0,0.0,0.0,0.0,0.0,0.0,0.0,0.0,0.0,0.0,0.0,0.0,0.0,0.0,0.0,0.0,0.0,0.0,0.0,0.0,0.0,0.0,0.0,0.0,4.3606,4.709,4.983,5.1082,5.0338,4.939,4.7022,4.2726,0.0,0.0,0.0,0.0,0.0,0.0,0.0,0.0,0.0,0.0,0.0,0.0,0.0,0.0,0.0,0.0,0.0,0.0,0.0,0.0,0.0,0.0,0.0,0.0,0.0,0.0,0.0,0.0,0.0,0.0,0.0,0.0,0.0,0.0,0.0,0.0,0.0,0.0,0.0,0.0,0.0,0.0,0.0,0.0,0.0,0.0,0.0,0.0,0.0,0.0,0.0,0.0,0.0,0.0,0.0,0.0,0.0,0.0,0.0,0.0,0.0,0.0,0.0,0.0,0.0,0.0,0.0,0.0,0.0,0.0,0.0,0.0,0.0,0.0,0.0,0.0,0.0,0.0,0.0,0.0,0.0,0.0,0.0,0.0,0.0,0.0,0.0,0.0,0.0,0.0,0.0,0.0,0.0,0.0,0.0,0.0,0.0,0.0,0.0,0.0,0.0,0.0,0.0,0.0,4.4418,4.9965,5.1488,5.1826,5.1116,4.919,4.6655,4.3436,0.0,0.0,0.0,0.0,0.0,0.0,0.0,0.0,0.0,0.0,0.0,0.0,0.0,0.0,0.0,0.0,0.0,0.0,0.0,0.0,0.0,0.0,0.0,0.0,0.0,0.0,0.0,0.0,0.0,0.0,0.0,0.0,0.0,0.0,0.0,0.0,0.0,0.0,0.0,0.0,0.0,0.0,0.0,0.0,0.0,0.0,0.0,0.0,0.0,0.0,0.0,0.0,0.0,0.0,0.0,0.0,0.0,0.0,0.0,0.0,0.0,0.0,0.0,0.0,0.0,0.0,0.0,0.0,0.0,0.0,0.0,0.0,0.0,0.0,0.0,0.0,0.0,0.0,0.0,0.0,0.0,0.0,0.0,0.0,0.0,0.0,0.0,0.0,0.0,0.0,0.0,0.0,0.0,0.0,0.0,0.0,0.0,0.0,0.0,0.0,0.0,0.0,0.0,4.4451,4.6989,5.1352,5.2503,5.2469,5.1286,4.956,4.6887,4.3031,4.1441,0.0,0.0,0.0,0.0,0.0,0.0,0.0,0.0,0.0,0.0,0.0,0.0,0.0,0.0,0.0,0.0,0.0,0.0,0.0,0.0,0.0,0.0,0.0,0.0,0.0,0.0,0.0,0.0,0.0,0.0,0.0,0.0,0.0,0.0,0.0,0.0,0.0,0.0,0.0,0.0,0.0,0.0,0.0,0.0,0.0,0.0,0.0,0.0,0.0,0.0,0.0,0.0,0.0,0.0,0.0,0.0,0.0,0.0,0.0,0.0,0.0,0.0,0.0,0.0,0.0,0.0,0.0,0.0,0.0,0.0,0.0,0.0,0.0,0.0,0.0,0.0,0.0,0.0,0.0,0.0,0.0,0.0,0.0,0.0,0.0,0.0,0.0,0.0,0.0,0.0,0.0,0.0,0.0,0.0,0.0,0.0,0.0,0.0,0.0,0.0,0.0,0.0,4.7631,4.9492,5.2266,5.3145,5.2875,5.1352,4.9526,4.6718,4.2557,4.0595,0.0,0.0,0.0,0.0,0.0,0.0,0.0,0.0,0.0,0.0,0.0,0.0,0.0,0.0,0.0,0.0,0.0,0.0,0.0,0.0,0.0,0.0,0.0,0.0,0.0,0.0,0.0,0.0,0.0,0.0,0.0,0.0,0.0,0.0,0.0,0.0,0.0,0.0,0.0,0.0,0.0,0.0,0.0,0.0,0.0,0.0,0.0,0.0,0.0,0.0,0.0,0.0,0.0,0.0,0.0,0.0,0.0,0.0,0.0,0.0,0.0,0.0,0.0,0.0,0.0,0.0,0.0,0.0,0.0,0.0,0.0,0.0,0.0,0.0,0.0,0.0,0.0,0.0,0.0,0.0,0.0,0.0,0.0,0.0,0.0,0.0,0.0,0.0,0.0,0.0,0.0,0.0,0.0,0.0,0.0,0.0,0.0,0.0,0.0,0.0,0.0,0.0,4.8206,5.0845,5.3179,5.3484,5.2875,5.1352,4.8578,4.5602,4.2489,3.9614,0.0,0.0,0.0,0.0,0.0,0.0,0.0,0.0,0.0,0.0,0.0,0.0,0.0,0.0,0.0,0.0,0.0,0.0,0.0,0.0,0.0,0.0,0.0,0.0,0.0,0.0,0.0,0.0,0.0,0.0,0.0,0.0,0.0,0.0,0.0,0.0,0.0,0.0,0.0,0.0,0.0,0.0,0.0,0.0,0.0,0.0,0.0,0.0,0.0,0.0,0.0,0.0,0.0,0.0,0.0,0.0,0.0,0.0,0.0,0.0,0.0,0.0,0.0,0.0,0.0,0.0,0.0,0.0,0.0,0.0,0.0,0.0,0.0,0.0,0.0,0.0,0.0,0.0,0.0,0.0,0.0,0.0,0.0,0.0,0.0,0.0,0.0,0.0,0.0,0.0,0.0,0.0,0.0,0.0,0.0,0.0,0.0,0.0,0.0,0.0,0.0,0.0,4.8173,5.0473,5.3213,5.3518,5.2875,5.1352,4.9357,4.6481,4.2523,0.0,0.0,0.0,0.0,0.0,0.0,0.0,0.0,0.0,0.0,0.0,0.0,0.0,0.0,0.0,0.0,0.0,0.0,0.0,0.0,0.0,0.0,0.0,0.0,0.0,0.0,0.0,0.0,0.0,0.0,0.0,0.0,0.0,0.0,0.0,0.0,0.0,0.0,0.0,0.0,0.0,0.0,0.0,0.0,0.0,0.0,0.0,0.0,0.0,0.0,0.0,0.0,0.0,0.0,0.0,0.0,0.0,0.0,0.0,0.0,0.0,0.0,0.0,0.0,0.0,0.0,0.0,0.0,0.0,0.0,0.0,0.0,0.0,0.0,0.0,0.0,0.0,0.0,0.0,0.0,0.0,0.0,0.0,0.0,0.0,0.0,0.0,0.0,0.0,0.0,0.0,0.0,0.0,0.0,0.0,0.0,0.0,0.0,0.0,0.0,0.0,0.0,4.6278,4.8511,5.0676,5.3247,5.3518,5.2875,5.1352,4.9424,4.6583,4.2557,0.0,0.0,0.0,0.0,0.0,0.0,0.0,0.0,0.0,0.0,0.0,0.0,0.0,0.0,0.0,0.0,0.0,0.0,0.0,0.0,0.0,0.0,0.0,0.0,0.0,0.0,0.0,0.0,0.0,0.0,0.0,0.0,0.0,0.0,0.0,0.0,0.0,0.0,0.0,0.0,0.0,0.0,0.0,0.0,0.0,0.0,0.0,0.0,0.0,0.0,0.0,0.0,0.0,0.0,0.0,0.0,0.0,0.0,0.0,0.0,0.0,0.0,0.0,0.0,0.0,0.0,0.0,0.0,0.0,0.0,0.0,0.0,0.0,0.0,0.0,0.0,0.0,0.0,0.0,0.0,0.0,0.0,0.0,0.0,0.0,0.0,0.0,0.0,0.0,0.0,0.0,0.0,0.0,0.0,0.0,0.0,0.0,0.0,0.0,0.0,0.0,0.0,4.6413,4.939,5.1826,5.3348,5.3518,5.2875,5.1352,4.8511,4.5534,0.0,0.0,0.0,0.0,0.0,0.0,0.0,0.0,0.0,0.0,0.0,0.0,0.0,0.0,0.0,0.0,0.0,0.0,0.0,0.0,0.0,0.0,0.0,0.0,0.0,0.0,0.0,0.0,0.0,0.0,0.0,0.0,0.0,0.0,0.0,0.0,0.0,0.0,0.0,0.0,0.0,0.0,0.0,0.0,0.0,0.0,0.0,0.0,0.0,0.0,0.0,0.0,0.0,0.0,0.0,0.0,0.0,0.0,0.0,0.0,0.0,0.0,0.0,0.0,0.0,0.0,0.0,0.0,0.0,0.0,0.0,0.0,0.0,0.0,0.0,0.0,0.0,0.0,0.0,0.0,0.0,0.0,0.0,0.0,0.0,0.0,0.0,0.0,0.0,0.0,0.0,0.0,0.0,0.0,0.0,0.0,0.0,0.0,0.0,0.0,0.0,0.0,0.0,4.6481,5.0338,5.301,5.345,5.3957,5.345,5.1386,4.9458,4.6616,4.2557,0.0,0.0,0.0,0.0,0.0,0.0,0.0,0.0,0.0,0.0,0.0,0.0,0.0,0.0,0.0,0.0,0.0,0.0,0.0,0.0,0.0,0.0,0.0,0.0,0.0,0.0,0.0,0.0,0.0,0.0,0.0,0.0,0.0,0.0,0.0,0.0,0.0,0.0,0.0,0.0,0.0,0.0,0.0,0.0,0.0,0.0,0.0,0.0,0.0,0.0,0.0,0.0,0.0,0.0,0.0,0.0,0.0,0.0,0.0,0.0,0.0,0.0,0.0,0.0,0.0,0.0,0.0,0.0,0.0,0.0,0.0,0.0,0.0,0.0,0.0,0.0,0.0,0.0,0.0,0.0,0.0,0.0,0.0,0.0,0.0,0.0,0.0,0.0,0.0,0.0,0.0,0.0,0.0,0.0,0.0,0.0,0.0,0.0,0.0,0.0,0.0,0.0,4.6921,5.0913,5.3721,5.4329,5.4499,5.3923,5.2266,5.0473,4.7665,4.3498,0.0,0.0,0.0,0.0,0.0,0.0,0.0,0.0,0.0,0.0,0.0,0.0,0.0,0.0,0.0,0.0,0.0,0.0,0.0,0.0,0.0,0.0,0.0,0.0,0.0,0.0,0.0,0.0,0.0,0.0,0.0,0.0,0.0,0.0,0.0,0.0,0.0,0.0,0.0,0.0,0.0,0.0,0.0,0.0,0.0,0.0,0.0,0.0,0.0,0.0,0.0,0.0,0.0,0.0,0.0,0.0,0.0,0.0,0.0,0.0,0.0,0.0,0.0,0.0,0.0,0.0,0.0,0.0,0.0,0.0,0.0,0.0,0.0,0.0,0.0,0.0,0.0,0.0,0.0,0.0,0.0,0.0,0.0,0.0,0.0,0.0,0.0,0.0,0.0,0.0,0.0,0.0,0.0,0.0,0.0,0.0,0.0,0.0,0.0,0.0,0.0,0.0,4.7601,5.1352,5.4228,5.5546,5.5175,5.4431,5.3585,5.1522,4.868,4.4953,0.0,0.0,0.0,0.0,0.0,0.0,0.0,0.0,0.0,0.0,0.0,0.0,0.0,0.0,0.0,0.0,0.0,0.0,0.0,0.0,0.0,0.0,0.0,0.0,0.0,0.0,0.0,0.0,0.0,0.0,0.0,0.0,0.0,0.0,0.0,0.0,0.0,0.0,0.0,0.0,0.0,0.0,0.0,0.0,0.0,0.0,0.0,0.0,0.0,0.0,0.0,0.0,0.0,0.0,0.0,0.0,0.0,0.0,0.0,0.0,4.3451,4.2027,0.0,0.0,0.0,0.0,0.0,0.0,0.0,0.0,0.0,0.0,0.0,0.0,0.0,0.0,0.0,0.0,0.0,0.0,0.0,0.0,0.0,0.0,0.0,0.0,0.0,0.0,0.0,0.0,0.0,0.0,0.0,0.0,0.0,0.0,0.0,0.0,0.0,0.0,0.0,0.0,4.8477,5.257,5.5378,5.5683,5.6089,5.5547,5.3653,5.2469,4.9999,4.5737,4.3166,0.0,0.0,0.0,0.0,0.0,0.0,0.0,0.0,0.0,0.0,0.0,0.0,0.0,0.0,0.0,0.0,0.0,0.0,0.0,0.0,0.0,0.0,0.0,0.0,0.0,0.0,0.0,0.0,0.0,0.0,0.0,0.0,0.0,0.0,0.0,0.0,0.0,0.0,0.0,0.0,0.0,0.0,0.0,0.0,0.0,0.0,0.0,0.0,0.0,0.0,0.0,0.0,0.0,0.0,0.0,0.0,0.0,0.0,0.0,4.7466,4.5732,0.0,0.0,0.0,0.0,0.0,0.0,0.0,0.0,0.0,0.0,0.0,0.0,0.0,0.0,0.0,0.0,0.0,0.0,0.0,0.0,0.0,0.0,0.0,0.0,0.0,0.0,0.0,0.0,0.0,0.0,0.0,0.0,0.0,0.0,0.0,0.0,0.0,0.0,0.0,0.0,4.9097,5.3011,5.5847,5.6697,5.6799,5.619,5.4702,5.3518,5.1285,4.753,4.4823,0.0,0.0,0.0,0.0,0.0,0.0,0.0,0.0,0.0,0.0,0.0,0.0,0.0,0.0,0.0,0.0,0.0,0.0,0.0,0.0,0.0,0.0,0.0,0.0,0.0,0.0,0.0,0.0,0.0,0.0,0.0,0.0,0.0,0.0,0.0,0.0,0.0,0.0,0.0,0.0,0.0,0.0,0.0,0.0,0.0,0.0,0.0,0.0,0.0,0.0,0.0,0.0,0.0,5.0504,5.1858,5.361,5.3195,5.3632,5.4626,5.2241,5.0286,4.8663,4.7301,0.0,0.0,0.0,0.0,0.0,0.0,0.0,0.0,0.0,0.0,0.0,0.0,0.0,0.0,0.0,0.0,0.0,0.0,0.0,0.0,0.0,0.0,4.8887,4.9358,5.036,4.9791,4.4753,0.0,0.0,0.0,0.0,0.0,0.0,0.0,0.0,0.0,0.0,0.0,4.988,5.3415,5.6179,5.7746,5.734,5.6697,5.5953,5.4668,5.2672,4.9763,4.7056,4.4519,0.0,0.0,0.0,0.0,0.0,0.0,0.0,0.0,0.0,0.0,0.0,0.0,0.0,0.0,0.0,0.0,0.0,0.0,0.0,0.0,0.0,0.0,0.0,0.0,0.0,0.0,0.0,0.0,0.0,0.0,0.0,0.0,3.917,3.9918,0.0,0.0,0.0,0.0,0.0,0.0,0.0,0.0,0.0,0.0,0.0,0.0,0.0,4.8122,4.8745,5.1923,5.3333,5.3011,5.6509,5.828,5.8582,5.9424,5.9926,6.0059,5.9694,0.0,5.1713,5.022,0.0,0.0,0.0,0.0,0.0,0.0,0.0,0.0,0.0,0.0,0.0,0.0,0.0,0.0,0.0,0.0,0.0,0.0,0.0,0.0,0.0,0.0,5.4035,5.3742,5.3623,5.31,5.1386,4.876,4.6246,4.4545,4.337,4.2072,0.0,0.0,0.0,0.0,0.0,0.0,5.1462,5.4458,5.6752,5.7814,5.7814,5.7442,5.6731,5.5919,5.4397,5.2029,5.0304,4.8376,4.6143,4.3267,0.0,0.0,0.0,0.0,0.0,0.0,0.0,0.0,0.0,0.0,0.0,0.0,0.0,0.0,0.0,0.0,0.0,0.0,0.0,0.0,0.0,0.0,0.0,0.0,0.0,0.0,0.0,0.0,0.0,3.932,4.0756,4.1414,4.1564,4.1137,0.0,0.0,0.0,0.0,0.0,0.0,0.0,0.0,0.0,5.0714,5.1711,5.2631,5.3658,5.5773,5.6831,5.7008,5.9255,6.0907,6.1938,6.2378,6.2749,6.2941,6.2941,6.102,5.768,5.4527,5.2208,5.0386,0.0,0.0,0.0,0.0,4.8827,4.9459,5.146,5.1929,5.1663,5.1527,0.0,0.0,0.0,0.0,0.0,0.0,0.0,4.9826,5.1619,5.308,5.4413,5.5492,5.5601,5.5414,5.4895,5.331,5.1155,4.8496,4.7432,4.6269,4.3883,4.3514,0.0,0.0,0.0,5.0193,5.2166,5.4608,5.6523,5.7483,5.7551,5.7285,5.6687,5.5945,5.4799,5.3078,5.1555,5.0101,4.8714,4.6177,4.4141,0.0,0.0,0.0,0.0,0.0,0.0,0.0,0.0,0.0,0.0,0.0,0.0,0.0,0.0,0.0,0.0,0.0,0.0,0.0,0.0,0.0,0.0,0.0,0.0,0.0,0.0,0.0,0.0,4.1444,4.2701,4.3579,4.4047,4.3718,0.0,0.0,0.0,0.0,0.0,0.0,5.0212,5.1229,5.2815,5.5119,5.5837,5.6735,5.7842,5.8758,5.9427,6.0019,6.0967,6.2202,6.3547,6.4079,6.4528,6.4803,6.5105,6.4365,6.2709,5.8668,5.6051,5.4361,5.2572,5.1645,5.1413,5.2108,5.2577,5.3185,5.558,5.6121,5.5796,5.585,5.425,5.2088,5.0619,0.0,0.0,0.0,0.0,5.1486,5.3901,5.4692,5.5289,5.7111,5.7376,5.721,5.7011,5.6547,5.5222,5.1907,5.1015,5.0021,4.7603,4.704,0.0,4.6442,4.9028,5.1549,5.3057,5.4955,5.6463,5.7222,5.7289,5.7163,5.6774,5.5902,5.4998,5.4024,5.2605,5.1454,5.0676,4.8883,4.7124,4.5466,0.0,0.0,0.0,0.0,0.0,0.0,0.0,0.0,0.0,0.0,0.0,0.0,0.0,0.0,0.0,0.0,0.0,0.0,0.0,0.0,0.0,0.0,0.0,0.0,0.0,0.0,0.0,0.0,0.0,4.689,4.71,0.0,0.0,0.0,0.0,4.9657,5.1109,5.3025,5.5679,5.5888,5.6496,5.7872,5.856,5.9249,5.9937,6.0651,6.098,6.101,6.2103,6.2663,6.28,6.4853,6.5789,6.5853,6.695,6.6618,6.5028,6.2047,5.9529,5.7475,5.668,5.5521,5.4357,5.5085,5.5819,5.6586,5.7415,5.7713,5.7779,5.8475,5.6713,5.4229,5.3434,5.2208,0.0,0.0,5.3699,5.5653,5.7177,5.8104,5.8833,5.9628,5.9297,5.8601,5.7906,5.7707,5.7011,5.4759,5.3202,5.2045,5.1183,0.0,5.0221,5.0884,5.2241,5.3606,5.4552,5.5988,5.703,5.7289,5.7289,5.7293,5.726,5.6133,5.5364,5.5333,5.4091,5.301,5.2232,5.142,4.9965,4.78,4.5568,0.0,0.0,0.0,0.0,0.0,0.0,0.0,0.0,0.0,0.0,0.0,0.0,0.0,0.0,0.0,0.0,0.0,0.0,0.0,0.0,0.0,0.0,0.0,0.0,0.0,0.0,0.0,0.0,4.9,4.9942,0.0,5.0122,5.1109,5.2217,5.3354,5.5418,5.7244,5.862,5.9907,6.1014,6.1882,6.257,6.3019,6.3258,6.3498,6.3617,6.3617,6.3993,6.4592,6.5319,6.6868,6.7439,6.731,6.8496,6.8208,6.6751,6.5724,6.3438,6.063,6.0365,5.9628,5.8734,5.8535,5.8899,5.9496,5.9297,5.9231,5.9164,5.8966,5.8502,5.7906,5.7177,5.6581,5.6249,5.6514,5.7144,5.7839,5.8369,5.8701,5.8966,5.9231,5.9098,5.8833,5.8568,5.8502,5.8138,5.6879,5.5454,5.4229,5.35,5.3135,5.2738,5.2075,5.3599,5.4924,5.5264,5.6198,5.6834,5.6911,5.6911,5.6949,5.7101,5.5947,5.5053,5.4692,5.3484,5.2401,5.1623,5.0879,4.9898,4.8646,4.6887,4.4519,0.0,0.0,0.0,0.0,0.0,0.0,0.0,0.0,0.0,0.0,0.0,0.0,0.0,0.0,0.0,0.0,0.0,0.0,0.0,0.0,0.0,0.0,0.0,0.0,0.0,4.8087,5.0002,5.1109,5.2785,5.3773,5.3563,5.494,5.6226,5.7124,5.9219,6.0715,6.1373,6.2899,6.3917,6.4336,6.4784,6.5024,6.5024,6.5024,6.5024,6.5024,6.5024,6.5408,6.6165,6.7355,6.7792,6.7651,6.8991,6.886,6.7743,6.8154,6.6651,6.3968,6.3471,6.2842,6.2113,6.1384,6.1417,6.1781,6.1285,6.0953,6.0622,5.9893,5.9794,5.986,5.9131,5.8899,5.8899,5.8899,5.9065,5.9264,5.9264,5.9463,5.9628,5.9628,5.9628,5.9562,5.933,5.9264,5.9065,5.8303,5.7177,5.6117,5.5388,5.5256,5.4924,5.3964,5.5057,5.5984,5.5984,5.6415,5.668,5.668,5.668,5.6757,5.6872,5.5495,5.4608,5.4552,5.2876,5.1761,5.1589,5.0608,4.9729,4.9018,4.7293,4.5568,4.3809,0.0,0.0,0.0,0.0,0.0,0.0,0.0,0.0,0.0,0.0,0.0,0.0,0.0,0.0,0.0,0.0,0.0,0.0,0.0,0.0,0.0,0.0,0.0,4.9299,5.105,5.2546,5.3294,5.5628,5.6974,5.6466,5.8141,5.9817,6.1134,6.2421,6.3438,6.4036,6.4725,6.5084,6.5084,6.5084,6.5084,6.5084,6.5084,6.5084,6.5084,6.5084,6.5084,6.5084,6.6253,6.6739,6.6791,6.8405,6.8747,6.8169,6.9318,6.8956,6.7533,6.6088,6.5094,6.4365,6.3603,6.3348,6.3315,6.3315,6.2851,6.2122,6.1384,6.0655,5.9926,5.9198,5.8966,5.8966,5.8966,5.9496,6.0026,6.0026,6.0556,6.1119,6.1119,6.1119,6.092,6.0191,6.0026,5.9827,5.9065,5.8336,5.7608,5.6846,5.6713,5.6713,5.668,5.668,0.0,5.668,5.668,5.668,5.668,5.668,5.668,5.668,5.4878,5.4095,5.494,5.2471,5.1392,5.2199,5.0879,4.9796,4.912,4.6921,4.6143,4.6853,0.0,0.0,0.0,0.0,0.0,0.0,0.0,0.0,0.0,0.0,0.0,0.0,0.0,0.0,0.0,0.0,0.0,0.0,0.0,0.0,0.0,4.9613,5.1169,5.1379,5.2695,5.479,5.7812,5.883,5.9937,6.1672,6.2331,6.3019,6.3887,6.4725,6.5293,6.5443,6.6101,6.646,6.646,6.646,6.646,6.646,6.646,6.646,6.646,6.646,6.646,6.6491,6.7657,6.7966,6.7504,6.8808,6.9436,6.9594,6.9361,6.9567,6.9864,6.8374,6.7049,6.5856,6.5094,6.4167,6.3315,6.3315,6.3183,6.2884,6.2155,6.1748,6.145,6.0721,6.0523,6.0523,6.0523,6.0655,6.0821,6.0821,6.0953,6.1119,6.1119,6.1119,6.1053,6.0854,6.0821,6.0589,5.9827,5.9529,5.8999,5.7707,5.7475,5.7309,5.6779,5.668,5.668,5.668,5.668,5.668,5.668,5.668,5.668,5.668,5.5343,5.4156,5.3325,5.1731,5.0959,5.1326,5.0988,5.0953,5.1386,4.9221,4.8206,0.0,0.0,0.0,0.0,0.0,0.0,0.0,0.0,0.0,0.0,0.0,0.0,0.0,0.0,0.0,0.0,0.0,0.0,0.0,0.0,0.0,0.0,5.2396,5.4341,5.5748,5.6615,5.7752,5.9458,6.0894,6.2331,6.3857,6.4246,6.4725,6.5383,6.6041,6.6311,6.6011,6.664,6.6999,6.6999,6.6999,6.6999,6.6999,6.6999,6.6999,6.6999,6.6999,6.6999,6.706,6.7729,6.7786,6.748,6.8365,6.8893,6.9165,6.9419,6.9769,7.0059,0.0,0.0,0.0,0.0,6.5359,6.4597,6.4266,6.4001,6.367,6.3282,6.2917,6.2586,6.2146,6.2013,6.2013,6.2013,6.2013,6.2013,6.2013,6.2013,6.1947,6.1616,6.155,6.1483,6.1185,6.1119,6.0986,6.0556,6.0456,0.0,5.8933,5.8469,5.8005,5.7243,5.7144,5.7044,5.6713,5.668,5.668,5.668,5.668,5.668,5.668,5.5468,0.0,0.0,0.0,5.1329,5.0958,5.1023,0.0,0.0,0.0,0.0,0.0,5.0947,0.0,0.0,4.9492,4.9695,0.0,0.0,0.0,0.0,0.0,0.0,0.0,0.0,0.0,0.0,0.0,0.0,0.0,0.0,0.0,0.0,5.482,5.7633,6.0595,6.1313,6.1134,6.0027,6.2331,6.4096,6.4306,6.4904,6.5503,6.6071,6.667,6.6729,6.6161,6.667,0.0,0.0,0.0,6.6999,6.6999,6.6999,6.6999,6.6999,6.6999,6.6999,6.6999,6.6999,6.6999,6.7,6.7449,6.7672,6.7958,6.952,6.9782,6.9246,6.8855,6.8672,6.8506,6.7148,6.6539,6.6419,6.5757,0.0,0.0,6.4399,6.3935,6.3415,6.3348,6.3315,6.3315,6.3315,6.3315,6.3315,6.3315,6.3315,6.3116,6.2387,6.2221,6.2022,6.1251,6.1119,6.1119,6.1119,6.1119,6.0887,6.0258,5.9496,5.8767,5.8038,5.7906,5.7641,5.6912,5.6812,5.6779,5.6713,5.668,0.0,5.668,5.5421,5.4928,5.568,5.3956,5.243,5.1363,5.1661,5.2131,5.2774,5.2739,5.3687,5.5681,5.5681,5.575,5.575,5.1657,5.1285,0.0,0.0,0.0,0.0,0.0,0.0,0.0,0.0,0.0,0.0,0.0,0.0,0.0,0.0,0.0,5.4251,5.7274,5.9548,6.0206,6.257,6.4366,6.4635,6.4276,6.4635,6.6251,6.652,6.667,6.6789,6.6909,6.6939,6.6819,6.6909,6.6999,6.6999,6.6999,6.6999,6.6999,6.6999,6.6999,6.6999,6.6999,0.0,6.6999,6.6999,6.6999,6.6999,6.7093,6.7697,6.8636,6.9343,7.0026,7.0435,6.9174,6.8672,6.8572,6.7744,6.7003,6.6485,6.6353,6.5823,6.5127,6.4564,6.4266,6.4111,6.3481,6.3315,0.0,6.3315,6.3315,6.3315,6.3315,6.3315,6.3116,6.2387,6.2221,6.2022,6.1251,6.1119,6.1119,6.1119,6.1119,6.1053,6.092,6.0291,5.9529,5.88,5.8668,5.8403,5.7674,5.7574,5.7342,5.6746,5.668,5.668,5.668,5.5918,5.5222,5.4796,5.4659,5.4436,5.4064,5.5097,5.5714,5.5671,5.5239,5.5277,5.5681,5.5681,5.6021,5.6562,5.5108,5.5344,0.0,0.0,0.0,0.0,0.0,0.0,0.0,0.0,0.0,0.0,0.0,4.9553,5.0541,0.0,5.485,5.6825,5.9099,6.0924,6.1912,6.3468,6.4515,6.4545,6.4515,6.5024,6.637,6.649,6.664,6.6969,6.6999,6.6999,6.6999,6.6999,6.6999,6.6999,6.6999,6.6999,6.6999,6.6999,6.6999,6.6999,6.6999,6.6999,6.6999,6.6999,6.6999,6.6999,6.6999,6.7335,6.7907,6.806,6.8717,6.9594,6.8136,6.8258,6.9169,6.8407,6.791,6.7546,6.7214,6.6585,6.5922,6.5558,6.5194,6.4829,6.4465,6.4332,6.4332,6.4332,6.4332,6.4332,6.4332,6.4332,6.4167,6.3405,6.3272,6.3116,6.2345,6.1914,6.1649,6.1649,6.1351,6.1119,6.1119,6.0788,6.0291,5.9562,5.9463,5.9164,5.8436,5.8038,5.7641,5.7276,5.6912,5.668,5.668,5.6349,5.5984,5.562,5.5888,5.5866,5.5388,5.62,5.6619,5.6511,5.6354,5.6427,5.6799,5.6799,5.7171,5.7915,5.7543,5.7746,0.0,0.0,0.0,0.0,0.0,0.0,0.0,4.6767,4.8209,4.9239,5.09,5.2546,5.3713,5.5478,5.7304,5.9009,6.0535,6.2002,6.3438,6.3827,6.3827,6.3318,6.4366,6.5413,6.6131,6.613,6.6369,6.6939,6.6999,6.6999,6.6999,6.6999,6.6999,6.6999,6.6999,6.6999,6.6999,6.6999,6.6999,6.6999,6.6999,6.6999,6.6999,6.6999,6.6999,6.6999,6.6999,6.7091,6.7336,6.7011,6.771,6.8901,6.7504,6.8198,6.9931,6.898,6.8663,6.8606,6.8042,6.7247,6.6519,6.6519,6.6022,6.5425,6.5425,6.5425,6.5425,6.5425,6.5425,6.5425,6.5425,6.5425,6.5227,6.4498,6.4332,6.4167,6.3481,6.2851,6.2387,6.2255,6.1715,6.1285,6.1119,6.1119,6.092,6.0291,6.0225,5.996,5.9198,5.8601,5.8171,5.8038,5.7342,5.6846,5.6713,5.668,5.668,5.668,5.6872,5.672,5.6079,5.6493,5.6676,5.664,5.6894,5.7374,5.8118,5.8118,5.849,5.9235,5.937,5.9471,3.8422,3.9634,4.064,4.2654,4.3234,4.4514,0.0,5.0019,5.0788,5.3068,5.464,5.5837,5.6526,5.7812,5.9039,5.9847,6.1583,6.272,6.2361,6.3288,6.3977,6.3917,6.4785,6.5796,6.6819,6.6634,6.6602,6.6969,6.6999,6.6999,6.6999,6.6999,6.6999,6.6999,6.6999,6.6999,6.6999,6.6999,6.6999,6.6999,6.6999,6.6999,6.6999,6.6999,6.6999,6.6999,6.6999,6.7608,6.8559,6.788,6.8931,7.0809,6.9369,6.9612,7.0563,6.8813,6.8404,6.8672,6.8606,6.7678,6.6519,6.6519,6.6022,6.5425,6.5425,6.5425,6.5425,6.5425,6.5425,6.5425,6.5425,6.5425,6.5227,6.4498,6.4332,6.4167,6.3481,6.3249,6.2984,6.2354,6.2155,6.1848,6.1218,6.1119,6.1086,6.0986,6.0986,6.0721,5.996,5.9794,5.9496,5.8833,5.8104,5.7409,5.6746,5.668,5.668,5.668,5.6872,5.6877,5.6619,5.7156,5.7379,5.7193,5.7563,5.8152,5.8896,5.8896,5.9268,5.9979,6.0723,6.1028,3.9432,4.093,4.2213,4.3671,4.5496,4.7672,5.0493,5.1397,5.2344,5.4854,5.6123,5.707,5.8095,5.9668,6.0924,6.1224,6.2271,6.2728,6.1645,6.2114,6.2551,6.258,6.2232,6.3163,6.6158,6.6453,6.6629,6.6999,6.6999,6.6999,6.6999,6.6999,6.6999,6.6999,6.6999,6.6999,6.6999,6.6999,6.6999,6.6999,6.6999,6.6999,6.6999,6.6999,6.6999,6.6999,6.6999,6.7274,6.7728,6.7002,6.7288,6.8117,6.71,6.7167,6.7958,6.8795,6.9232,6.9334,6.9334,6.8639,6.7777,6.7777,6.7281,6.6618,6.6187,6.6353,6.6618,6.6187,6.6353,6.6684,6.6684,6.6684,6.6573,6.632,6.6254,6.6055,6.5326,6.4829,6.4299,6.3603,6.315,6.2619,6.1848,6.1715,6.1381,6.0368,6.075,6.0986,6.0688,6.0258,5.9728,5.8966,5.8601,5.8303,5.8005,5.7972,5.7972,5.7972,5.8051,5.8051,5.7972,5.8325,5.8518,5.8402,5.8824,5.9148,5.9486,5.9565,6.0047,6.0825,6.1569,6.2178,3.9939,4.1523,4.3183,4.4315,4.6915,4.9661,5.1003,5.204,5.336,5.5731,5.6472,5.722,5.8804,5.9989,6.088,6.1439,6.1821,6.1758,6.0915,6.0831,6.0908,6.0889,6.0018,6.067,6.41,6.5084,6.5958,6.6908,6.6999,6.6999,6.6999,6.6999,6.6999,6.6999,6.6999,6.6999,6.6999,6.6999,6.6999,6.6999,6.6999,6.6999,6.6999,6.6999,6.6999,6.6999,6.6999,6.6999,6.6939,6.649,6.6432,6.6703,6.598,6.6135,6.6962,6.8516,6.9222,6.9301,6.9301,6.9031,6.8672,6.8672,6.8208,6.7466,6.6937,6.7168,6.7466,6.6937,6.7168,6.7566,6.7566,6.7433,6.7268,6.7268,6.7135,6.6883,6.632,6.579,6.5194,6.4531,6.376,6.2914,6.219,6.2058,6.1546,6.0096,6.0758,6.1234,6.075,6.0456,6.0026,5.9264,5.9198,5.9131,5.8933,5.8899,5.8899,5.8899,5.8899,5.8899,5.8899,5.9099,5.9218,5.9218,5.9572,5.9828,5.9996,6.0228,6.0849,6.1863,6.2409,6.3193,3.9913,4.1272,4.3311,4.4488,4.6533,4.8716,5.0405,5.2185,5.4015,5.59,5.5851,5.6216,5.861,5.8106,5.7917,5.9689,5.9654,5.9527,5.9872,5.9647,5.936,5.9211,5.9058,5.9386,6.0356,6.2061,6.4212,6.6816,6.6999,6.6999,6.6999,6.6999,6.6999,6.6999,6.6999,6.6999,6.6999,6.6999,6.6999,6.6999,6.6999,6.6999,6.6999,6.6999,6.6999,6.6999,6.6999,6.6999,6.6999,6.6969,6.7638,6.8615,6.7911,6.8349,6.9225,6.7945,6.7732,6.8122,6.8122,6.8388,6.8672,6.8672,6.8208,6.7566,6.7566,6.7566,6.7566,6.7566,6.7566,6.7566,6.7566,6.7082,6.6552,6.6552,6.6022,6.5492,6.5459,6.5425,6.5194,6.4531,6.3543,6.2612,6.1821,6.1724,6.1465,6.0708,6.148,6.1551,5.9859,6.0473,6.0788,6.0059,5.996,5.9694,5.8966,5.8899,5.8899,5.8899,5.8899,5.8899,5.8899,5.9099,5.9218,5.9218,5.9415,5.9868,6.0571,6.0768,6.166,6.3182,6.3343,6.4241,4.1559,4.2997,4.4617,4.6552,4.8486,5.0522,5.2722,5.3029,5.3501,5.5751,5.5172,5.4869,5.6953,5.7287,5.7608,5.8587,5.9304,5.9317,5.8191,5.8146,5.7953,5.7174,5.6133,5.6463,5.8869,6.0617,6.223,6.3671,6.4081,6.4624,6.5543,6.4752,6.5275,6.7565,6.6343,6.6487,6.8315,6.7867,6.7867,6.8315,6.7867,6.7418,6.6999,6.6999,6.6999,6.6999,6.6999,6.6999,6.6999,6.6999,6.7213,6.7578,6.7306,6.7242,6.711,6.6653,6.6478,6.6654,6.7727,6.8667,6.9434,6.9434,6.9268,6.897,6.8473,6.8672,6.897,6.8473,6.8672,6.8937,6.8473,6.8142,6.7844,6.738,6.7049,6.6751,6.6254,6.6154,6.5922,6.5194,6.4761,6.4047,6.2658,6.2423,6.1934,6.0499,6.0945,6.1258,6.0666,6.0877,6.102,6.0755,6.0721,6.0622,6.039,6.0357,6.0357,6.0357,6.0357,6.0357,6.0357,6.0398,6.0439,6.0439,6.0684,6.0905,6.1139,6.2005,6.267,6.3208,6.4431,6.5222,4.318,4.4774,4.6473,4.859,5.042,5.2161,5.369,5.3435,5.3303,5.4924,5.3643,5.2809,5.4726,5.4828,5.5105,5.6554,5.7277,5.7504,5.6863,5.6792,5.6568,5.5995,5.4714,5.4876,5.737,5.8522,5.9927,6.1758,6.2435,6.3169,6.4081,6.3433,6.4074,6.6353,6.5311,6.5629,6.7347,6.6973,6.7078,6.7826,6.7677,6.7388,6.6999,6.6999,6.6999,6.6999,6.6999,6.6999,6.6999,6.6999,6.6999,6.6999,6.6999,6.6729,6.634,6.6101,6.6185,6.6504,6.7038,6.7843,6.8634,6.9058,6.9204,6.9154,6.9107,6.9401,6.9699,6.9235,6.9434,6.9552,6.8412,6.7922,6.7433,6.6333,6.5926,6.56,6.5096,6.5278,6.5318,6.4472,6.4591,6.4414,6.2872,6.2394,6.1979,6.1201,6.0883,6.0816,6.0932,6.1042,6.1119,6.1119,6.1119,6.1119,6.1119,6.1119,6.1119,6.1119,6.1119,6.1119,6.1119,6.1119,6.1119,6.1119,6.121,6.1393,6.17,6.2531,6.3239,6.3859,6.505,6.5748,4.4696,4.6552,4.8721,5.0446,5.2171,5.3426,5.34,5.3373,5.3365,5.3308,5.1489,5.0311,5.2074,5.1057,5.0838,5.3609,5.4015,5.4526,5.59,5.5574,5.5344,5.5548,5.4835,5.4727,5.5715,5.5939,5.7442,6.0872,6.2012,6.2575,6.2707,6.3135,6.3376,6.3606,6.4059,6.4395,6.452,6.4588,6.4954,6.5737,6.6553,6.6967,6.6999,6.6999,6.6999,6.6999,6.6999,6.6999,6.6999,6.6999,6.6999,6.6999,6.6999,6.6999,6.6909,6.6281,6.67,6.7454,6.619,6.6012,6.6617,6.7719,6.8072,6.8304,6.9478,6.9798,6.9798,6.9798,6.9798,6.9409,6.7623,6.6615,6.561,6.3889,6.2925,6.2369,6.2337,6.31,6.3531,6.2534,6.3116,6.3483,6.2485,6.1751,6.1598,6.2626,6.1327,6.0344,6.0638,6.0945,6.1177,6.1218,6.1185,6.1152,6.1152,6.1119,6.1119,6.1119,6.1119,6.1119,6.1119,6.1119,6.1119,6.1152,6.1152,6.1516,6.2288,6.2498,6.3442,6.4981,6.5303,6.5927,4.6152,4.8179,5.0114,5.1664,5.3034,5.3896,5.3478,5.3034,5.2402,5.1057,4.9639,4.8786,4.927,5.0007,5.0881,5.1776,5.4244,5.5822,5.528,5.6079,5.6423,5.5369,5.5168,5.5056,5.493,5.5568,5.6508,5.7625,5.8595,5.975,6.1097,6.0327,6.0985,6.3577,6.2756,6.3211,6.5274,6.5302,6.5742,6.644,6.6283,6.6454,6.6999,6.6999,6.6999,6.6999,6.6999,6.6999,6.6999,6.6999,6.6999,6.6999,6.6999,6.6999,6.6969,6.6819,6.6582,6.6402,6.607,6.6488,6.7282,6.788,6.8072,6.8304,6.9478,6.9798,6.9798,6.9798,6.9798,6.9585,6.8554,6.7523,6.6354,6.4852,6.3751,6.292,6.2383,6.2534,6.2632,6.2355,6.2534,6.2632,6.2386,6.213,6.2102,6.2394,6.2252,6.1952,6.1472,6.1483,6.1862,6.2666,6.2245,6.1914,6.1914,6.1417,6.1119,6.1119,6.1119,6.1119,6.1119,6.1119,6.1351,6.1881,6.1914,6.2245,6.305,6.3762,6.4357,6.4767,6.5798,6.6381,4.7931,4.9646,5.1226,5.2526,5.3191,5.3373,5.306,5.2145,5.0864,4.9139,4.8068,4.7283,4.6761,4.8094,4.955,5.0435,5.3166,5.5193,5.515,5.5969,5.6294,5.5627,5.5484,5.5365,5.529,5.5782,5.6319,5.6821,5.7532,5.84,5.9638,5.9394,6.0146,6.2077,6.1898,6.249,6.3973,6.4162,6.4415,6.4804,6.4661,6.51,6.6073,6.6073,6.6384,6.6999,6.6999,6.6999,6.6999,6.6999,6.6999,6.6999,6.6999,6.6999,6.6999,6.6999,6.6759,6.634,6.5772,6.609,6.6796,6.6973,6.7082,6.7228,6.805,6.8304,6.8304,6.8304,6.8304,6.8042,6.6881,6.6084,6.5338,6.4228,6.3519,6.2964,6.2609,6.2651,6.2685,6.2369,6.1909,6.174,6.2207,6.2306,6.2306,6.2306,6.2427,6.2601,6.2636,6.2509,6.2463,6.2595,6.2659,6.2685,6.2685,6.2278,6.2047,6.2047,6.2047,6.1914,6.1583,6.1881,6.208,6.2221,6.252,6.3083,6.3769,6.4341,6.476,6.5224,6.5971,6.6421,4.9662,5.089,5.1925,5.3112,5.2877,5.2354,5.2276,5.0864,4.9061,4.7336,4.6525,4.582,4.48,4.6055,4.7748,4.955,5.1613,5.3663,5.5292,5.5538,5.5663,5.6143,5.5792,5.5691,5.6168,5.6219,5.651,5.7235,5.7724,5.8083,5.8452,5.9444,6.0096,6.0326,6.1319,6.1894,6.1973,6.2057,6.2226,6.2438,6.249,6.3235,6.4624,6.4816,6.5543,6.6723,6.6908,6.6999,6.6999,6.6999,6.6999,6.6999,6.6999,6.6999,6.6999,6.6999,6.6999,6.6819,6.5682,6.5652,6.6042,6.5666,6.5601,6.5763,6.6277,6.6375,6.6375,6.6375,6.6375,6.6038,6.4514,6.4073,6.3841,6.3218,6.3033,6.2979,6.2779,6.2882,6.2895,6.2267,6.1515,6.1258,6.2192,6.259,6.2788,6.2788,6.2822,6.3148,6.3929,6.3654,6.3067,6.2275,6.2925,6.3448,6.3481,6.3382,6.3315,6.3315,6.3315,6.3017,6.2387,6.2984,6.3083,6.252,6.315,6.3769,6.4531,6.4531,6.4961,6.5736,6.5965,6.6249,5.0907,5.1617,5.2166,5.3152,5.2563,5.1622,5.1178,4.9374,4.7283,4.5477,4.4722,4.4278,4.4068,4.5454,4.7278,4.9196,5.1341,5.3402,5.4962,5.5609,5.5951,5.6143,5.6118,5.6118,5.6194,5.6219,5.6438,5.6874,5.7785,5.8353,5.8504,5.8863,5.9669,6.0927,6.1163,6.1502,6.1973,6.1091,6.1183,6.2367,6.1424,6.1773,6.3169,6.4368,6.5007,6.5353,6.6476,6.6999,6.6999,6.6999,6.6999,6.6999,6.6999,6.6999,6.6999,6.6999,6.6999,6.6969,6.6729,6.6729,6.6582,6.5268,6.5232,6.5763,6.6277,6.6375,6.6375,6.6375,6.6375,6.6343,6.6038,6.5662,6.5226,6.4549,6.4364,6.3966,6.2565,6.1876,6.1473,6.1352,6.1889,6.2394,6.2606,6.4096,6.5287,6.5287,6.5553,6.5554,6.4896,6.4197,6.4047,6.4716,6.441,6.4133,6.42,6.368,6.3315,6.3315,6.3315,6.3249,6.3116,6.3249,6.3547,6.4001,6.4133,6.4531,6.5227,6.5227,6.5293,6.547,6.5736,6.6289,5.1977,5.2149,5.2059,5.31,5.1831,5.0132,4.9557,4.7649,4.548,4.3755,4.3415,4.3258,4.2657,4.446,4.6386,4.7477,4.9383,5.1601,5.3953,5.4379,5.485,5.6043,5.6219,5.6219,5.6219,5.647,5.6793,5.7159,5.7994,5.8667,5.9077,5.9955,6.0832,6.1529,6.1555,6.1555,6.1529,6.0666,6.0401,6.0802,5.9924,6.0234,6.1706,6.2347,6.3468,6.4944,6.5605,6.6322,6.6999,6.6999,6.6999,6.6999,6.6999,6.6999,6.6999,6.6999,6.6999,6.6939,6.661,6.649,6.6312,6.519,6.5089,6.5326,6.5192,6.49,6.4709,6.4709,6.4709,6.4771,6.5053,6.4753,6.4471,6.509,6.498,6.4384,6.3219,6.2272,6.1523,6.1194,6.1519,6.1874,6.1874,6.3211,6.4425,6.503,6.5756,6.5908,6.5043,6.5143,6.5095,6.4656,6.4782,6.4895,6.4929,6.4597,6.4399,6.4399,6.4399,6.4233,6.3912,6.42,6.4399,6.4365,6.473,6.5094,6.5425,6.5425,6.5624,6.5989,6.6213,6.679,5.2433,5.2328,5.1831,5.2772,5.0943,4.8721,4.8146,4.6107,4.3938,4.2525,4.2422,4.2422,4.1638,4.3363,4.5109,4.5953,4.7468,4.9618,5.2775,5.3128,5.3833,5.5792,5.6143,5.6269,5.6369,5.6771,5.7147,5.7668,5.8499,5.9278,5.9843,6.107,6.1842,6.1973,6.1973,6.1764,6.1319,6.0588,5.9986,5.9542,5.8836,5.9105,6.0165,6.0483,6.1813,6.4016,6.4624,6.5543,6.66,6.6876,6.6999,6.6999,6.6999,6.6999,6.6999,6.6999,6.6999,6.6909,6.64,6.6221,6.6131,6.5622,6.5263,6.4934,6.4395,6.3767,6.3258,6.3258,6.3169,6.3199,6.3677,6.3528,6.3725,6.5289,6.5095,6.4432,6.4063,6.3087,6.2151,6.1642,6.1523,6.1523,6.1523,6.2598,6.3804,6.4693,6.5799,6.6193,6.5448,6.6007,6.5877,6.428,6.4872,6.5425,6.5425,6.5425,6.5425,6.5425,6.5425,6.516,6.463,6.5127,6.516,6.4597,6.5127,6.5492,6.5657,6.5657,6.6022,6.6751,6.6965,6.75,5.1413,5.1675,5.1622,5.1727,5.0002,4.812,4.7545,4.5218,4.2971,4.2342,4.1794,4.1611,4.2004,4.2342,4.3363,4.6029,4.6914,4.8442,5.1816,5.3088,5.4084,5.5315,5.5917,5.642,5.6922,5.6997,5.7248,5.785,5.9515,6.0503,6.0464,6.0914,6.1424,6.1947,6.1973,6.1947,6.1894,6.0771,6.0195,6.0117,5.9045,5.8594,5.8709,6.0027,6.0756,6.1165,6.3757,6.4944,6.5198,6.6446,6.6999,6.6999,6.6999,6.6999,6.6999,6.6999,6.6999,6.6969,6.6909,6.6909,6.6879,6.6819,6.6011,6.5024,6.4964,6.4455,6.3917,6.3917,6.3498,6.3079,6.3139,6.3528,6.4208,6.5381,6.487,6.4171,6.4518,6.3754,6.2959,6.2899,6.2899,6.2899,6.2899,6.4659,6.608,6.6186,6.7507,6.8068,6.6972,6.6631,6.6042,6.4848,6.5122,6.5425,6.5425,6.5425,6.5425,6.5425,6.5425,6.5392,6.5326,6.5392,6.5392,6.5326,6.5392,6.5757,6.6419,6.6419,6.6771,6.7466,6.7512,6.8048,5.1544,5.2145,5.2145,5.2145,5.042,4.8303,4.6682,4.4591,4.2762,4.1847,4.1481,4.1376,4.1611,4.1951,4.271,4.4346,4.4775,4.6148,4.9742,5.0396,5.1538,5.434,5.5307,5.6068,5.6947,5.765,5.8429,5.9515,6.0661,6.1324,6.1435,6.1872,6.2104,6.1973,6.1973,6.1633,6.0927,6.0457,5.9882,5.9176,5.8732,5.8523,5.8523,5.9105,5.9777,6.0688,6.1813,6.3272,6.4944,6.548,6.626,6.6999,6.6999,6.6999,6.6999,6.6999,6.6999,6.6999,6.6999,6.6729,6.646,6.6879,6.637,6.5533,6.5144,6.4545,6.3917,6.3558,6.3258,6.3169,6.3528,6.3827,6.4004,6.4132,6.3755,6.3522,6.3709,6.3394,6.3079,6.3079,6.3079,6.3079,6.3079,6.4376,6.5629,6.6322,6.7494,6.7768,6.6236,6.6501,6.6258,6.4729,6.5092,6.5425,6.5425,6.5425,6.5425,6.5425,6.5425,6.5425,6.5425,6.5425,6.5624,6.6055,6.6088,6.6452,6.7135,6.7135,6.7546,6.8274,6.8274,6.8685,5.0472,5.1361,5.1492,5.1492,5.0002,4.8015,4.5846,4.4147,4.2709,4.1559,4.1324,4.1324,4.1324,4.1768,4.2449,4.315,4.3769,4.518,4.8205,4.9008,5.0332,5.3222,5.4421,5.5462,5.6671,5.8102,5.9413,6.0482,6.1044,6.1479,6.1849,6.2107,6.213,6.1738,6.1555,6.1058,6.0222,6.0039,5.9568,5.8758,5.8601,5.8523,5.8523,5.8523,5.9035,6.0027,6.0414,6.2014,6.4303,6.4752,6.5731,6.6999,6.6999,6.6999,6.6999,6.6999,6.6999,6.6999,6.6999,6.67,6.637,6.6849,6.667,6.6131,6.5293,6.4695,6.4186,6.3528,6.3228,6.3169,6.3617,6.3707,6.3617,6.3169,6.3079,6.3079,6.3079,6.3079,6.3079,6.3079,6.3079,6.3079,6.3079,6.4265,6.5467,6.6269,6.7668,6.791,6.594,6.6433,6.6295,6.4392,6.5029,6.5659,6.601,6.5705,6.5659,6.601,6.6055,6.6055,6.6055,6.6055,6.632,6.685,6.685,6.7214,6.7943,6.7943,6.8307,6.9003,6.9003,6.9301,4.7597,4.8669,4.9113,4.9113,4.8224,4.6834,4.5085,4.3833,4.2709,4.1559,4.1324,4.1324,4.1324,4.1768,4.2343,4.2944,4.4684,4.6444,4.7812,4.9936,5.1518,5.2043,5.3356,5.4738,5.6068,5.8202,5.9637,6.0125,6.0508,6.0889,6.1344,6.12,6.1136,6.1136,6.0561,6.0222,6.0222,5.9647,5.9359,5.9333,5.8784,5.8523,5.8523,5.8523,5.8523,5.8567,6.0027,6.1436,6.2906,6.4368,6.5731,6.6999,6.6999,6.6999,6.6999,6.6999,6.6999,6.6999,6.6999,6.6999,6.6969,6.6999,6.6999,6.6729,6.5413,6.5024,6.4874,6.4186,6.3558,6.3079,6.3079,6.3079,6.3079,6.3079,6.3079,6.3079,6.3079,6.3079,6.3079,6.3079,6.3079,6.3079,6.3079,6.493,6.6375,6.6375,6.8304,6.8961,6.669,6.6754,6.6185,6.3965,6.5008,6.6352,6.7486,6.6528,6.6352,6.7519,6.7566,6.7566,6.7566,6.7566,6.7566,6.7566,6.7566,6.7976,6.8672,6.8672,6.9069,6.9765,6.9765,6.9798,4.6029,4.744,4.8277,4.7492,4.7022,4.6186,4.4042,4.3284,4.2709,4.1559,4.1324,4.1324,4.1324,4.1455,4.216,4.3938,4.4718,4.5935,4.8425,4.9966,5.133,5.2638,5.5092,5.7147,5.8328,5.9664,6.0556,6.0533,6.1249,6.1758,6.1823,6.135,6.111,6.111,6.0927,6.0457,5.9647,5.9856,5.9568,5.8784,5.8601,5.8523,5.8523,5.8523,5.8523,5.8497,5.8965,5.9985,6.1369,6.1746,6.3403,6.5543,6.5543,6.6136,6.6999,6.6999,6.6999,6.6999,6.6999,6.6999,6.6999,6.6999,6.6999,6.6819,6.5951,6.5383,6.4784,6.3677,6.3228,6.3079,6.3079,6.3079,6.3079,6.3079,6.3408,6.3707,6.3707,6.4066,6.4425,6.4425,6.4036,6.3707,6.3707,6.5207,6.6164,6.5359,6.782,6.901,6.669,6.65,6.6321,6.5637,6.5258,6.5437,6.6354,6.6799,6.7208,6.7566,6.7566,6.7566,6.7566,6.7566,6.7844,6.8341,6.8341,6.8705,6.9434,6.9434,6.9566,6.9798,6.9798,6.9798,4.4199,4.5584,4.6447,4.595,4.5663,4.5062,4.3389,4.284,4.2422,4.1507,4.1324,4.1324,4.1324,4.1664,4.2422,4.3885,4.4826,4.6182,4.8544,4.9997,5.164,5.3843,5.5973,5.7775,5.9009,6.0047,6.0582,6.0457,6.1376,6.1884,6.1747,6.135,6.111,6.111,6.0901,6.0326,5.9385,5.9725,5.9437,5.8523,5.8523,5.8523,5.8523,5.8523,5.8523,5.8523,5.8523,5.9315,0.0,6.062,6.2281,6.488,6.488,6.5731,6.6999,6.6999,6.6999,6.6999,6.6999,6.6999,6.6999,6.6999,6.6819,6.655,6.6131,6.5383,6.4425,6.3378,6.3079,6.3079,6.3079,6.3258,6.3438,6.3438,6.3917,6.4395,6.4395,6.4725,6.5024,6.5024,6.4695,6.4306,6.4036,6.5547,6.6447,6.5498,6.7516,6.8485,6.6638,6.6004,6.5575,6.5227,6.5282,6.5552,6.6044,6.7151,6.7984,6.8393,6.844,6.844,6.844,6.844,6.8672,6.9103,6.9103,6.9334,6.9798,6.9798,6.9798,6.9798,6.9798,6.9798,0.0,4.3154,4.3755,4.4278,4.4042,4.3546,4.3023,4.2526,0.0,4.1428,4.1324,4.135,4.1428,4.2265,4.3023,4.3232,4.5088,4.696,4.841,5.0126,5.2426,5.5483,5.6125,5.6967,5.8325,5.9566,6.0201,6.0125,6.0965,6.142,6.1368,6.1226,6.1163,6.111,6.0588,5.9986,5.9385,5.9411,5.9124,5.8523,5.8523,5.8523,5.8523,5.8523,5.8523,5.8523,5.8523,5.9245,6.0414,6.0414,6.2081,6.4624,6.4688,6.5605,6.6846,6.6999,6.6999,6.6999,6.6999,6.6999,6.6999,6.6999,6.658,6.6071,6.6011,6.5114,6.3947,6.3378,6.3228,6.3228,6.3228,6.3647,6.4066,6.4066,6.4605,6.5114,6.5114,6.5144,6.5173,6.5173,6.5114,6.4904,6.4246,6.601,6.7206,6.6415,6.7356,6.7733,6.6491,6.539,6.432,6.3337,6.5063,6.6322,6.6375,6.7516,6.8683,6.9751,6.9798,6.9798,6.9798,6.9798,6.9798,6.9798,6.9798,6.9798,6.9798,6.9798,6.9831,6.9864,6.9864,6.9864,3.9573,0.0,4.1246,4.1402,4.1664,4.1873,0.0,4.1951,4.2004,4.1428,4.1324,4.1585,4.2448,4.2474,4.3101,4.5297,4.6133,4.7231,4.9255,5.1691,5.4236,5.6844,5.7638,5.8125,5.8605,6.0099,6.0965,6.0584,6.1344,6.164,6.1197,6.1532,6.1581,6.1136,6.098,6.0405,5.9385,5.9803,5.9516,5.8523,5.8523,5.8523,5.8523,5.8523,5.8523,5.8523,5.8523,5.8709,5.8965,5.8965,6.0027,6.1746,6.284,6.4146,6.5543,6.66,6.6999,6.6999,6.6999,6.6999,6.6999,6.6999,6.6879,6.667,6.6161,6.5443,6.4755,6.4605,6.4575,6.4575,6.4575,6.4665,6.4784,6.4784,6.5293,6.5772,6.5772,6.6161,6.652,6.652,6.6131,6.5712,6.5562,6.7028,6.7574,6.5623,6.7404,6.8215,6.6136,6.5207,6.4623,6.4376,6.4789,6.5467,6.6322,6.8254,6.9526,6.9798,6.9798,6.9798,6.9798,6.9798,6.9798,6.9798,6.9798,6.9798,6.9798,6.9798,7.0096,7.0626,7.0626,7.0626,3.8344,3.9547,4.0827,4.0827,4.1272,4.1716,4.1716,4.1742,4.169,4.1376,4.1324,4.1585,4.2474,4.2814,4.3546,4.5375,4.6578,4.827,5.119,5.3797,5.6059,5.7969,5.8261,5.8623,5.9161,6.0324,6.0805,6.0352,6.1132,6.1319,6.0744,6.1267,6.145,6.1136,6.111,6.0692,5.9777,5.9803,5.9385,5.8523,5.8523,5.8523,5.8523,5.8523,5.8523,5.8523,5.8523,5.8523,5.8523,5.8523,5.9315,6.0688,6.1504,6.3075,6.5007,6.5731,6.6476,6.6999,6.6999,6.6999,6.6999,6.6999,6.6999,6.6939,6.658,6.6221,6.5802,6.5203,6.5024,6.5024,6.5024,6.5263,6.5473,6.5473,6.5981,6.646,6.646,6.6729,6.6999,6.6999,6.67,6.637,6.6071,6.7645,6.8453,6.6827,6.7926,6.8426,6.7128,6.5458,6.4384,6.4384,6.4585,6.5142,6.6322,6.8004,6.9252,6.9798,6.9798,6.9798,6.9798,6.9798,6.9798,6.9798,6.9798,6.9798,6.9798,6.9798,7.0163,7.0891,7.0891,7.109,3.8083,3.9703,4.1272,4.1089,4.1559,4.2081,4.2081,4.1664,4.1324,4.1324,4.1376,4.1638,4.2342,4.3363,4.4382,4.514,4.7283,5.0037,5.3464,5.5675,5.7384,5.8497,5.844,5.8657,5.9558,6.0085,6.0286,5.9913,6.0535,6.0771,6.0248,6.0692,6.098,6.098,6.0901,6.0614,6.0091,5.9594,5.9072,5.8523,5.8523,5.8523,5.8523,5.8523,5.8523,5.8523,5.8523,5.8523,5.8523,5.8523,5.9175,6.0303,6.0483,6.2214,6.4624,6.4816,6.5794,6.6999,6.6999,6.6999,6.6999,6.6999,6.6999,6.6999,6.6999,6.6999,6.6759,6.5652,6.5323,6.5323,6.5323,6.5742,6.6161,6.6161,6.658,6.6999,6.6999,6.6999,6.6999,6.6999,6.6999,6.6819,6.6251,6.8108,6.9359,6.8429,6.8626,6.8726,6.8178,6.5994,6.436,6.4156,6.4418,6.5132,6.6427,6.7324,6.8403,6.9751,6.9798,6.9798,6.9798,6.9798,6.9798,6.9798,6.9798,6.9864,6.9964,6.9964,7.0394,7.1223,7.1223,7.1587,3.8945,4.0305,4.1089,4.0122,4.0671,4.1455,4.1455,4.1376,4.1324,4.1324,4.1716,4.2343,4.3468,4.4565,4.5872,4.7414,5.0002,5.272,5.5215,5.5968,5.6788,5.7927,5.8399,5.8641,5.8456,5.9554,6.0059,5.9691,6.0059,6.0326,6.0222,6.03,6.0352,6.0352,5.9882,5.9594,5.949,5.9411,5.9072,5.8523,5.8523,5.8523,5.8523,5.8523,5.8523,5.8523,5.8523,5.8523,5.8523,5.8523,5.8638,5.892,6.0165,6.1639,6.3235,6.4496,6.5794,6.6999,6.6999,6.6999,6.6999,6.6999,6.6999,6.6999,6.6999,6.6999,6.6939,6.6759,6.67,6.67,6.67,6.6759,6.6849,6.6849,6.6909,6.6999,6.6999,6.6999,6.6999,6.6999,6.6999,6.6969,6.6849,6.8876,6.9677,6.7546,6.9388,6.9836,6.6814,6.6381,6.6013,6.4993,6.4422,6.4976,6.7099,6.6881,6.7567,6.967,6.9798,6.9798,6.9798,6.9798,6.9798,6.9798,6.9798,7.0096,7.0726,7.0726,7.1421,7.278,7.278,7.2813,3.7978,3.9285,4.0331,4.0095,4.1376,4.2683,4.2683,4.2448,4.2239,4.2239,4.2448,4.2971,4.4147,4.5297,4.7048,5.0028,5.2668,5.4811,5.6196,5.7025,5.764,5.816,5.8447,5.8589,5.8564,5.9258,5.9606,5.9196,5.9534,5.962,5.9307,5.9594,5.9751,5.9751,5.949,5.9359,5.9359,5.9072,5.8758,5.8523,5.8523,5.8523,5.8523,5.8523,5.8523,5.8523,5.8523,5.8523,5.8523,5.8523,5.8523,5.8567,5.9245,6.0372,6.1908,6.4081,6.5794,6.6999,6.6999,6.6999,6.6999,6.6999,6.6999,6.6999,6.6999,6.6999,6.6999,6.6999,6.6999,6.6999,6.6999,6.6999,6.6999,6.6999,6.6999,6.6999,6.6999,6.6999,6.6999,6.6999,6.6999,6.6999,6.6999,6.8444,6.9232,6.8177,6.9126,6.9364,6.772,6.6847,6.6157,6.5622,6.4964,6.5478,6.7823,6.7723,6.8196,6.9688,6.9798,6.9798,6.9798,6.9798,6.9997,7.0394,7.0394,7.0759,7.1488,7.1488,7.2051,7.3111,7.3111,7.331,3.7429,3.8475,3.9599,4.0435,4.1951,4.3415,4.3964,4.3624,4.3337,4.3755,4.3833,4.4095,4.5009,4.6447,4.8669,5.2302,5.4707,5.6379,5.7111,5.7948,5.8523,5.8523,5.8523,5.8537,5.8719,5.9033,5.9033,5.8771,5.9033,5.9045,5.8732,5.8993,5.9228,5.9359,5.9228,5.9176,5.9176,5.8732,5.8523,5.8523,5.8523,5.8523,5.8523,5.8523,5.8523,5.8523,5.8523,5.8523,5.8523,5.8523,5.8523,5.8523,5.8523,5.9568,6.1436,6.3952,6.5794,6.6999,6.6999,6.6999,6.6999,6.6999,6.6999,6.6999,6.6999,6.6999,6.6999,6.6999,6.6999,6.6999,6.6999,6.6999,6.6999,6.6999,6.6999,6.6999,6.6999,6.6999,6.6999,6.6999,6.6999,6.6999,6.6999,6.7998,6.8707,6.8444,6.8825,6.9,6.8444,6.7394,6.6583,6.6251,6.5652,6.6029,6.7911,6.8568,6.9186,6.9845,7.0151,7.0328,7.0328,7.0328,7.0593,7.1156,7.1156,7.1521,7.225,7.225,7.2647,7.3376,7.3376,7.3641,3.8684,3.9102,3.9181,4.0827,4.1376,4.2056,4.4173,4.4225,4.4278,4.5898,4.6238,4.6264,4.6342,4.8616,5.1256,5.3687,5.5569,5.7137,5.8235,5.847,5.8523,5.8523,5.8523,5.8523,5.8504,5.8575,5.8575,5.8504,5.8575,5.8784,5.9281,5.8836,5.881,5.9333,5.8862,5.8575,5.8575,5.8523,5.8523,5.8523,5.8523,5.8523,5.8523,5.8523,5.8523,5.8523,5.8523,5.8523,5.8523,5.8523,5.8523,5.8523,5.8523,6.0192,6.284,6.4339,6.5794,6.6999,6.6999,6.6999,6.6999,6.6999,6.6999,6.6999,6.6999,6.6999,6.6999,6.6999,6.6999,6.6999,6.6999,6.6999,6.6999,6.6999,6.6999,6.6999,6.6999,6.6999,6.6999,6.6999,6.6999,6.6999,6.6999,6.7998,6.8444,6.7274,6.9031,6.9636,6.7457,6.7997,6.8145,6.7031,6.634,6.619,6.6796,6.8806,7.0125,7.0182,7.1242,7.1852,7.1852,7.1852,7.1885,7.1918,7.1918,7.2283,7.3045,7.3045,7.3409,7.4105,7.4105,7.4155,3.7037,3.8057,3.9128,4.088,4.1585,4.2343,4.4278,4.5401,4.6421,4.7806,4.8094,4.8094,4.8094,5.0446,5.2798,5.4001,5.5961,5.7608,5.8392,5.8523,5.8523,5.8523,5.8523,5.8523,5.8523,5.8523,5.8523,5.8523,5.8523,5.8601,5.8836,5.8627,5.8601,5.8836,5.8627,5.8523,5.8523,5.8523,5.8523,5.8523,5.8523,5.8523,5.8523,5.8523,5.8523,5.8523,5.8523,5.8523,5.8523,5.8523,5.8523,5.8523,5.8523,5.9707,6.1639,6.3037,6.4496,6.5794,6.6723,6.6999,6.6999,6.6999,6.6999,6.6999,6.6999,6.6999,6.6999,6.6999,6.6999,6.6999,6.6999,6.6999,6.6999,6.6999,6.6999,6.6999,6.6999,6.6999,6.6999,6.6999,6.6999,6.6999,6.6999,6.7396,6.7548,6.703,6.7789,6.7998,6.7091,6.7396,6.7487,6.706,6.7426,6.7777,6.7969,6.9531,7.0467,7.0467,7.1411,7.2018,7.2018,7.2018,7.2216,7.268,7.268,7.3045,7.3773,7.3773,7.3906,7.4221,7.4221,7.4221,3.6374,3.7488,3.882,4.0372,4.1409,4.2554,4.4528,4.6247,4.7919,4.9819,4.9871,4.9688,4.9845,5.1648,5.3426,5.4341,5.6275,5.7869,5.8444,5.8523,5.8523,5.8523,5.8523,5.8523,5.8523,5.8523,5.8523,5.8523,5.8523,5.8523,5.8523,5.8523,5.8523,5.8523,5.8523,5.8523,5.8523,5.8523,5.8523,5.8523,5.8523,5.8523,5.8523,5.8523,5.8523,5.8523,5.8523,5.8523,5.8523,5.8523,5.8523,5.8523,5.8523,5.9385,6.0688,6.1706,6.33,6.5007,6.6011,6.6661,6.6999,6.6999,6.6999,6.6999,6.6999,6.6999,6.6999,6.6999,6.6999,6.6999,6.6999,6.6999,6.6999,6.6999,6.6999,6.6999,6.6999,6.6999,6.6999,6.6999,6.6999,6.6999,6.6999,6.6999,6.6999,6.6999,6.6999,6.6999,6.6999,6.6999,6.6999,6.6999,6.7729,6.8206,6.8206,6.9348,7.0035,7.0035,7.0963,7.1709,7.2097,7.2148,7.2529,7.3442,7.3442,7.3674,7.4221,7.4221,7.4221,7.4221,7.4221,7.4221,3.7215,3.769,3.8179,3.931,4.0669,4.2396,4.4955,4.6695,4.8643,5.1847,5.1622,5.0995,5.1518,5.2093,5.3086,5.4811,5.6536,5.7843,5.8418,5.8523,5.8523,5.8523,5.8523,5.8523,5.8523,5.8523,5.8523,5.8523,5.8523,5.8523,5.8523,5.8523,5.8523,5.8523,5.8523,5.8523,5.8523,5.8523,5.8523,5.8523,5.8523,5.8523,5.8523,5.8523,5.8523,5.8523,5.8523,5.8523,5.8523,5.8523,5.8523,5.8523,5.8523,5.9385,6.0551,6.062,6.2414,6.488,6.488,6.5794,6.6999,6.6999,6.6999,6.6999,6.6999,6.6999,6.6999,6.6999,6.6999,6.6999,6.6999,6.6999,6.6999,6.6999,6.6999,6.6999,6.6999,6.6999,6.6999,6.6999,6.6999,6.6999,6.6999,6.6999,6.6999,6.6999,6.6999,6.6999,6.6999,6.6999,6.6999,6.6999,6.6999,6.6999,6.6999,6.8118,6.8766,6.8766,6.9922,7.1099,7.2325,7.2379,7.294,7.4171,7.4171,7.4171,7.4221,7.4221,7.4221,7.4221,7.4221,7.4221,3.6256,3.724,3.8618,4.0388,4.2311,4.4416,4.677,4.8446,5.0338,5.3126,5.3426,5.2981,5.2354,5.3034,5.4001,5.4942,5.6196,5.7399,5.8366,5.8523,5.8523,5.8523,5.8523,5.8523,5.8523,5.8523,5.8523,5.8523,5.8523,5.8523,5.8523,5.8523,5.8523,5.8523,5.8523,5.8523,5.8523,5.8523,5.8523,5.8523,5.8523,5.8523,5.8523,5.8523,5.8523,5.8523,5.8523,5.8523,5.8523,5.8523,5.8523,5.8523,5.8523,5.8779,5.9245,6.0234,6.184,6.3562,6.456,6.5794,6.6999,6.6999,6.6999,6.6999,6.6999,6.6999,6.6999,6.6999,6.6999,6.6999,6.6999,6.6999,6.6999,6.6999,6.6999,6.6999,6.6999,6.6999,6.6999,6.6999,6.6999,6.6999,6.6999,6.6999,6.6999,6.6999,6.6999,6.6999,6.6999,6.6999,6.7335,6.8177,6.7487,6.7335,6.8206,6.7819,6.7548,6.7548,6.7909,6.8972,7.1044,7.1155,7.1701,7.2887,7.294,7.3337,7.4221,7.4221,7.4221,7.4221,7.4221,7.4221,3.7344,3.8519,4.01,4.2025,4.3764,4.577,4.8669,5.0348,5.1805,5.3477,5.383,5.3818,5.3583,5.3896,5.455,5.5595,5.6536,5.7477,5.8392,5.8523,5.8523,5.8523,5.8523,5.8523,5.8523,5.8523,5.8523,5.8523,5.8523,5.8523,5.8523,5.8523,5.8523,5.8523,5.8523,5.8523,5.8523,5.8523,5.8523,5.8523,5.8523,5.8523,5.8523,5.8523,5.8523,5.8523,5.8523,5.8523,5.8523,5.8523,5.8523,5.8523,5.8523,5.8523,5.8567,5.9429,6.0688,6.2109,6.3562,6.5007,6.626,6.6785,6.6999,6.6999,6.6999,6.6999,6.6999,6.6999,6.6999,6.6999,6.6999,6.6999,6.6999,6.6999,6.6999,6.6999,6.6999,6.6999,6.6999,6.6999,6.6999,6.6999,6.6999,6.6999,6.6999,6.6999,6.6999,6.6999,6.6999,6.6999,6.7427,6.8649,6.7729,6.7487,6.8707,6.7729,6.6999,6.6999,6.6999,6.7668,6.9147,6.9636,7.0431,7.1647,7.1647,7.2058,7.2782,7.3285,7.3492,7.3492,7.3986,7.4221,3.9395,4.0614,4.2007,4.3853,4.5081,4.6803,5.0297,5.191,5.2775,5.3222,5.3451,5.387,5.4916,5.4654,5.4837,5.6536,5.7242,5.7791,5.8418,5.8523,5.8523,5.8523,5.8523,5.8523,5.8523,5.8523,5.8523,5.8523,5.8523,5.8523,5.8523,5.8523,5.8523,5.8523,5.8523,5.8523,5.8523,5.8523,5.8523,5.8523,5.8523,5.8523,5.8523,5.8523,5.8523,5.8523,5.8523,5.8523,5.8523,5.8523,5.8523,5.8523,5.8523,5.8523,5.8523,5.8523,5.9359,6.0825,6.2309,6.3692,6.5134,6.6538,6.6999,6.6999,6.6999,6.6999,6.6999,6.6999,6.6999,6.6999,6.6999,6.6999,6.6999,6.6999,6.6999,6.6999,6.6999,6.6999,6.6999,6.6999,6.6999,6.6999,6.6999,6.6999,6.6999,6.6999,6.6999,6.6999,6.6999,6.6999,6.7427,6.8649,6.7729,6.7487,6.8707,6.7729,6.6999,6.6999,6.6999,6.6999,6.6999,6.8058,6.9174,7.0431,7.0431,7.0487,7.0599,7.1701,7.2219,7.2272,7.3492,7.407,3.7736,3.9182,4.1259,4.3695,4.6619,4.9091,5.0104,5.1088,5.2181,5.3673,5.4365,5.4811,5.5046,5.4994,5.5334,5.6588,5.6902,5.7346,5.8366,5.8523,5.8523,5.8523,5.8523,5.8523,5.8523,5.8523,5.8523,5.8523,5.8523,5.8523,5.8523,5.8523,5.8523,5.8523,5.8523,5.8523,5.8523,5.8523,5.8523,5.8523,5.8523,5.8523,5.8523,5.8523,5.8523,5.8523,5.8523,5.8523,5.8523,5.8523,5.8523,5.8523,5.8523,5.8523,5.8523,5.8523,5.9359,6.0825,6.2309,6.3692,6.5134,6.6538,6.6999,6.6999,6.6999,6.6999,6.6999,6.6999,6.6999,6.6999,6.6999,6.6999,6.6999,6.6999,6.6999,6.6999,6.6999,6.6999,6.6999,6.6999,6.6999,6.6999,6.6999,6.6999,6.6999,6.6999,6.6999,6.6999,6.6999,6.6999,6.7427,6.8649,6.7729,6.7487,6.8707,6.7729,6.6999,6.6999,6.6999,6.6999,6.6999,6.7274,6.7939,6.9174,6.9174,6.9636,7.0599,7.0878,7.0989,7.0989,7.2219,7.2782,3.8774,4.0335,4.2437,4.5873,4.8339,5.0066,5.0499,5.1151,5.1958,5.327,5.3999,5.4559,5.5046,5.5099,5.5465,5.6615,5.6798,5.7216,5.8366,5.8523,5.8523,5.8523,5.8523,5.8523,5.8523,5.8523,5.8523,5.8523,5.8523,5.8523,5.8523,5.8523,5.8523,5.8523,5.8523,5.8523,5.8523,5.8523,5.8523,5.8523,5.8523,5.8523,5.8523,5.8523,5.8523,5.8523,5.8523,5.8523,5.8523,5.8523,5.8523,5.8523,5.8523,5.8523,5.8523,5.8523,5.8965,5.9777,6.1233,6.2707,6.4146,6.5543,6.6476,6.6999,6.6999,6.6999,6.6999,6.6999,6.6999,6.6999,6.6999,6.6999,6.6999,6.6999,6.6999,6.6999,6.6999,6.6999,6.6999,6.6999,6.6999,6.6999,6.6999,6.6999,6.6999,6.6999,6.6999,6.6999,6.6999,6.6999,6.7427,6.8649,6.7729,6.7487,6.8707,6.7729,6.6999,6.6999,6.6999,6.6999,6.6999,6.6999,6.7274,6.7939,6.7939,6.8237,6.8855,6.9463,6.9751,6.9751,7.0989,7.1538,3.9693,4.1802,4.4189,4.8239,4.9677,5.0321,5.0905,5.1331,5.1813,5.2581,5.328,5.4126,5.4953,5.5099,5.5465,5.6615,5.6798,5.7216,5.8366,5.8523,5.8523,5.8523,5.8523,5.8523,5.8523,5.8523,5.8523,5.8523,5.8523,5.8523,5.8523,5.8523,5.8523,5.8523,5.8523,5.8523,5.8523,5.8523,5.8523,5.8523,5.8523,5.8523,5.8523,5.8523,5.8523,5.8523,5.8523,5.8523,5.8523,5.8523,5.8523,5.8523,5.8523,5.8523,5.8523,5.8523,5.8523,5.8709,6.0096,6.1571,6.3037,6.4432,6.5856,6.6999,6.6999,6.6999,6.6999,6.6999,6.6999,6.6999,6.6999,6.6999,6.6999,6.6999,6.6999,6.6999,6.6999,6.6999,6.6999,6.6999,6.6999,6.6999,6.6999,6.6999,6.6999,6.6999,6.6999,6.6999,6.6999,6.6999,6.7396,6.8384,6.7608,6.7366,6.8384,6.7548,6.6999,6.6999,6.6999,6.6999,6.6999,6.6999,6.6999,6.6999,6.6999,6.6999,6.6999,6.7998,6.8503,6.8503,6.9751,7.0318,3.6733,4.0436,4.4853,4.7936,4.948,5.0338,5.0612,5.0716,5.1101,5.214,5.3458,5.4567,5.5006,5.5099,5.5465,5.6615,5.6798,5.7216,5.8366,5.8523,5.8523,5.8523,5.8523,5.8523,5.8523,5.8523,5.8523,5.8523,5.8523,5.8523,5.8523,5.8523,5.8523,5.8523,5.8523,5.8523,5.8523,5.8523,5.8523,5.8523,5.8523,5.8523,5.8523,5.8523,5.8523,5.8523,5.8523,5.8523,5.8523,5.8523,5.8523,5.8523,5.8523,5.8523,5.8523,5.8523,5.8523,5.8709,6.0096,6.1571,6.3037,6.4432,6.5856,6.6999,6.6999,6.6999,6.6999,6.6999,6.6999,6.6999,6.6999,6.6999,6.6999,6.6999,6.6999,6.6999,6.6999,6.6999,6.6999,6.6999,6.6999,6.6999,6.6999,6.6999,6.6999,6.6999,6.6999,6.6999,6.6999,6.6999,6.703,6.7213,6.7121,6.706,6.7213,6.7091,6.6999,6.6999,6.6999,6.6999,6.6999,6.6999,6.6999,6.6999,6.6999,6.6999,6.6999,6.7152,6.7213,6.7274,6.8503,6.9058,3.8192,4.1595,4.5129,4.7762,4.9066,4.9894,5.0312,5.0741,5.1267,5.1975,5.3177,5.4282,5.498,5.5099,5.536,5.617,5.6301,5.6719,5.7869,5.8026,5.8157,5.847,5.8523,5.8523,5.8523,5.8523,5.8523,5.8523,5.8523,5.8523,5.8523,5.8523,5.8523,5.8523,5.8523,5.8523,5.8523,5.8523,5.8523,5.8523,5.8523,5.8523,5.8523,5.8523,5.8523,5.8523,5.8523,5.8523,5.8523,5.8523,5.8523,5.8523,5.8523,5.8523,5.8523,5.8523,5.8523,5.8594,5.9245,6.092,6.2906,6.3496,6.5227,6.6999,6.6999,6.6999,6.6999,6.6999,6.6999,6.6999,6.6999,6.6999,6.6999,6.6999,6.6999,6.6999,6.6999,6.6999,6.6999,6.6999,6.6999,6.6999,6.6999,6.6999,6.6999,6.6999,6.6999,6.6999,6.6999,6.6999,6.6999,6.6999,6.6999,6.6999,6.6999,6.6999,6.6999,6.6999,6.6999,6.6999,6.6999,6.6999,6.6999,6.6999,6.6999,6.7121,6.7304,6.7121,6.7121,6.7304,6.7608,6.7759,3.9058,4.1746,4.4042,4.6656,4.8042,4.8998,4.9878,5.0621,5.1293,5.1896,5.2712,5.3699,5.4666,5.4994,5.5282,5.583,5.5909,5.6275,5.7294,5.7451,5.7608,5.8026,5.8078,5.8131,5.8287,5.8314,5.8366,5.8497,5.8523,5.8523,5.8523,5.8523,5.8523,5.8523,5.8523,5.8523,5.8523,5.8523,5.8523,5.8523,5.8523,5.8523,5.8523,5.8523,5.8523,5.8523,5.8523,5.8523,5.8523,5.8523,5.8523,5.8523,5.8523,5.8523,5.8523,5.8523,5.8523,5.8523,5.8523,6.0096,6.2309,6.2707,6.4496,6.6538,6.6908,6.6999,6.6999,6.6999,6.6999,6.6999,6.6999,6.6999,6.6999,6.6999,6.6999,6.6999,6.6999,6.6999,6.6999,6.6999,6.6999,6.6999,6.6999,6.6999,6.6999,6.6999,6.6999,6.6999,6.6999,6.6999,6.6999,6.6999,6.6999,6.706,6.7121,6.7121,6.7121,6.7121,6.7121,6.7121,6.6999,6.6999,6.6999,6.6999,6.6999,6.7182,6.7487,6.7365,6.7365,6.7608,6.7304,6.7121,3.7267,3.8945,4.0697,4.4068,4.5905,4.736,4.904,4.9929,5.0654,5.1805,5.2282,5.2929,5.4053,5.4707,5.5282,5.583,5.5909,5.6118,5.6771,5.685,5.6876,5.6902,5.6902,5.7111,5.773,5.7782,5.7921,5.847,5.8523,5.8523,5.8523,5.8523,5.8523,5.8523,5.8523,5.8523,5.8523,5.8523,5.8523,5.8523,5.8523,5.8523,5.8523,5.8523,5.8523,5.8523,5.8523,5.8523,5.8523,5.8523,5.8523,5.8523,5.8523,5.8523,5.8523,5.8523,5.8523,5.8523,5.8523,5.9498,6.0961,6.2375,6.3822,6.5261,6.66,6.6999,6.6999,6.6999,6.6999,6.6999,6.6999,6.6999,6.6999,6.6999,6.6999,6.6999,6.6999,6.6999,6.6999,6.6999,6.6999,6.6999,6.6999,6.6999,6.6999,6.6999,6.6999,6.6999,6.6999,6.6999,6.6999,6.6999,6.6999,6.7121,6.7487,6.7487,6.7487,6.7487,6.7487,6.7365,6.6999,6.6999,6.6999,6.6999,6.6999,6.7182,6.7487,6.7789,6.797,6.797,6.7669,6.7487,3.6862,3.8161,3.9677,4.2396,4.4328,4.5861,4.7215,4.883,5.0132,5.0549,5.1638,5.2616,5.3034,5.387,5.4707,5.5308,5.5386,5.5595,5.6144,5.6223,5.6379,5.6771,5.6798,5.6876,5.7085,5.7451,5.7808,5.7948,5.8314,5.8523,5.8523,5.8523,5.8523,5.8523,5.8523,5.8523,5.8523,5.8523,5.8523,5.8523,5.8523,5.8523,5.8523,5.8523,5.8523,5.8523,5.8523,5.8523,5.8523,5.8523,5.8523,5.8523,5.8523,5.8523,5.8523,5.8523,5.8523,5.8523,5.8523,5.9429,6.0825,6.2309,6.3757,6.5134,6.66,6.6999,6.6999,6.6999,6.6999,6.6999,6.6999,6.6999,6.6999,6.6999,6.6999,6.6999,6.6999,6.6999,6.6999,6.6999,6.6999,6.6999,6.6999,6.6999,6.6999,6.6999,6.6999,6.6999,6.6999,6.6999,6.6999,6.6999,6.6999,6.7121,6.7487,6.7487,6.7608,6.7789,6.7608,6.7487,6.7365,6.7121,6.6999,6.6999,6.7426,6.7729,6.785,6.7729,6.7879,6.8238,6.797,6.7729,3.6131,3.7273,3.8684,4.101,4.2735,4.441,4.6081,4.7806,4.9139,4.9531,5.0864,5.1962,5.2171,5.2981,5.3896,5.468,5.4811,5.4994,5.5569,5.5647,5.5778,5.6196,5.6223,5.6301,5.6484,5.685,5.7163,5.7346,5.7895,5.8235,5.8235,5.8418,5.8523,5.8523,5.8523,5.8523,5.8523,5.8523,5.8523,5.8523,5.8523,5.8523,5.8523,5.8523,5.8523,5.8523,5.8523,5.8523,5.8523,5.8523,5.8523,5.8523,5.8523,5.8523,5.8523,5.8523,5.8523,5.8523,5.8523,5.9105,6.0234,6.2175,6.3431,6.456,6.6414,6.6999,6.6999,6.6999,6.6999,6.6999,6.6999,6.6999,6.6999,6.6999,6.6999,6.6999,6.6999,6.6999,6.6999,6.6999,6.6999,6.6999,6.6999,6.6999,6.6999,6.6999,6.6999,6.6999,6.6999,6.7121,6.7182,6.7182,6.7304,6.7457,6.7759,6.7819,6.7879,6.8119,6.7939,6.7759,6.7669,6.7487,6.7365,6.7365,6.7789,6.803,6.8119,6.7999,6.8179,6.8595,6.8238,6.797,0.0,0.0,0.0,3.9756,4.1193,4.284,4.5689,4.6787,4.7571,4.8747,4.9897,5.089,5.1413,5.2014,5.2825,5.3949,5.4158,5.4419,5.4994,5.5099,5.5099,5.5099,5.5099,5.5308,5.583,5.5909,5.6144,5.6745,5.732,5.7704,5.773,5.8209,5.8523,5.8523,5.8523,5.8523,5.8523,5.8523,5.8523,5.8523,5.8523,5.8523,5.8523,5.8523,5.8523,5.8523,5.8523,5.8523,5.8523,5.8523,5.8523,5.8523,5.8523,5.8523,5.8523,5.8523,5.8523,5.8523,5.8523,5.8523,5.8991,6.184,6.2773,6.33,6.6136,6.6999,6.6999,6.6999,6.6999,6.6999,6.6999,6.6999,6.6999,6.6999,6.6999,6.6999,6.6999,6.6999,6.6999,6.6999,6.6999,6.6999,6.6999,6.6999,6.6999,6.6999,6.6999,6.6999,6.6999,6.7304,6.7487,6.7487,6.7789,6.815,6.8386,6.8386,6.8386,6.8386,6.8386,6.8298,6.803,6.803,6.803,6.803,6.803,6.8119,6.8386,6.8713,6.8889,6.8889,6.8595,6.8238,3.4161,0.0,0.0,0.0,0.0,0.0,4.2369,4.3833,4.5166,4.6342,4.7832,4.9087,4.9662,5.0603,5.1492,5.2197,5.3373,5.4262,5.4419,5.4811,5.5099,5.5099,5.5099,5.5177,5.5308,5.5674,5.5987,5.6144,5.6719,5.7216,5.7704,5.8209,5.8523,5.8523,5.8523,5.8523,5.8523,5.8523,5.8523,5.8523,5.8523,5.8523,5.8523,5.8523,5.8523,5.8523,5.8523,5.8523,5.8523,5.8523,5.8523,5.8523,5.8523,5.8523,5.8523,5.8523,5.8523,5.8523,5.8523,5.8523,5.8991,6.184,6.2773,6.33,6.6136,6.6999,6.6999,6.6999,6.6999,6.6999,6.6999,6.6999,6.6999,6.6999,6.6999,6.6999,6.6999,6.6999,6.6999,6.6999,6.6999,6.6999,6.6999,6.6999,6.6999,6.6999,6.6999,6.6999,6.6999,6.7304,6.7487,6.7487,6.7789,6.815,6.8386,6.8386,6.8505,6.8772,6.8505,6.8358,6.8298,6.809,6.803,6.803,6.8179,6.8358,6.8386,6.8505,6.8623,6.8889,6.8595,6.8327,3.4375,3.5624,3.7202,3.7482,0.0,0.0,4.1664,4.2814,4.3912,4.5323,4.6813,4.7937,4.8277,4.9296,5.0263,5.0786,5.2145,5.3295,5.3792,5.4158,5.4471,5.4707,5.4733,5.4811,5.5072,5.5386,5.5569,5.5569,5.6118,5.6798,5.7678,5.8209,5.8523,5.8523,5.8523,5.8523,5.8523,5.8523,5.8523,5.8523,5.8523,5.8523,5.8523,5.8523,5.8523,5.8523,5.8523,5.8523,5.8523,5.8523,5.8523,5.8523,5.8523,5.8523,5.8523,5.8523,5.8523,5.8523,5.8523,5.8523,5.8991,6.184,6.2773,6.33,6.6136,6.6999,6.6999,6.6999,6.6999,6.6999,6.6999,6.6999,6.6999,6.6999,6.6999,6.6999,6.6999,6.6999,6.6999,6.6999,6.6999,6.6999,6.6999,6.6999,6.6999,6.6999,6.6999,6.6999,6.6999,6.7426,6.7729,6.7729,6.815,6.8417,6.8595,6.8595,6.8713,6.8889,6.8713,6.8595,6.8595,6.8476,6.8388,6.8388,6.8535,6.8595,6.8595,6.8595,6.8713,6.8889,6.8713,6.8595,3.544,3.6619,3.8277,3.8616,3.9316,0.0,4.2213,4.2788,4.3337,4.4853,4.5999,4.6834,4.7022,4.8015,4.8982,4.9505,5.0603,5.1858,5.3112,5.3347,5.3583,5.4053,5.4158,5.4419,5.4942,5.5072,5.5099,5.5099,5.5595,5.6405,5.7503,5.8104,5.8444,5.8523,5.8523,5.8523,5.8523,5.8523,5.8523,5.8523,5.8523,5.8523,5.8523,5.8523,5.8523,5.8523,5.8523,5.8523,5.8523,5.8523,5.8523,5.8523,5.8523,5.8523,5.8523,5.8523,5.8523,5.8523,5.8523,5.8523,5.8991,6.184,6.2773,6.33,6.6136,6.6999,6.6999,6.6999,6.6999,6.6999,6.6999,6.6999,6.6999,6.6999,6.6999,6.6999,6.6999,6.6999,6.6999,6.6999,6.6999,6.6999,6.6999,6.6999,6.6999,6.6999,6.6999,6.6999,6.6999,6.7608,6.803,6.803,6.8535,6.8889,6.8889,6.8889,6.8889,6.8889,6.8889,6.8889,6.8889,6.8889,6.8889,6.8889,6.8889,6.8889,6.8889,6.8889,6.8889,6.8889,6.8889,6.8889,3.7026,3.835,3.9794,3.8971,4.0244,0.0,4.0488,4.135,4.2291,4.2186,4.3075,4.4147,4.5088,4.6212,4.7179,4.7728,4.9165,5.0786,5.2433,5.3086,5.3426,5.353,5.3949,5.4262,5.4367,5.4811,5.5099,5.5099,5.5595,5.6223,5.6928,5.7529,5.8026,5.8497,5.8523,5.8523,5.8523,5.8523,5.8523,5.8523,5.8523,5.8523,5.8523,5.8523,5.8523,5.8523,5.8523,5.8523,5.8523,5.8523,5.8523,5.8523,5.8523,5.8523,5.8523,5.8523,5.8523,5.8523,5.8523,5.8523,5.8991,6.184,6.2773,6.33,6.6136,6.6999,6.6999,6.6999,6.6999,6.6999,6.6999,6.6999,6.6999,6.6999,6.6999,6.6999,6.6999,6.6999,6.6999,6.6999,6.6999,6.6999,6.6999,6.6999,6.6999,6.6999,6.6999,6.6999,6.6999,6.7608,6.803,6.803,6.8535,6.8889,6.8889,6.8889,6.8889,6.8889,6.8889,6.8889,6.8889,6.8889,6.8889,6.8889,6.8889,6.8889,6.8889,6.8889,6.8889,6.8889,6.8889,6.8889,3.8187,3.9216,4.0565,3.9999,4.0789,0.0,0.0,4.1324,4.1899,4.2474,4.2814,4.3284,4.4173,4.5036,4.5794,4.6395,4.7911,4.9348,5.0211,5.1596,5.2616,5.2903,5.3191,5.3478,5.3766,5.4314,5.4785,5.5072,5.5595,5.604,5.6327,5.719,5.7791,5.8078,5.8366,5.8523,5.8523,5.8523,5.8523,5.8523,5.8523,5.8523,5.8523,5.8523,5.8523,5.8523,5.8523,5.8523,5.8523,5.8523,5.8523,5.8523,5.8523,5.8523,5.8523,5.8523,5.8523,5.8523,5.8523,5.8523,5.885,6.0961,6.2175,6.3169,6.5353,6.6446,6.6999,6.6999,6.6999,6.6999,6.6999,6.6999,6.6999,6.6999,6.6999,6.6999,6.6999,6.6999,6.6999,6.6999,6.6999,6.6999,6.6999,6.6999,6.6999,6.6999,6.6999,6.6999,6.6999,6.7426,6.7789,6.797,6.8417,6.8713,6.8889,6.8889,6.8889,6.8889,6.8889,6.8889,6.8889,6.8889,6.8889,6.8889,6.8889,6.8889,6.8889,6.8889,6.8889,6.8889,6.8889,6.8889,3.955,4.0415,4.1621,4.1209,4.1671,4.2136,0.0,0.0,0.0,4.2997,4.2918,4.2892,4.3572,4.399,4.4513,4.5323,4.6708,4.7728,4.7832,4.9636,5.1178,5.1779,5.204,5.2406,5.2981,5.3452,5.4053,5.4863,5.5125,5.5438,5.5883,5.6798,5.7425,5.773,5.8104,5.8392,5.8523,5.8523,5.8523,5.8523,5.8523,5.8523,5.8523,5.8523,5.8523,5.8523,5.8523,5.8523,5.8523,5.8523,5.8523,5.8523,5.8523,5.8523,5.8523,5.8523,5.8523,5.8523,5.8523,5.8709,5.9105,6.0578,6.2242,6.3822,6.4944,6.6136,6.6999,6.6999,6.6999,6.6999,6.6999,6.6999,6.6999,6.6999,6.6999,6.6999,6.6999,6.6999,6.6999,6.6999,6.6999,6.6999,6.6999,6.6999,6.6999,6.6999,6.6999,6.6999,6.6999,6.7365,6.7729,6.797,6.8298,6.8595,6.8889,6.8889,6.8889,6.8889,6.8889,6.8889,6.8889,6.8889,6.8889,6.8889,6.8889,6.8889,6.8889,6.8889,6.8889,6.8889,6.8889,6.8889,4.2062,4.3194,4.4209,4.2383,4.3733,4.46,4.1328,0.0,4.2448,4.1089,0.0,4.1847,4.2918,0.0,0.0,4.4565,4.5454,4.6081,4.6604,4.778,4.8799,4.9401,5.0368,5.1204,5.1753,5.1858,5.2563,5.4184,5.3426,5.3766,5.5804,5.604,5.6588,5.7704,5.7782,5.8,5.8497,5.8523,5.8523,5.8523,5.8523,5.8523,5.8523,5.8523,5.8523,5.8523,5.8523,5.8523,5.8523,5.8523,5.8523,5.8523,5.8523,5.8523,5.8523,5.8523,5.8523,5.8523,5.8523,5.9315,6.062,6.2042,6.4339,6.6538,6.6723,6.6846,6.6999,6.6999,6.6999,6.6999,6.6999,6.6999,6.6999,6.6999,6.6999,6.6999,6.6999,6.6999,6.6999,6.6999,6.6999,6.6999,6.6999,6.6999,6.6999,6.6999,6.6999,6.6999,6.6999,6.7548,6.797,6.803,6.8476,6.8889,6.8889,6.8889,6.8889,6.8889,6.8889,6.8889,6.8889,6.8889,6.8889,6.8889,6.8889,6.8889,6.8889,6.8889,6.8889,6.8889,6.8889,6.8889,4.2414,4.3417,4.43,4.2754,4.3588,4.4119,4.1749,4.1489,4.1696,4.1507,0.0,0.0,0.0,0.0,0.0,0.0,4.5009,4.548,4.5036,4.6264,4.7545,4.846,4.8982,4.9636,5.0524,5.0603,5.1335,5.3086,5.2772,5.3217,5.4837,5.5543,5.6144,5.6615,5.7294,5.7791,5.8026,5.834,5.8523,5.8523,5.8523,5.8523,5.8523,5.8523,5.8523,5.8523,5.8523,5.8523,5.8523,5.8523,5.8523,5.8523,5.8523,5.8523,5.8523,5.8523,5.8523,5.8523,5.8523,5.892,5.9777,6.2042,6.4146,6.5948,6.6723,6.6999,6.6999,6.6999,6.6999,6.6999,6.6999,6.6999,6.6999,6.6999,6.6999,6.6999,6.6999,6.6999,6.6999,6.6999,6.6999,6.6999,6.6999,6.6999,6.6999,6.6999,6.6999,6.6999,6.6999,6.7243,6.7548,6.797,6.8209,6.8535,6.8889,6.8889,6.8889,6.8889,6.8889,6.8889,6.8889,6.8889,6.8889,6.8889,6.8889,6.8889,6.8889,6.8889,6.8889,6.8889,6.8889,6.8889,4.2942,4.3708,4.4434,4.2743,4.3008,4.3278,4.1802,4.1466,4.1569,4.2007,4.211,0.0,0.0,0.0,4.3258,4.399,0.0,4.4905,4.4199,4.5062,4.6133,4.7127,4.7649,4.8277,4.9113,4.9035,4.9819,5.1884,5.1727,5.2328,5.4105,5.4994,5.5595,5.5909,5.6902,5.7503,5.773,5.8235,5.8523,5.8523,5.8523,5.8523,5.8523,5.8523,5.8523,5.8523,5.8523,5.8523,5.8523,5.8523,5.8523,5.8523,5.8523,5.8523,5.8523,5.8523,5.8523,5.8523,5.8523,5.9061,6.0123,6.2575,6.4368,6.5668,6.6661,6.6999,6.6999,6.6999,6.6999,6.6999,6.6999,6.6999,6.6999,6.6999,6.6999,6.6999,6.6999,6.6999,6.6999,6.6999,6.6999,6.6999,6.6999,6.6999,6.6999,6.6999,6.6999,6.6999,6.6999,6.7182,6.7487,6.797,6.815,6.8417,6.8889,6.8889,6.8889,6.8889,6.8889,6.8889,6.8889,6.8889,6.8889,6.8889,6.8889,6.8889,6.8889,6.8889,6.8889,6.8889,6.8889,6.8889,4.4342,4.497,4.5506,4.2486,4.2565,4.2903,4.1003,4.1772,4.2751,4.1983,4.3044,4.4056,4.3884,4.3389,4.3389,4.4513,4.4278,0.0,0.0,4.4278,4.4173,4.4774,4.626,4.7304,4.7357,4.6917,4.778,5.0629,4.9819,5.0655,5.4027,5.4236,5.4759,5.5883,5.651,5.7111,5.773,5.8235,5.8523,5.8523,5.8523,5.8523,5.8523,5.8523,5.8523,5.8523,5.8523,5.8523,5.8523,5.8523,5.8523,5.8523,5.8523,5.8523,5.8523,5.8523,5.8523,5.8523,5.8523,6.0303,6.2906,6.4368,6.5794,6.6937,6.6999,6.6999,6.6999,6.6999,6.6999,6.6999,6.6999,6.6999,6.6999,6.6999,6.6999,6.6999,6.6999,6.6999,6.6999,6.6999,6.6999,6.6999,6.6999,6.6999,6.6999,6.6999,6.6999,6.6999,6.6999,6.7548,6.797,6.803,6.8535,6.8889,6.8889,6.8889,6.8889,6.8889,6.8889,6.8889,6.8889,6.8889,6.8889,6.8889,6.8889,6.8889,6.8889,6.8889,6.8889,6.8889,6.8889,6.8889,4.5673,4.6401,4.6753,4.4256,4.3904,4.3658,4.176,4.2017,4.256,4.1905,4.3043,4.416,4.3911,4.3702,4.3833,4.4591,4.4565,4.4251,0.0,4.3101,4.3101,4.4042,4.5687,4.6566,4.6215,4.7325,4.8515,4.9573,4.9955,5.103,5.2993,5.3792,5.4393,5.4759,5.57,5.6484,5.7085,5.766,5.8131,5.8523,5.8523,5.8523,5.8523,5.8523,5.8523,5.8523,5.8523,5.8523,5.8523,5.8523,5.8523,5.8523,5.8523,5.8523,5.8523,5.8523,5.8523,5.8523,5.8523,6.0372,6.2906,6.3366,6.5071,6.6999,6.6999,6.6999,6.6999,6.6999,6.6999,6.6999,6.6999,6.6999,6.6999,6.6999,6.6999,6.6999,6.6999,6.6999,6.6999,6.6999,6.6999,6.6999,6.6999,6.6999,6.6999,6.6999,6.6999,6.6999,6.6999,6.7182,6.7426,6.7669,6.809,6.8358,6.8564,6.8772,6.8889,6.8889,6.8889,6.8889,6.8889,6.8889,6.8889,6.8889,6.8889,6.8889,6.8889,6.8889,6.8889,6.8889,6.8889,6.8889,4.7029,4.7682,4.8033,4.6024,4.5372,4.4694,4.2881,4.3063,4.3427,4.2851,4.3676,4.4686,4.5181,4.4585,4.4327,4.5218,4.5009,4.4276,0.0,4.2866,4.3127,4.4043,4.5281,4.6138,4.6218,4.7441,4.8717,4.9963,5.0259,5.1295,5.3332,5.3927,5.4387,5.4875,5.5575,5.6196,5.6798,5.7373,5.7948,5.8523,5.8523,5.8523,5.8523,5.8523,5.8523,5.8523,5.8523,5.8523,5.8523,5.8523,5.8523,5.8523,5.8523,5.8523,5.8523,5.8523,5.8523,5.8523,5.8523,6.0372,6.2773,6.2773,6.4688,6.6999,6.6999,6.6999,6.6999,6.6999,6.6999,6.6999,6.6999,6.6999,6.6999,6.6999,6.6999,6.6999,6.6999,6.6999,6.6999,6.6999,6.6999,6.6999,6.6999,6.6999,6.6999,6.6999,6.6999,6.6999,6.6999,6.7121,6.7304,6.7669,6.797,6.8238,6.8564,6.8772,6.8889,6.8889,6.8889,6.8889,6.8889,6.8889,6.8889,6.8889,6.8889,6.8889,6.8889,6.8889,6.8889,6.8889,6.8889,6.8889]}]]